<?xml version="1.0" encoding="UTF-8" standalone="no" ?>
<gpx xmlns="http://www.topografix.com/GPX/1/1" xmlns:xsi="http://www.w3.org/2001/XMLSchema-instance" xsi:schemaLocation="http://www.topografix.com/GPX/1/1 http://www.topografix.com/GPX/1/1/gpx.xsd" version="1.1" creator="VisuGPX - https://www.visugpx.com">
  <metadata>
    <name>2017-01-22 - tentative Orionde</name>
    <desc><![CDATA[Erreur !
En bas on aurait du suivre la direction Jean Collet.
Dure la montée dans la forêt.
Plus de temps pour le sommet. 
Retour au col des Mouilles au crépuscule.
]]></desc>
  </metadata>
  <trk>
    <name><![CDATA[2017-01-22 - ski tentative Orionde]]></name>
    <trkseg>
      <trkpt lat="45.23947" lon="5.95156">
        <ele>995.1</ele>
        <time>2017-01-22T11:15:21Z</time>
      </trkpt>
      <trkpt lat="45.23948" lon="5.95155">
        <ele>998.47</ele>
        <time>2017-01-22T11:15:25Z</time>
      </trkpt>
      <trkpt lat="45.23948" lon="5.95155">
        <ele>998.47</ele>
        <time>2017-01-22T11:15:26Z</time>
      </trkpt>
      <trkpt lat="45.23948" lon="5.95154">
        <ele>1002.31</ele>
        <time>2017-01-22T11:15:30Z</time>
      </trkpt>
      <trkpt lat="45.23947" lon="5.95154">
        <ele>1005.2</ele>
        <time>2017-01-22T11:15:34Z</time>
      </trkpt>
      <trkpt lat="45.23946" lon="5.95156">
        <ele>1009.04</ele>
        <time>2017-01-22T11:15:39Z</time>
      </trkpt>
      <trkpt lat="45.23945" lon="5.95157">
        <ele>1011.93</ele>
        <time>2017-01-22T11:15:44Z</time>
      </trkpt>
      <trkpt lat="45.23943" lon="5.95157">
        <ele>1015.77</ele>
        <time>2017-01-22T11:15:51Z</time>
      </trkpt>
      <trkpt lat="45.23943" lon="5.95157">
        <ele>1015.77</ele>
        <time>2017-01-22T11:15:52Z</time>
      </trkpt>
      <trkpt lat="45.23946" lon="5.95154">
        <ele>1019.13</ele>
        <time>2017-01-22T11:16:03Z</time>
      </trkpt>
      <trkpt lat="45.23948" lon="5.9515">
        <ele>1022.02</ele>
        <time>2017-01-22T11:16:12Z</time>
      </trkpt>
      <trkpt lat="45.23951" lon="5.95146">
        <ele>1025.38</ele>
        <time>2017-01-22T11:16:22Z</time>
      </trkpt>
      <trkpt lat="45.23952" lon="5.95147">
        <ele>1028.27</ele>
        <time>2017-01-22T11:16:34Z</time>
      </trkpt>
      <trkpt lat="45.23947" lon="5.95149">
        <ele>1030.67</ele>
        <time>2017-01-22T11:17:09Z</time>
      </trkpt>
      <trkpt lat="45.23947" lon="5.95142">
        <ele>1031.15</ele>
        <time>2017-01-22T11:17:45Z</time>
      </trkpt>
      <trkpt lat="45.23951" lon="5.95136">
        <ele>1031.15</ele>
        <time>2017-01-22T11:18:25Z</time>
      </trkpt>
      <trkpt lat="45.23947" lon="5.95136">
        <ele>1031.15</ele>
        <time>2017-01-22T11:18:54Z</time>
      </trkpt>
      <trkpt lat="45.23948" lon="5.9514">
        <ele>1031.63</ele>
        <time>2017-01-22T11:19:21Z</time>
      </trkpt>
      <trkpt lat="45.23948" lon="5.95141">
        <ele>1031.63</ele>
        <time>2017-01-22T11:19:43Z</time>
      </trkpt>
      <trkpt lat="45.23941" lon="5.95154">
        <ele>1031.63</ele>
        <time>2017-01-22T11:20:10Z</time>
      </trkpt>
      <trkpt lat="45.23943" lon="5.95152">
        <ele>1031.63</ele>
        <time>2017-01-22T11:20:49Z</time>
      </trkpt>
      <trkpt lat="45.23942" lon="5.95156">
        <ele>1031.63</ele>
        <time>2017-01-22T11:21:23Z</time>
      </trkpt>
      <trkpt lat="45.23942" lon="5.95162">
        <ele>1031.63</ele>
        <time>2017-01-22T11:21:53Z</time>
      </trkpt>
      <trkpt lat="45.23944" lon="5.95155">
        <ele>1031.63</ele>
        <time>2017-01-22T11:22:26Z</time>
      </trkpt>
      <trkpt lat="45.23942" lon="5.9515">
        <ele>1031.15</ele>
        <time>2017-01-22T11:23:03Z</time>
      </trkpt>
      <trkpt lat="45.23943" lon="5.95151">
        <ele>1031.15</ele>
        <time>2017-01-22T11:23:37Z</time>
      </trkpt>
      <trkpt lat="45.23942" lon="5.95154">
        <ele>1029.71</ele>
        <time>2017-01-22T11:24:09Z</time>
      </trkpt>
      <trkpt lat="45.2394" lon="5.95157">
        <ele>1031.15</ele>
        <time>2017-01-22T11:24:14Z</time>
      </trkpt>
      <trkpt lat="45.2394" lon="5.95156">
        <ele>1026.34</ele>
        <time>2017-01-22T11:24:18Z</time>
      </trkpt>
      <trkpt lat="45.2394" lon="5.95156">
        <ele>1026.34</ele>
        <time>2017-01-22T11:24:19Z</time>
      </trkpt>
      <trkpt lat="45.23939" lon="5.9516">
        <ele>1026.34</ele>
        <time>2017-01-22T11:24:54Z</time>
      </trkpt>
      <trkpt lat="45.23941" lon="5.95156">
        <ele>1026.34</ele>
        <time>2017-01-22T11:25:28Z</time>
      </trkpt>
      <trkpt lat="45.23941" lon="5.95148">
        <ele>1026.34</ele>
        <time>2017-01-22T11:26:02Z</time>
      </trkpt>
      <trkpt lat="45.23943" lon="5.95146">
        <ele>1026.34</ele>
        <time>2017-01-22T11:26:33Z</time>
      </trkpt>
      <trkpt lat="45.23943" lon="5.95147">
        <ele>1026.34</ele>
        <time>2017-01-22T11:26:59Z</time>
      </trkpt>
      <trkpt lat="45.23948" lon="5.95149">
        <ele>1026.34</ele>
        <time>2017-01-22T11:27:35Z</time>
      </trkpt>
      <trkpt lat="45.23947" lon="5.95144">
        <ele>1026.34</ele>
        <time>2017-01-22T11:28:04Z</time>
      </trkpt>
      <trkpt lat="45.23944" lon="5.95146">
        <ele>1026.34</ele>
        <time>2017-01-22T11:28:28Z</time>
      </trkpt>
      <trkpt lat="45.23944" lon="5.95153">
        <ele>1026.34</ele>
        <time>2017-01-22T11:29:02Z</time>
      </trkpt>
      <trkpt lat="45.23942" lon="5.95154">
        <ele>1026.34</ele>
        <time>2017-01-22T11:29:30Z</time>
      </trkpt>
      <trkpt lat="45.23945" lon="5.95148">
        <ele>1026.34</ele>
        <time>2017-01-22T11:29:57Z</time>
      </trkpt>
      <trkpt lat="45.23948" lon="5.95146">
        <ele>1026.83</ele>
        <time>2017-01-22T11:30:27Z</time>
      </trkpt>
      <trkpt lat="45.23948" lon="5.95147">
        <ele>1026.83</ele>
        <time>2017-01-22T11:30:54Z</time>
      </trkpt>
      <trkpt lat="45.23947" lon="5.95147">
        <ele>1026.83</ele>
        <time>2017-01-22T11:31:38Z</time>
      </trkpt>
      <trkpt lat="45.23949" lon="5.95143">
        <ele>1026.83</ele>
        <time>2017-01-22T11:32:17Z</time>
      </trkpt>
      <trkpt lat="45.23945" lon="5.95143">
        <ele>1026.83</ele>
        <time>2017-01-22T11:32:43Z</time>
      </trkpt>
      <trkpt lat="45.23946" lon="5.95151">
        <ele>1026.83</ele>
        <time>2017-01-22T11:33:15Z</time>
      </trkpt>
      <trkpt lat="45.23945" lon="5.95147">
        <ele>1026.83</ele>
        <time>2017-01-22T11:33:25Z</time>
      </trkpt>
      <trkpt lat="45.23944" lon="5.95147">
        <ele>1026.83</ele>
        <time>2017-01-22T11:33:41Z</time>
      </trkpt>
      <trkpt lat="45.23943" lon="5.95144">
        <ele>1026.83</ele>
        <time>2017-01-22T11:34:01Z</time>
      </trkpt>
      <trkpt lat="45.23944" lon="5.95147">
        <ele>1026.83</ele>
        <time>2017-01-22T11:34:17Z</time>
      </trkpt>
      <trkpt lat="45.23942" lon="5.95157">
        <ele>1026.83</ele>
        <time>2017-01-22T11:34:34Z</time>
      </trkpt>
      <trkpt lat="45.23941" lon="5.95162">
        <ele>1026.83</ele>
        <time>2017-01-22T11:34:52Z</time>
      </trkpt>
      <trkpt lat="45.23942" lon="5.95167">
        <ele>1026.83</ele>
        <time>2017-01-22T11:35:07Z</time>
      </trkpt>
      <trkpt lat="45.23934" lon="5.95174">
        <ele>1026.34</ele>
        <time>2017-01-22T11:35:38Z</time>
      </trkpt>
      <trkpt lat="45.2394" lon="5.95157">
        <ele>1026.34</ele>
        <time>2017-01-22T11:36:00Z</time>
      </trkpt>
      <trkpt lat="45.23938" lon="5.95153">
        <ele>1026.34</ele>
        <time>2017-01-22T11:36:17Z</time>
      </trkpt>
      <trkpt lat="45.23928" lon="5.95164">
        <ele>1028.27</ele>
        <time>2017-01-22T11:36:31Z</time>
      </trkpt>
      <trkpt lat="45.2392" lon="5.95165">
        <ele>1028.75</ele>
        <time>2017-01-22T11:36:53Z</time>
      </trkpt>
      <trkpt lat="45.23915" lon="5.95162">
        <ele>1029.23</ele>
        <time>2017-01-22T11:37:16Z</time>
      </trkpt>
      <trkpt lat="45.23906" lon="5.95163">
        <ele>1029.23</ele>
        <time>2017-01-22T11:37:34Z</time>
      </trkpt>
      <trkpt lat="45.23896" lon="5.95159">
        <ele>1030.19</ele>
        <time>2017-01-22T11:37:49Z</time>
      </trkpt>
      <trkpt lat="45.23886" lon="5.95148">
        <ele>1030.67</ele>
        <time>2017-01-22T11:38:06Z</time>
      </trkpt>
      <trkpt lat="45.2388" lon="5.9514">
        <ele>1030.19</ele>
        <time>2017-01-22T11:38:23Z</time>
      </trkpt>
      <trkpt lat="45.23879" lon="5.95138">
        <ele>1030.19</ele>
        <time>2017-01-22T11:38:25Z</time>
      </trkpt>
      <trkpt lat="45.23863" lon="5.95119">
        <ele>1030.19</ele>
        <time>2017-01-22T11:38:42Z</time>
      </trkpt>
      <trkpt lat="45.23847" lon="5.9511">
        <ele>1030.67</ele>
        <time>2017-01-22T11:39:01Z</time>
      </trkpt>
      <trkpt lat="45.23834" lon="5.95104">
        <ele>1031.15</ele>
        <time>2017-01-22T11:39:12Z</time>
      </trkpt>
      <trkpt lat="45.23824" lon="5.95116">
        <ele>1032.11</ele>
        <time>2017-01-22T11:39:28Z</time>
      </trkpt>
      <trkpt lat="45.23816" lon="5.95139">
        <ele>1033.07</ele>
        <time>2017-01-22T11:39:43Z</time>
      </trkpt>
      <trkpt lat="45.23815" lon="5.95154">
        <ele>1034.52</ele>
        <time>2017-01-22T11:40:01Z</time>
      </trkpt>
      <trkpt lat="45.23814" lon="5.95179">
        <ele>1035.48</ele>
        <time>2017-01-22T11:40:18Z</time>
      </trkpt>
      <trkpt lat="45.23814" lon="5.95208">
        <ele>1036.92</ele>
        <time>2017-01-22T11:40:37Z</time>
      </trkpt>
      <trkpt lat="45.23799" lon="5.95219">
        <ele>1038.84</ele>
        <time>2017-01-22T11:40:56Z</time>
      </trkpt>
      <trkpt lat="45.23785" lon="5.95221">
        <ele>1041.25</ele>
        <time>2017-01-22T11:41:16Z</time>
      </trkpt>
      <trkpt lat="45.2377" lon="5.95222">
        <ele>1042.69</ele>
        <time>2017-01-22T11:41:34Z</time>
      </trkpt>
      <trkpt lat="45.23758" lon="5.95224">
        <ele>1044.13</ele>
        <time>2017-01-22T11:41:50Z</time>
      </trkpt>
      <trkpt lat="45.23744" lon="5.9523">
        <ele>1045.09</ele>
        <time>2017-01-22T11:42:08Z</time>
      </trkpt>
      <trkpt lat="45.23736" lon="5.95239">
        <ele>1046.05</ele>
        <time>2017-01-22T11:42:21Z</time>
      </trkpt>
      <trkpt lat="45.23727" lon="5.95251">
        <ele>1046.53</ele>
        <time>2017-01-22T11:42:35Z</time>
      </trkpt>
      <trkpt lat="45.23724" lon="5.95254">
        <ele>1047.01</ele>
        <time>2017-01-22T11:42:40Z</time>
      </trkpt>
      <trkpt lat="45.23712" lon="5.95272">
        <ele>1047.97</ele>
        <time>2017-01-22T11:42:55Z</time>
      </trkpt>
      <trkpt lat="45.23701" lon="5.95296">
        <ele>1049.42</ele>
        <time>2017-01-22T11:43:14Z</time>
      </trkpt>
      <trkpt lat="45.2369" lon="5.95318">
        <ele>1051.34</ele>
        <time>2017-01-22T11:43:32Z</time>
      </trkpt>
      <trkpt lat="45.23683" lon="5.95329">
        <ele>1052.3</ele>
        <time>2017-01-22T11:43:50Z</time>
      </trkpt>
      <trkpt lat="45.2367" lon="5.9535">
        <ele>1053.74</ele>
        <time>2017-01-22T11:44:10Z</time>
      </trkpt>
      <trkpt lat="45.23661" lon="5.95367">
        <ele>1054.7</ele>
        <time>2017-01-22T11:44:29Z</time>
      </trkpt>
      <trkpt lat="45.2364" lon="5.95388">
        <ele>1057.11</ele>
        <time>2017-01-22T11:44:49Z</time>
      </trkpt>
      <trkpt lat="45.23621" lon="5.95391">
        <ele>1059.03</ele>
        <time>2017-01-22T11:45:08Z</time>
      </trkpt>
      <trkpt lat="45.23608" lon="5.95385">
        <ele>1060.47</ele>
        <time>2017-01-22T11:45:24Z</time>
      </trkpt>
      <trkpt lat="45.23591" lon="5.95377">
        <ele>1062.39</ele>
        <time>2017-01-22T11:45:43Z</time>
      </trkpt>
      <trkpt lat="45.23589" lon="5.95394">
        <ele>1064.8</ele>
        <time>2017-01-22T11:46:04Z</time>
      </trkpt>
      <trkpt lat="45.23584" lon="5.95411">
        <ele>1066.24</ele>
        <time>2017-01-22T11:46:17Z</time>
      </trkpt>
      <trkpt lat="45.23585" lon="5.95431">
        <ele>1068.16</ele>
        <time>2017-01-22T11:46:35Z</time>
      </trkpt>
      <trkpt lat="45.23585" lon="5.95461">
        <ele>1069.6</ele>
        <time>2017-01-22T11:46:57Z</time>
      </trkpt>
      <trkpt lat="45.23585" lon="5.95477">
        <ele>1072.01</ele>
        <time>2017-01-22T11:47:16Z</time>
      </trkpt>
      <trkpt lat="45.23585" lon="5.95498">
        <ele>1074.41</ele>
        <time>2017-01-22T11:47:35Z</time>
      </trkpt>
      <trkpt lat="45.23582" lon="5.95516">
        <ele>1075.85</ele>
        <time>2017-01-22T11:47:54Z</time>
      </trkpt>
      <trkpt lat="45.23575" lon="5.95541">
        <ele>1077.29</ele>
        <time>2017-01-22T11:48:12Z</time>
      </trkpt>
      <trkpt lat="45.23566" lon="5.9556">
        <ele>1078.74</ele>
        <time>2017-01-22T11:48:31Z</time>
      </trkpt>
      <trkpt lat="45.23563" lon="5.95581">
        <ele>1080.66</ele>
        <time>2017-01-22T11:48:50Z</time>
      </trkpt>
      <trkpt lat="45.23563" lon="5.956">
        <ele>1082.58</ele>
        <time>2017-01-22T11:49:10Z</time>
      </trkpt>
      <trkpt lat="45.23563" lon="5.95625">
        <ele>1084.5</ele>
        <time>2017-01-22T11:49:27Z</time>
      </trkpt>
      <trkpt lat="45.23564" lon="5.95644">
        <ele>1086.43</ele>
        <time>2017-01-22T11:49:46Z</time>
      </trkpt>
      <trkpt lat="45.23563" lon="5.95673">
        <ele>1088.35</ele>
        <time>2017-01-22T11:50:06Z</time>
      </trkpt>
      <trkpt lat="45.2356" lon="5.95696">
        <ele>1090.27</ele>
        <time>2017-01-22T11:50:27Z</time>
      </trkpt>
      <trkpt lat="45.23558" lon="5.95717">
        <ele>1091.71</ele>
        <time>2017-01-22T11:50:44Z</time>
      </trkpt>
      <trkpt lat="45.23554" lon="5.95736">
        <ele>1093.16</ele>
        <time>2017-01-22T11:51:03Z</time>
      </trkpt>
      <trkpt lat="45.23543" lon="5.95758">
        <ele>1094.6</ele>
        <time>2017-01-22T11:51:19Z</time>
      </trkpt>
      <trkpt lat="45.23535" lon="5.95775">
        <ele>1095.56</ele>
        <time>2017-01-22T11:51:34Z</time>
      </trkpt>
      <trkpt lat="45.23528" lon="5.95794">
        <ele>1097</ele>
        <time>2017-01-22T11:51:53Z</time>
      </trkpt>
      <trkpt lat="45.23522" lon="5.95808">
        <ele>1098.44</ele>
        <time>2017-01-22T11:52:13Z</time>
      </trkpt>
      <trkpt lat="45.23516" lon="5.95822">
        <ele>1099.89</ele>
        <time>2017-01-22T11:52:29Z</time>
      </trkpt>
      <trkpt lat="45.23499" lon="5.95857">
        <ele>1101.33</ele>
        <time>2017-01-22T11:52:50Z</time>
      </trkpt>
      <trkpt lat="45.23496" lon="5.95872">
        <ele>1102.77</ele>
        <time>2017-01-22T11:53:09Z</time>
      </trkpt>
      <trkpt lat="45.23494" lon="5.95883">
        <ele>1103.73</ele>
        <time>2017-01-22T11:53:33Z</time>
      </trkpt>
      <trkpt lat="45.2349" lon="5.95897">
        <ele>1104.69</ele>
        <time>2017-01-22T11:53:52Z</time>
      </trkpt>
      <trkpt lat="45.23484" lon="5.95919">
        <ele>1106.13</ele>
        <time>2017-01-22T11:54:12Z</time>
      </trkpt>
      <trkpt lat="45.23479" lon="5.95944">
        <ele>1108.54</ele>
        <time>2017-01-22T11:54:32Z</time>
      </trkpt>
      <trkpt lat="45.23474" lon="5.95979">
        <ele>1110.46</ele>
        <time>2017-01-22T11:54:54Z</time>
      </trkpt>
      <trkpt lat="45.23471" lon="5.95995">
        <ele>1111.42</ele>
        <time>2017-01-22T11:55:11Z</time>
      </trkpt>
      <trkpt lat="45.23468" lon="5.96011">
        <ele>1112.86</ele>
        <time>2017-01-22T11:55:27Z</time>
      </trkpt>
      <trkpt lat="45.23465" lon="5.96034">
        <ele>1113.82</ele>
        <time>2017-01-22T11:55:48Z</time>
      </trkpt>
      <trkpt lat="45.23463" lon="5.96055">
        <ele>1115.27</ele>
        <time>2017-01-22T11:56:05Z</time>
      </trkpt>
      <trkpt lat="45.23461" lon="5.96081">
        <ele>1117.19</ele>
        <time>2017-01-22T11:56:26Z</time>
      </trkpt>
      <trkpt lat="45.23456" lon="5.96109">
        <ele>1119.11</ele>
        <time>2017-01-22T11:56:47Z</time>
      </trkpt>
      <trkpt lat="45.23453" lon="5.96128">
        <ele>1120.07</ele>
        <time>2017-01-22T11:57:06Z</time>
      </trkpt>
      <trkpt lat="45.23449" lon="5.96146">
        <ele>1122</ele>
        <time>2017-01-22T11:57:25Z</time>
      </trkpt>
      <trkpt lat="45.23446" lon="5.96167">
        <ele>1122.96</ele>
        <time>2017-01-22T11:57:38Z</time>
      </trkpt>
      <trkpt lat="45.23444" lon="5.96185">
        <ele>1123.92</ele>
        <time>2017-01-22T11:57:53Z</time>
      </trkpt>
      <trkpt lat="45.2344" lon="5.962">
        <ele>1125.36</ele>
        <time>2017-01-22T11:58:09Z</time>
      </trkpt>
      <trkpt lat="45.23434" lon="5.96206">
        <ele>1127.28</ele>
        <time>2017-01-22T11:58:32Z</time>
      </trkpt>
      <trkpt lat="45.23426" lon="5.96214">
        <ele>1130.65</ele>
        <time>2017-01-22T11:58:51Z</time>
      </trkpt>
      <trkpt lat="45.23416" lon="5.96224">
        <ele>1134.01</ele>
        <time>2017-01-22T11:59:10Z</time>
      </trkpt>
      <trkpt lat="45.23409" lon="5.96232">
        <ele>1136.9</ele>
        <time>2017-01-22T11:59:28Z</time>
      </trkpt>
      <trkpt lat="45.23396" lon="5.96247">
        <ele>1140.26</ele>
        <time>2017-01-22T11:59:48Z</time>
      </trkpt>
      <trkpt lat="45.23387" lon="5.96264">
        <ele>1143.63</ele>
        <time>2017-01-22T12:00:07Z</time>
      </trkpt>
      <trkpt lat="45.23383" lon="5.96271">
        <ele>1146.51</ele>
        <time>2017-01-22T12:00:26Z</time>
      </trkpt>
      <trkpt lat="45.23377" lon="5.96283">
        <ele>1147.95</ele>
        <time>2017-01-22T12:00:40Z</time>
      </trkpt>
      <trkpt lat="45.23374" lon="5.9629">
        <ele>1150.35</ele>
        <time>2017-01-22T12:01:04Z</time>
      </trkpt>
      <trkpt lat="45.23372" lon="5.96298">
        <ele>1152.76</ele>
        <time>2017-01-22T12:01:20Z</time>
      </trkpt>
      <trkpt lat="45.23369" lon="5.96307">
        <ele>1155.64</ele>
        <time>2017-01-22T12:01:38Z</time>
      </trkpt>
      <trkpt lat="45.23362" lon="5.96316">
        <ele>1159.01</ele>
        <time>2017-01-22T12:01:55Z</time>
      </trkpt>
      <trkpt lat="45.2336" lon="5.96326">
        <ele>1161.41</ele>
        <time>2017-01-22T12:02:17Z</time>
      </trkpt>
      <trkpt lat="45.23353" lon="5.96333">
        <ele>1164.29</ele>
        <time>2017-01-22T12:02:34Z</time>
      </trkpt>
      <trkpt lat="45.23342" lon="5.96343">
        <ele>1167.66</ele>
        <time>2017-01-22T12:02:53Z</time>
      </trkpt>
      <trkpt lat="45.23337" lon="5.96351">
        <ele>1170.54</ele>
        <time>2017-01-22T12:03:11Z</time>
      </trkpt>
      <trkpt lat="45.2333" lon="5.96361">
        <ele>1173.91</ele>
        <time>2017-01-22T12:03:33Z</time>
      </trkpt>
      <trkpt lat="45.23322" lon="5.96365">
        <ele>1176.79</ele>
        <time>2017-01-22T12:03:52Z</time>
      </trkpt>
      <trkpt lat="45.23316" lon="5.96371">
        <ele>1179.19</ele>
        <time>2017-01-22T12:04:08Z</time>
      </trkpt>
      <trkpt lat="45.2331" lon="5.96378">
        <ele>1181.12</ele>
        <time>2017-01-22T12:04:24Z</time>
      </trkpt>
      <trkpt lat="45.23306" lon="5.96378">
        <ele>1183.04</ele>
        <time>2017-01-22T12:04:42Z</time>
      </trkpt>
      <trkpt lat="45.23296" lon="5.9639">
        <ele>1185.92</ele>
        <time>2017-01-22T12:05:01Z</time>
      </trkpt>
      <trkpt lat="45.23297" lon="5.96395">
        <ele>1186.88</ele>
        <time>2017-01-22T12:05:25Z</time>
      </trkpt>
      <trkpt lat="45.23296" lon="5.96398">
        <ele>1186.88</ele>
        <time>2017-01-22T12:05:49Z</time>
      </trkpt>
      <trkpt lat="45.23294" lon="5.96391">
        <ele>1186.4</ele>
        <time>2017-01-22T12:06:15Z</time>
      </trkpt>
      <trkpt lat="45.23294" lon="5.96392">
        <ele>1186.88</ele>
        <time>2017-01-22T12:06:53Z</time>
      </trkpt>
      <trkpt lat="45.2329" lon="5.96403">
        <ele>1189.77</ele>
        <time>2017-01-22T12:07:10Z</time>
      </trkpt>
      <trkpt lat="45.23284" lon="5.96415">
        <ele>1192.17</ele>
        <time>2017-01-22T12:07:29Z</time>
      </trkpt>
      <trkpt lat="45.23275" lon="5.96427">
        <ele>1195.54</ele>
        <time>2017-01-22T12:07:47Z</time>
      </trkpt>
      <trkpt lat="45.23267" lon="5.96436">
        <ele>1198.42</ele>
        <time>2017-01-22T12:08:06Z</time>
      </trkpt>
      <trkpt lat="45.23262" lon="5.96441">
        <ele>1200.82</ele>
        <time>2017-01-22T12:08:23Z</time>
      </trkpt>
      <trkpt lat="45.23254" lon="5.96448">
        <ele>1203.71</ele>
        <time>2017-01-22T12:08:40Z</time>
      </trkpt>
      <trkpt lat="45.2325" lon="5.96455">
        <ele>1206.11</ele>
        <time>2017-01-22T12:08:57Z</time>
      </trkpt>
      <trkpt lat="45.23241" lon="5.96462">
        <ele>1209.48</ele>
        <time>2017-01-22T12:09:16Z</time>
      </trkpt>
      <trkpt lat="45.23232" lon="5.96469">
        <ele>1212.84</ele>
        <time>2017-01-22T12:09:33Z</time>
      </trkpt>
      <trkpt lat="45.23225" lon="5.96475">
        <ele>1215.72</ele>
        <time>2017-01-22T12:09:51Z</time>
      </trkpt>
      <trkpt lat="45.23216" lon="5.96484">
        <ele>1218.61</ele>
        <time>2017-01-22T12:10:09Z</time>
      </trkpt>
      <trkpt lat="45.23214" lon="5.9649">
        <ele>1221.01</ele>
        <time>2017-01-22T12:10:26Z</time>
      </trkpt>
      <trkpt lat="45.23211" lon="5.96502">
        <ele>1224.38</ele>
        <time>2017-01-22T12:10:45Z</time>
      </trkpt>
      <trkpt lat="45.23205" lon="5.96515">
        <ele>1226.3</ele>
        <time>2017-01-22T12:11:04Z</time>
      </trkpt>
      <trkpt lat="45.23203" lon="5.96525">
        <ele>1227.74</ele>
        <time>2017-01-22T12:11:18Z</time>
      </trkpt>
      <trkpt lat="45.232" lon="5.96534">
        <ele>1229.18</ele>
        <time>2017-01-22T12:11:32Z</time>
      </trkpt>
      <trkpt lat="45.23194" lon="5.96547">
        <ele>1231.59</ele>
        <time>2017-01-22T12:11:48Z</time>
      </trkpt>
      <trkpt lat="45.23188" lon="5.96559">
        <ele>1233.03</ele>
        <time>2017-01-22T12:12:05Z</time>
      </trkpt>
      <trkpt lat="45.23185" lon="5.96561">
        <ele>1234.47</ele>
        <time>2017-01-22T12:12:20Z</time>
      </trkpt>
      <trkpt lat="45.23181" lon="5.96565">
        <ele>1235.91</ele>
        <time>2017-01-22T12:12:33Z</time>
      </trkpt>
      <trkpt lat="45.23179" lon="5.96576">
        <ele>1238.8</ele>
        <time>2017-01-22T12:12:51Z</time>
      </trkpt>
      <trkpt lat="45.23173" lon="5.96583">
        <ele>1242.16</ele>
        <time>2017-01-22T12:13:12Z</time>
      </trkpt>
      <trkpt lat="45.23167" lon="5.96589">
        <ele>1244.08</ele>
        <time>2017-01-22T12:13:28Z</time>
      </trkpt>
      <trkpt lat="45.23163" lon="5.96604">
        <ele>1247.45</ele>
        <time>2017-01-22T12:13:49Z</time>
      </trkpt>
      <trkpt lat="45.23153" lon="5.96619">
        <ele>1249.85</ele>
        <time>2017-01-22T12:14:10Z</time>
      </trkpt>
      <trkpt lat="45.23148" lon="5.96625">
        <ele>1252.74</ele>
        <time>2017-01-22T12:14:27Z</time>
      </trkpt>
      <trkpt lat="45.23144" lon="5.96636">
        <ele>1255.14</ele>
        <time>2017-01-22T12:14:49Z</time>
      </trkpt>
      <trkpt lat="45.23141" lon="5.96647">
        <ele>1256.58</ele>
        <time>2017-01-22T12:15:04Z</time>
      </trkpt>
      <trkpt lat="45.23133" lon="5.96656">
        <ele>1259.46</ele>
        <time>2017-01-22T12:15:21Z</time>
      </trkpt>
      <trkpt lat="45.23125" lon="5.96668">
        <ele>1262.35</ele>
        <time>2017-01-22T12:15:43Z</time>
      </trkpt>
      <trkpt lat="45.23117" lon="5.96674">
        <ele>1265.71</ele>
        <time>2017-01-22T12:16:03Z</time>
      </trkpt>
      <trkpt lat="45.23107" lon="5.96677">
        <ele>1268.12</ele>
        <time>2017-01-22T12:16:19Z</time>
      </trkpt>
      <trkpt lat="45.23101" lon="5.9668">
        <ele>1271</ele>
        <time>2017-01-22T12:16:38Z</time>
      </trkpt>
      <trkpt lat="45.23093" lon="5.9669">
        <ele>1273.88</ele>
        <time>2017-01-22T12:16:56Z</time>
      </trkpt>
      <trkpt lat="45.23085" lon="5.96698">
        <ele>1276.77</ele>
        <time>2017-01-22T12:17:15Z</time>
      </trkpt>
      <trkpt lat="45.23073" lon="5.96707">
        <ele>1280.13</ele>
        <time>2017-01-22T12:17:35Z</time>
      </trkpt>
      <trkpt lat="45.23066" lon="5.96713">
        <ele>1281.57</ele>
        <time>2017-01-22T12:17:46Z</time>
      </trkpt>
      <trkpt lat="45.23058" lon="5.96717">
        <ele>1284.46</ele>
        <time>2017-01-22T12:18:03Z</time>
      </trkpt>
      <trkpt lat="45.23052" lon="5.9672">
        <ele>1286.86</ele>
        <time>2017-01-22T12:18:20Z</time>
      </trkpt>
      <trkpt lat="45.23043" lon="5.96728">
        <ele>1288.78</ele>
        <time>2017-01-22T12:18:36Z</time>
      </trkpt>
      <trkpt lat="45.23036" lon="5.96726">
        <ele>1291.19</ele>
        <time>2017-01-22T12:18:52Z</time>
      </trkpt>
      <trkpt lat="45.23028" lon="5.96733">
        <ele>1292.63</ele>
        <time>2017-01-22T12:19:09Z</time>
      </trkpt>
      <trkpt lat="45.23017" lon="5.96743">
        <ele>1295.03</ele>
        <time>2017-01-22T12:19:30Z</time>
      </trkpt>
      <trkpt lat="45.23008" lon="5.96747">
        <ele>1296.48</ele>
        <time>2017-01-22T12:19:47Z</time>
      </trkpt>
      <trkpt lat="45.23001" lon="5.96753">
        <ele>1298.4</ele>
        <time>2017-01-22T12:20:05Z</time>
      </trkpt>
      <trkpt lat="45.22992" lon="5.96759">
        <ele>1300.32</ele>
        <time>2017-01-22T12:20:21Z</time>
      </trkpt>
      <trkpt lat="45.22984" lon="5.96767">
        <ele>1301.76</ele>
        <time>2017-01-22T12:20:34Z</time>
      </trkpt>
      <trkpt lat="45.22979" lon="5.96772">
        <ele>1303.2</ele>
        <time>2017-01-22T12:20:48Z</time>
      </trkpt>
      <trkpt lat="45.22968" lon="5.9678">
        <ele>1305.61</ele>
        <time>2017-01-22T12:21:06Z</time>
      </trkpt>
      <trkpt lat="45.22962" lon="5.96782">
        <ele>1306.57</ele>
        <time>2017-01-22T12:21:19Z</time>
      </trkpt>
      <trkpt lat="45.22953" lon="5.96788">
        <ele>1308.97</ele>
        <time>2017-01-22T12:21:36Z</time>
      </trkpt>
      <trkpt lat="45.22944" lon="5.9679">
        <ele>1311.38</ele>
        <time>2017-01-22T12:21:52Z</time>
      </trkpt>
      <trkpt lat="45.22938" lon="5.9679">
        <ele>1312.34</ele>
        <time>2017-01-22T12:22:10Z</time>
      </trkpt>
      <trkpt lat="45.22929" lon="5.96789">
        <ele>1314.26</ele>
        <time>2017-01-22T12:22:28Z</time>
      </trkpt>
      <trkpt lat="45.22921" lon="5.96786">
        <ele>1317.14</ele>
        <time>2017-01-22T12:22:47Z</time>
      </trkpt>
      <trkpt lat="45.22914" lon="5.96787">
        <ele>1320.03</ele>
        <time>2017-01-22T12:23:05Z</time>
      </trkpt>
      <trkpt lat="45.22905" lon="5.96789">
        <ele>1322.43</ele>
        <time>2017-01-22T12:23:24Z</time>
      </trkpt>
      <trkpt lat="45.22899" lon="5.96788">
        <ele>1324.83</ele>
        <time>2017-01-22T12:23:41Z</time>
      </trkpt>
      <trkpt lat="45.22892" lon="5.96788">
        <ele>1327.24</ele>
        <time>2017-01-22T12:23:58Z</time>
      </trkpt>
      <trkpt lat="45.22885" lon="5.96788">
        <ele>1329.64</ele>
        <time>2017-01-22T12:24:16Z</time>
      </trkpt>
      <trkpt lat="45.22875" lon="5.96787">
        <ele>1332.52</ele>
        <time>2017-01-22T12:24:33Z</time>
      </trkpt>
      <trkpt lat="45.22868" lon="5.9679">
        <ele>1334.45</ele>
        <time>2017-01-22T12:24:49Z</time>
      </trkpt>
      <trkpt lat="45.22861" lon="5.96795">
        <ele>1336.37</ele>
        <time>2017-01-22T12:25:07Z</time>
      </trkpt>
      <trkpt lat="45.22856" lon="5.96794">
        <ele>1338.77</ele>
        <time>2017-01-22T12:25:25Z</time>
      </trkpt>
      <trkpt lat="45.22849" lon="5.96797">
        <ele>1340.7</ele>
        <time>2017-01-22T12:25:44Z</time>
      </trkpt>
      <trkpt lat="45.22841" lon="5.96798">
        <ele>1343.1</ele>
        <time>2017-01-22T12:26:00Z</time>
      </trkpt>
      <trkpt lat="45.22839" lon="5.96799">
        <ele>1344.06</ele>
        <time>2017-01-22T12:26:06Z</time>
      </trkpt>
      <trkpt lat="45.22832" lon="5.96798">
        <ele>1345.98</ele>
        <time>2017-01-22T12:26:22Z</time>
      </trkpt>
      <trkpt lat="45.22824" lon="5.96795">
        <ele>1348.87</ele>
        <time>2017-01-22T12:26:40Z</time>
      </trkpt>
      <trkpt lat="45.22816" lon="5.96797">
        <ele>1350.79</ele>
        <time>2017-01-22T12:26:56Z</time>
      </trkpt>
      <trkpt lat="45.22808" lon="5.96796">
        <ele>1352.71</ele>
        <time>2017-01-22T12:27:12Z</time>
      </trkpt>
      <trkpt lat="45.22799" lon="5.96797">
        <ele>1355.12</ele>
        <time>2017-01-22T12:27:29Z</time>
      </trkpt>
      <trkpt lat="45.22788" lon="5.96801">
        <ele>1356.56</ele>
        <time>2017-01-22T12:27:44Z</time>
      </trkpt>
      <trkpt lat="45.22777" lon="5.96804">
        <ele>1358</ele>
        <time>2017-01-22T12:28:01Z</time>
      </trkpt>
      <trkpt lat="45.22771" lon="5.96801">
        <ele>1358.48</ele>
        <time>2017-01-22T12:28:21Z</time>
      </trkpt>
      <trkpt lat="45.2277" lon="5.96796">
        <ele>1357.52</ele>
        <time>2017-01-22T12:28:50Z</time>
      </trkpt>
      <trkpt lat="45.22772" lon="5.96798">
        <ele>1357.52</ele>
        <time>2017-01-22T12:29:11Z</time>
      </trkpt>
      <trkpt lat="45.2277" lon="5.96799">
        <ele>1357.52</ele>
        <time>2017-01-22T12:29:33Z</time>
      </trkpt>
      <trkpt lat="45.22776" lon="5.96801">
        <ele>1358.96</ele>
        <time>2017-01-22T12:30:03Z</time>
      </trkpt>
      <trkpt lat="45.22773" lon="5.96802">
        <ele>1359.44</ele>
        <time>2017-01-22T12:30:32Z</time>
      </trkpt>
      <trkpt lat="45.22772" lon="5.96802">
        <ele>1358.96</ele>
        <time>2017-01-22T12:31:07Z</time>
      </trkpt>
      <trkpt lat="45.22771" lon="5.96803">
        <ele>1358.96</ele>
        <time>2017-01-22T12:31:32Z</time>
      </trkpt>
      <trkpt lat="45.2277" lon="5.96788">
        <ele>1359.44</ele>
        <time>2017-01-22T12:32:00Z</time>
      </trkpt>
      <trkpt lat="45.22775" lon="5.96796">
        <ele>1359.44</ele>
        <time>2017-01-22T12:32:28Z</time>
      </trkpt>
      <trkpt lat="45.22779" lon="5.9679">
        <ele>1359.44</ele>
        <time>2017-01-22T12:32:58Z</time>
      </trkpt>
      <trkpt lat="45.2277" lon="5.96806">
        <ele>1359.44</ele>
        <time>2017-01-22T12:33:23Z</time>
      </trkpt>
      <trkpt lat="45.22768" lon="5.96805">
        <ele>1359.44</ele>
        <time>2017-01-22T12:33:55Z</time>
      </trkpt>
      <trkpt lat="45.22766" lon="5.96799">
        <ele>1359.92</ele>
        <time>2017-01-22T12:34:24Z</time>
      </trkpt>
      <trkpt lat="45.22772" lon="5.96799">
        <ele>1359.92</ele>
        <time>2017-01-22T12:34:43Z</time>
      </trkpt>
      <trkpt lat="45.22776" lon="5.96805">
        <ele>1359.92</ele>
        <time>2017-01-22T12:35:13Z</time>
      </trkpt>
      <trkpt lat="45.22773" lon="5.96804">
        <ele>1358.96</ele>
        <time>2017-01-22T12:35:30Z</time>
      </trkpt>
      <trkpt lat="45.22767" lon="5.96798">
        <ele>1358.96</ele>
        <time>2017-01-22T12:35:51Z</time>
      </trkpt>
      <trkpt lat="45.22757" lon="5.96791">
        <ele>1359.92</ele>
        <time>2017-01-22T12:36:09Z</time>
      </trkpt>
      <trkpt lat="45.22758" lon="5.9679">
        <ele>1359.92</ele>
        <time>2017-01-22T12:36:10Z</time>
      </trkpt>
      <trkpt lat="45.22749" lon="5.96783">
        <ele>1361.84</ele>
        <time>2017-01-22T12:36:30Z</time>
      </trkpt>
      <trkpt lat="45.22737" lon="5.96778">
        <ele>1363.77</ele>
        <time>2017-01-22T12:36:52Z</time>
      </trkpt>
      <trkpt lat="45.22724" lon="5.96774">
        <ele>1366.17</ele>
        <time>2017-01-22T12:37:10Z</time>
      </trkpt>
      <trkpt lat="45.22719" lon="5.96766">
        <ele>1367.61</ele>
        <time>2017-01-22T12:37:26Z</time>
      </trkpt>
      <trkpt lat="45.2271" lon="5.96758">
        <ele>1369.54</ele>
        <time>2017-01-22T12:37:42Z</time>
      </trkpt>
      <trkpt lat="45.22703" lon="5.96747">
        <ele>1371.94</ele>
        <time>2017-01-22T12:38:00Z</time>
      </trkpt>
      <trkpt lat="45.22693" lon="5.96742">
        <ele>1375.3</ele>
        <time>2017-01-22T12:38:19Z</time>
      </trkpt>
      <trkpt lat="45.22686" lon="5.96724">
        <ele>1377.23</ele>
        <time>2017-01-22T12:38:36Z</time>
      </trkpt>
      <trkpt lat="45.2268" lon="5.96709">
        <ele>1380.11</ele>
        <time>2017-01-22T12:38:56Z</time>
      </trkpt>
      <trkpt lat="45.2268" lon="5.96698">
        <ele>1382.51</ele>
        <time>2017-01-22T12:39:11Z</time>
      </trkpt>
      <trkpt lat="45.2268" lon="5.96686">
        <ele>1385.88</ele>
        <time>2017-01-22T12:39:31Z</time>
      </trkpt>
      <trkpt lat="45.22679" lon="5.96671">
        <ele>1389.24</ele>
        <time>2017-01-22T12:39:52Z</time>
      </trkpt>
      <trkpt lat="45.22678" lon="5.96663">
        <ele>1391.65</ele>
        <time>2017-01-22T12:40:10Z</time>
      </trkpt>
      <trkpt lat="45.2268" lon="5.96654">
        <ele>1394.53</ele>
        <time>2017-01-22T12:40:25Z</time>
      </trkpt>
      <trkpt lat="45.22684" lon="5.96645">
        <ele>1396.45</ele>
        <time>2017-01-22T12:40:39Z</time>
      </trkpt>
      <trkpt lat="45.22687" lon="5.9663">
        <ele>1398.86</ele>
        <time>2017-01-22T12:40:57Z</time>
      </trkpt>
      <trkpt lat="45.22687" lon="5.96619">
        <ele>1401.26</ele>
        <time>2017-01-22T12:41:14Z</time>
      </trkpt>
      <trkpt lat="45.22695" lon="5.96615">
        <ele>1403.66</ele>
        <time>2017-01-22T12:41:33Z</time>
      </trkpt>
      <trkpt lat="45.2271" lon="5.96609">
        <ele>1406.07</ele>
        <time>2017-01-22T12:41:51Z</time>
      </trkpt>
      <trkpt lat="45.22724" lon="5.96603">
        <ele>1408.47</ele>
        <time>2017-01-22T12:42:10Z</time>
      </trkpt>
      <trkpt lat="45.2273" lon="5.96596">
        <ele>1410.87</ele>
        <time>2017-01-22T12:42:26Z</time>
      </trkpt>
      <trkpt lat="45.2274" lon="5.96588">
        <ele>1413.76</ele>
        <time>2017-01-22T12:42:48Z</time>
      </trkpt>
      <trkpt lat="45.22749" lon="5.96584">
        <ele>1416.16</ele>
        <time>2017-01-22T12:43:07Z</time>
      </trkpt>
      <trkpt lat="45.22757" lon="5.96574">
        <ele>1417.12</ele>
        <time>2017-01-22T12:43:29Z</time>
      </trkpt>
      <trkpt lat="45.22754" lon="5.9656">
        <ele>1418.56</ele>
        <time>2017-01-22T12:43:44Z</time>
      </trkpt>
      <trkpt lat="45.22753" lon="5.96547">
        <ele>1418.56</ele>
        <time>2017-01-22T12:44:01Z</time>
      </trkpt>
      <trkpt lat="45.22755" lon="5.96542">
        <ele>1417.6</ele>
        <time>2017-01-22T12:44:17Z</time>
      </trkpt>
      <trkpt lat="45.22757" lon="5.96536">
        <ele>1417.12</ele>
        <time>2017-01-22T12:44:39Z</time>
      </trkpt>
      <trkpt lat="45.22757" lon="5.96527">
        <ele>1416.64</ele>
        <time>2017-01-22T12:44:51Z</time>
      </trkpt>
      <trkpt lat="45.2276" lon="5.96508">
        <ele>1415.2</ele>
        <time>2017-01-22T12:45:07Z</time>
      </trkpt>
      <trkpt lat="45.22749" lon="5.96484">
        <ele>1414.72</ele>
        <time>2017-01-22T12:45:27Z</time>
      </trkpt>
      <trkpt lat="45.22738" lon="5.96475">
        <ele>1416.16</ele>
        <time>2017-01-22T12:45:41Z</time>
      </trkpt>
      <trkpt lat="45.22728" lon="5.96457">
        <ele>1418.56</ele>
        <time>2017-01-22T12:46:03Z</time>
      </trkpt>
      <trkpt lat="45.22722" lon="5.96442">
        <ele>1420</ele>
        <time>2017-01-22T12:46:20Z</time>
      </trkpt>
      <trkpt lat="45.22715" lon="5.9643">
        <ele>1422.41</ele>
        <time>2017-01-22T12:46:40Z</time>
      </trkpt>
      <trkpt lat="45.22707" lon="5.96423">
        <ele>1424.33</ele>
        <time>2017-01-22T12:46:58Z</time>
      </trkpt>
      <trkpt lat="45.22701" lon="5.9642">
        <ele>1427.21</ele>
        <time>2017-01-22T12:47:15Z</time>
      </trkpt>
      <trkpt lat="45.22692" lon="5.96417">
        <ele>1429.62</ele>
        <time>2017-01-22T12:47:34Z</time>
      </trkpt>
      <trkpt lat="45.2268" lon="5.96407">
        <ele>1432.02</ele>
        <time>2017-01-22T12:47:54Z</time>
      </trkpt>
      <trkpt lat="45.2267" lon="5.96399">
        <ele>1434.42</ele>
        <time>2017-01-22T12:48:13Z</time>
      </trkpt>
      <trkpt lat="45.22664" lon="5.9639">
        <ele>1436.35</ele>
        <time>2017-01-22T12:48:31Z</time>
      </trkpt>
      <trkpt lat="45.22663" lon="5.96383">
        <ele>1437.31</ele>
        <time>2017-01-22T12:48:54Z</time>
      </trkpt>
      <trkpt lat="45.22659" lon="5.96379">
        <ele>1437.31</ele>
        <time>2017-01-22T12:49:24Z</time>
      </trkpt>
      <trkpt lat="45.22661" lon="5.96379">
        <ele>1437.79</ele>
        <time>2017-01-22T12:49:54Z</time>
      </trkpt>
      <trkpt lat="45.22666" lon="5.9638">
        <ele>1436.83</ele>
        <time>2017-01-22T12:50:31Z</time>
      </trkpt>
      <trkpt lat="45.22662" lon="5.9638">
        <ele>1436.83</ele>
        <time>2017-01-22T12:50:50Z</time>
      </trkpt>
      <trkpt lat="45.22659" lon="5.96379">
        <ele>1436.35</ele>
        <time>2017-01-22T12:51:08Z</time>
      </trkpt>
      <trkpt lat="45.22661" lon="5.96381">
        <ele>1436.35</ele>
        <time>2017-01-22T12:51:39Z</time>
      </trkpt>
      <trkpt lat="45.22658" lon="5.9638">
        <ele>1436.35</ele>
        <time>2017-01-22T12:51:56Z</time>
      </trkpt>
      <trkpt lat="45.22659" lon="5.96382">
        <ele>1436.35</ele>
        <time>2017-01-22T12:52:21Z</time>
      </trkpt>
      <trkpt lat="45.22659" lon="5.96382">
        <ele>1436.35</ele>
        <time>2017-01-22T12:52:40Z</time>
      </trkpt>
      <trkpt lat="45.22664" lon="5.96382">
        <ele>1436.83</ele>
        <time>2017-01-22T12:53:02Z</time>
      </trkpt>
      <trkpt lat="45.22671" lon="5.96386">
        <ele>1436.83</ele>
        <time>2017-01-22T12:53:34Z</time>
      </trkpt>
      <trkpt lat="45.22672" lon="5.96389">
        <ele>1436.83</ele>
        <time>2017-01-22T12:54:08Z</time>
      </trkpt>
      <trkpt lat="45.22665" lon="5.9638">
        <ele>1437.31</ele>
        <time>2017-01-22T12:54:39Z</time>
      </trkpt>
      <trkpt lat="45.22658" lon="5.96386">
        <ele>1437.31</ele>
        <time>2017-01-22T12:54:46Z</time>
      </trkpt>
      <trkpt lat="45.22641" lon="5.96394">
        <ele>1435.87</ele>
        <time>2017-01-22T12:55:01Z</time>
      </trkpt>
      <trkpt lat="45.22622" lon="5.96402">
        <ele>1433.94</ele>
        <time>2017-01-22T12:55:17Z</time>
      </trkpt>
      <trkpt lat="45.2261" lon="5.96414">
        <ele>1433.94</ele>
        <time>2017-01-22T12:55:34Z</time>
      </trkpt>
      <trkpt lat="45.22602" lon="5.96429">
        <ele>1434.91</ele>
        <time>2017-01-22T12:55:50Z</time>
      </trkpt>
      <trkpt lat="45.22593" lon="5.96452">
        <ele>1434.42</ele>
        <time>2017-01-22T12:56:05Z</time>
      </trkpt>
      <trkpt lat="45.2259" lon="5.96467">
        <ele>1432.98</ele>
        <time>2017-01-22T12:56:14Z</time>
      </trkpt>
      <trkpt lat="45.22583" lon="5.96491">
        <ele>1432.98</ele>
        <time>2017-01-22T12:56:27Z</time>
      </trkpt>
      <trkpt lat="45.22583" lon="5.96514">
        <ele>1432.5</ele>
        <time>2017-01-22T12:56:46Z</time>
      </trkpt>
      <trkpt lat="45.22581" lon="5.96542">
        <ele>1432.5</ele>
        <time>2017-01-22T12:57:04Z</time>
      </trkpt>
      <trkpt lat="45.2258" lon="5.96553">
        <ele>1433.94</ele>
        <time>2017-01-22T12:57:20Z</time>
      </trkpt>
      <trkpt lat="45.22574" lon="5.96566">
        <ele>1435.87</ele>
        <time>2017-01-22T12:57:37Z</time>
      </trkpt>
      <trkpt lat="45.2256" lon="5.96595">
        <ele>1437.79</ele>
        <time>2017-01-22T12:57:58Z</time>
      </trkpt>
      <trkpt lat="45.22561" lon="5.96606">
        <ele>1439.71</ele>
        <time>2017-01-22T12:58:15Z</time>
      </trkpt>
      <trkpt lat="45.22564" lon="5.96615">
        <ele>1441.63</ele>
        <time>2017-01-22T12:58:29Z</time>
      </trkpt>
      <trkpt lat="45.22562" lon="5.96629">
        <ele>1442.6</ele>
        <time>2017-01-22T12:58:46Z</time>
      </trkpt>
      <trkpt lat="45.22552" lon="5.96645">
        <ele>1442.11</ele>
        <time>2017-01-22T12:59:04Z</time>
      </trkpt>
      <trkpt lat="45.22544" lon="5.96657">
        <ele>1442.6</ele>
        <time>2017-01-22T12:59:19Z</time>
      </trkpt>
      <trkpt lat="45.22531" lon="5.96678">
        <ele>1442.6</ele>
        <time>2017-01-22T12:59:40Z</time>
      </trkpt>
      <trkpt lat="45.22526" lon="5.96688">
        <ele>1443.08</ele>
        <time>2017-01-22T12:59:54Z</time>
      </trkpt>
      <trkpt lat="45.22515" lon="5.96703">
        <ele>1443.56</ele>
        <time>2017-01-22T13:00:12Z</time>
      </trkpt>
      <trkpt lat="45.22505" lon="5.96718">
        <ele>1444.04</ele>
        <time>2017-01-22T13:00:28Z</time>
      </trkpt>
      <trkpt lat="45.22496" lon="5.96732">
        <ele>1444.04</ele>
        <time>2017-01-22T13:00:44Z</time>
      </trkpt>
      <trkpt lat="45.22485" lon="5.96742">
        <ele>1444.04</ele>
        <time>2017-01-22T13:01:01Z</time>
      </trkpt>
      <trkpt lat="45.22474" lon="5.96763">
        <ele>1444.04</ele>
        <time>2017-01-22T13:01:18Z</time>
      </trkpt>
      <trkpt lat="45.22472" lon="5.96768">
        <ele>1444.04</ele>
        <time>2017-01-22T13:01:22Z</time>
      </trkpt>
      <trkpt lat="45.22464" lon="5.96791">
        <ele>1444.04</ele>
        <time>2017-01-22T13:01:39Z</time>
      </trkpt>
      <trkpt lat="45.22462" lon="5.96799">
        <ele>1444.52</ele>
        <time>2017-01-22T13:01:56Z</time>
      </trkpt>
      <trkpt lat="45.22461" lon="5.96809">
        <ele>1445</ele>
        <time>2017-01-22T13:02:13Z</time>
      </trkpt>
      <trkpt lat="45.22461" lon="5.96827">
        <ele>1445</ele>
        <time>2017-01-22T13:02:32Z</time>
      </trkpt>
      <trkpt lat="45.2246" lon="5.96841">
        <ele>1445</ele>
        <time>2017-01-22T13:02:49Z</time>
      </trkpt>
      <trkpt lat="45.22458" lon="5.96849">
        <ele>1445</ele>
        <time>2017-01-22T13:02:59Z</time>
      </trkpt>
      <trkpt lat="45.22449" lon="5.9687">
        <ele>1444.52</ele>
        <time>2017-01-22T13:03:15Z</time>
      </trkpt>
      <trkpt lat="45.22439" lon="5.96886">
        <ele>1443.08</ele>
        <time>2017-01-22T13:03:32Z</time>
      </trkpt>
      <trkpt lat="45.22429" lon="5.96899">
        <ele>1442.6</ele>
        <time>2017-01-22T13:03:49Z</time>
      </trkpt>
      <trkpt lat="45.22425" lon="5.96903">
        <ele>1442.6</ele>
        <time>2017-01-22T13:03:53Z</time>
      </trkpt>
      <trkpt lat="45.22413" lon="5.96918">
        <ele>1441.63</ele>
        <time>2017-01-22T13:04:09Z</time>
      </trkpt>
      <trkpt lat="45.22401" lon="5.9693">
        <ele>1441.15</ele>
        <time>2017-01-22T13:04:25Z</time>
      </trkpt>
      <trkpt lat="45.22388" lon="5.96945">
        <ele>1440.19</ele>
        <time>2017-01-22T13:04:41Z</time>
      </trkpt>
      <trkpt lat="45.22377" lon="5.96955">
        <ele>1440.19</ele>
        <time>2017-01-22T13:04:56Z</time>
      </trkpt>
      <trkpt lat="45.22365" lon="5.96967">
        <ele>1439.23</ele>
        <time>2017-01-22T13:05:14Z</time>
      </trkpt>
      <trkpt lat="45.2236" lon="5.96975">
        <ele>1440.67</ele>
        <time>2017-01-22T13:05:29Z</time>
      </trkpt>
      <trkpt lat="45.22353" lon="5.96996">
        <ele>1440.67</ele>
        <time>2017-01-22T13:05:46Z</time>
      </trkpt>
      <trkpt lat="45.22343" lon="5.97015">
        <ele>1441.63</ele>
        <time>2017-01-22T13:06:05Z</time>
      </trkpt>
      <trkpt lat="45.22333" lon="5.97032">
        <ele>1442.6</ele>
        <time>2017-01-22T13:06:25Z</time>
      </trkpt>
      <trkpt lat="45.22328" lon="5.97039">
        <ele>1444.04</ele>
        <time>2017-01-22T13:06:40Z</time>
      </trkpt>
      <trkpt lat="45.22315" lon="5.97049">
        <ele>1445.96</ele>
        <time>2017-01-22T13:07:00Z</time>
      </trkpt>
      <trkpt lat="45.22308" lon="5.97064">
        <ele>1447.4</ele>
        <time>2017-01-22T13:07:17Z</time>
      </trkpt>
      <trkpt lat="45.22307" lon="5.97075">
        <ele>1448.36</ele>
        <time>2017-01-22T13:07:38Z</time>
      </trkpt>
      <trkpt lat="45.22312" lon="5.97074">
        <ele>1446.92</ele>
        <time>2017-01-22T13:07:47Z</time>
      </trkpt>
      <trkpt lat="45.22311" lon="5.97072">
        <ele>1446.92</ele>
        <time>2017-01-22T13:08:18Z</time>
      </trkpt>
      <trkpt lat="45.22299" lon="5.97082">
        <ele>1448.36</ele>
        <time>2017-01-22T13:08:36Z</time>
      </trkpt>
      <trkpt lat="45.2228" lon="5.97096">
        <ele>1446.92</ele>
        <time>2017-01-22T13:08:55Z</time>
      </trkpt>
      <trkpt lat="45.22271" lon="5.97104">
        <ele>1446.44</ele>
        <time>2017-01-22T13:09:04Z</time>
      </trkpt>
      <trkpt lat="45.22261" lon="5.97107">
        <ele>1445.48</ele>
        <time>2017-01-22T13:09:14Z</time>
      </trkpt>
      <trkpt lat="45.22244" lon="5.97117">
        <ele>1445</ele>
        <time>2017-01-22T13:09:30Z</time>
      </trkpt>
      <trkpt lat="45.2223" lon="5.9713">
        <ele>1446.92</ele>
        <time>2017-01-22T13:09:47Z</time>
      </trkpt>
      <trkpt lat="45.22219" lon="5.97139">
        <ele>1446.92</ele>
        <time>2017-01-22T13:10:00Z</time>
      </trkpt>
      <trkpt lat="45.22205" lon="5.97149">
        <ele>1445.48</ele>
        <time>2017-01-22T13:10:17Z</time>
      </trkpt>
      <trkpt lat="45.22199" lon="5.97153">
        <ele>1445.48</ele>
        <time>2017-01-22T13:10:23Z</time>
      </trkpt>
      <trkpt lat="45.22181" lon="5.97166">
        <ele>1444.04</ele>
        <time>2017-01-22T13:10:36Z</time>
      </trkpt>
      <trkpt lat="45.22173" lon="5.97175">
        <ele>1443.56</ele>
        <time>2017-01-22T13:10:56Z</time>
      </trkpt>
      <trkpt lat="45.22168" lon="5.97181">
        <ele>1443.08</ele>
        <time>2017-01-22T13:11:07Z</time>
      </trkpt>
      <trkpt lat="45.22164" lon="5.97204">
        <ele>1442.11</ele>
        <time>2017-01-22T13:11:22Z</time>
      </trkpt>
      <trkpt lat="45.22158" lon="5.97223">
        <ele>1442.11</ele>
        <time>2017-01-22T13:11:41Z</time>
      </trkpt>
      <trkpt lat="45.22151" lon="5.9723">
        <ele>1441.63</ele>
        <time>2017-01-22T13:11:58Z</time>
      </trkpt>
      <trkpt lat="45.22148" lon="5.97234">
        <ele>1441.15</ele>
        <time>2017-01-22T13:12:24Z</time>
      </trkpt>
      <trkpt lat="45.22141" lon="5.97241">
        <ele>1439.71</ele>
        <time>2017-01-22T13:12:35Z</time>
      </trkpt>
      <trkpt lat="45.22134" lon="5.97257">
        <ele>1437.31</ele>
        <time>2017-01-22T13:12:45Z</time>
      </trkpt>
      <trkpt lat="45.22128" lon="5.97269">
        <ele>1435.87</ele>
        <time>2017-01-22T13:12:51Z</time>
      </trkpt>
      <trkpt lat="45.22127" lon="5.97278">
        <ele>1434.91</ele>
        <time>2017-01-22T13:13:05Z</time>
      </trkpt>
      <trkpt lat="45.22124" lon="5.97281">
        <ele>1434.42</ele>
        <time>2017-01-22T13:13:39Z</time>
      </trkpt>
      <trkpt lat="45.2212" lon="5.9728">
        <ele>1434.42</ele>
        <time>2017-01-22T13:14:10Z</time>
      </trkpt>
      <trkpt lat="45.22121" lon="5.97288">
        <ele>1434.42</ele>
        <time>2017-01-22T13:14:41Z</time>
      </trkpt>
      <trkpt lat="45.22118" lon="5.97299">
        <ele>1434.91</ele>
        <time>2017-01-22T13:15:01Z</time>
      </trkpt>
      <trkpt lat="45.22119" lon="5.97309">
        <ele>1433.94</ele>
        <time>2017-01-22T13:15:22Z</time>
      </trkpt>
      <trkpt lat="45.22114" lon="5.97323">
        <ele>1431.06</ele>
        <time>2017-01-22T13:15:28Z</time>
      </trkpt>
      <trkpt lat="45.22111" lon="5.9734">
        <ele>1427.21</ele>
        <time>2017-01-22T13:15:31Z</time>
      </trkpt>
      <trkpt lat="45.22108" lon="5.97352">
        <ele>1424.33</ele>
        <time>2017-01-22T13:15:33Z</time>
      </trkpt>
      <trkpt lat="45.22108" lon="5.97358">
        <ele>1422.89</ele>
        <time>2017-01-22T13:15:34Z</time>
      </trkpt>
      <trkpt lat="45.22106" lon="5.97362">
        <ele>1421.45</ele>
        <time>2017-01-22T13:15:35Z</time>
      </trkpt>
      <trkpt lat="45.22104" lon="5.97366">
        <ele>1420.97</ele>
        <time>2017-01-22T13:15:36Z</time>
      </trkpt>
      <trkpt lat="45.22095" lon="5.97377">
        <ele>1419.04</ele>
        <time>2017-01-22T13:15:40Z</time>
      </trkpt>
      <trkpt lat="45.2209" lon="5.97394">
        <ele>1418.08</ele>
        <time>2017-01-22T13:15:49Z</time>
      </trkpt>
      <trkpt lat="45.22085" lon="5.9741">
        <ele>1419.04</ele>
        <time>2017-01-22T13:16:04Z</time>
      </trkpt>
      <trkpt lat="45.22085" lon="5.97411">
        <ele>1419.04</ele>
        <time>2017-01-22T13:16:05Z</time>
      </trkpt>
      <trkpt lat="45.22082" lon="5.97419">
        <ele>1420.49</ele>
        <time>2017-01-22T13:16:21Z</time>
      </trkpt>
      <trkpt lat="45.22083" lon="5.97418">
        <ele>1421.45</ele>
        <time>2017-01-22T13:16:43Z</time>
      </trkpt>
      <trkpt lat="45.22077" lon="5.97441">
        <ele>1419.52</ele>
        <time>2017-01-22T13:17:03Z</time>
      </trkpt>
      <trkpt lat="45.22076" lon="5.97448">
        <ele>1420.49</ele>
        <time>2017-01-22T13:17:12Z</time>
      </trkpt>
      <trkpt lat="45.22073" lon="5.97472">
        <ele>1420.49</ele>
        <time>2017-01-22T13:17:25Z</time>
      </trkpt>
      <trkpt lat="45.22072" lon="5.97476">
        <ele>1420.49</ele>
        <time>2017-01-22T13:17:28Z</time>
      </trkpt>
      <trkpt lat="45.22074" lon="5.97491">
        <ele>1420.49</ele>
        <time>2017-01-22T13:17:36Z</time>
      </trkpt>
      <trkpt lat="45.22078" lon="5.97501">
        <ele>1418.56</ele>
        <time>2017-01-22T13:17:55Z</time>
      </trkpt>
      <trkpt lat="45.22076" lon="5.97516">
        <ele>1420.97</ele>
        <time>2017-01-22T13:18:13Z</time>
      </trkpt>
      <trkpt lat="45.22072" lon="5.97536">
        <ele>1423.37</ele>
        <time>2017-01-22T13:18:31Z</time>
      </trkpt>
      <trkpt lat="45.22066" lon="5.97558">
        <ele>1426.25</ele>
        <time>2017-01-22T13:18:51Z</time>
      </trkpt>
      <trkpt lat="45.22062" lon="5.97574">
        <ele>1428.18</ele>
        <time>2017-01-22T13:19:08Z</time>
      </trkpt>
      <trkpt lat="45.22057" lon="5.97588">
        <ele>1429.62</ele>
        <time>2017-01-22T13:19:24Z</time>
      </trkpt>
      <trkpt lat="45.22054" lon="5.97601">
        <ele>1430.58</ele>
        <time>2017-01-22T13:19:37Z</time>
      </trkpt>
      <trkpt lat="45.22047" lon="5.9761">
        <ele>1432.02</ele>
        <time>2017-01-22T13:19:54Z</time>
      </trkpt>
      <trkpt lat="45.22043" lon="5.97626">
        <ele>1432.98</ele>
        <time>2017-01-22T13:20:09Z</time>
      </trkpt>
      <trkpt lat="45.22037" lon="5.97642">
        <ele>1434.42</ele>
        <time>2017-01-22T13:20:25Z</time>
      </trkpt>
      <trkpt lat="45.22032" lon="5.9766">
        <ele>1434.91</ele>
        <time>2017-01-22T13:20:39Z</time>
      </trkpt>
      <trkpt lat="45.22029" lon="5.97678">
        <ele>1436.83</ele>
        <time>2017-01-22T13:20:57Z</time>
      </trkpt>
      <trkpt lat="45.22026" lon="5.97693">
        <ele>1438.75</ele>
        <time>2017-01-22T13:21:15Z</time>
      </trkpt>
      <trkpt lat="45.22025" lon="5.97705">
        <ele>1440.67</ele>
        <time>2017-01-22T13:21:35Z</time>
      </trkpt>
      <trkpt lat="45.22026" lon="5.97714">
        <ele>1441.15</ele>
        <time>2017-01-22T13:21:55Z</time>
      </trkpt>
      <trkpt lat="45.22024" lon="5.97727">
        <ele>1443.08</ele>
        <time>2017-01-22T13:22:14Z</time>
      </trkpt>
      <trkpt lat="45.2202" lon="5.97735">
        <ele>1444.52</ele>
        <time>2017-01-22T13:22:32Z</time>
      </trkpt>
      <trkpt lat="45.22017" lon="5.97737">
        <ele>1445.48</ele>
        <time>2017-01-22T13:22:49Z</time>
      </trkpt>
      <trkpt lat="45.22008" lon="5.97742">
        <ele>1448.36</ele>
        <time>2017-01-22T13:23:10Z</time>
      </trkpt>
      <trkpt lat="45.22" lon="5.97748">
        <ele>1451.25</ele>
        <time>2017-01-22T13:23:24Z</time>
      </trkpt>
      <trkpt lat="45.21995" lon="5.97755">
        <ele>1452.21</ele>
        <time>2017-01-22T13:23:45Z</time>
      </trkpt>
      <trkpt lat="45.2199" lon="5.97762">
        <ele>1453.17</ele>
        <time>2017-01-22T13:24:11Z</time>
      </trkpt>
      <trkpt lat="45.21986" lon="5.97764">
        <ele>1456.53</ele>
        <time>2017-01-22T13:24:27Z</time>
      </trkpt>
      <trkpt lat="45.21977" lon="5.97766">
        <ele>1459.42</ele>
        <time>2017-01-22T13:24:43Z</time>
      </trkpt>
      <trkpt lat="45.21965" lon="5.97781">
        <ele>1461.82</ele>
        <time>2017-01-22T13:25:00Z</time>
      </trkpt>
      <trkpt lat="45.2196" lon="5.97782">
        <ele>1464.23</ele>
        <time>2017-01-22T13:25:12Z</time>
      </trkpt>
      <trkpt lat="45.21956" lon="5.97788">
        <ele>1466.63</ele>
        <time>2017-01-22T13:25:30Z</time>
      </trkpt>
      <trkpt lat="45.21953" lon="5.97793">
        <ele>1468.55</ele>
        <time>2017-01-22T13:25:47Z</time>
      </trkpt>
      <trkpt lat="45.21946" lon="5.97804">
        <ele>1469.03</ele>
        <time>2017-01-22T13:26:19Z</time>
      </trkpt>
      <trkpt lat="45.21948" lon="5.97804">
        <ele>1471.44</ele>
        <time>2017-01-22T13:26:38Z</time>
      </trkpt>
      <trkpt lat="45.21942" lon="5.97811">
        <ele>1471.92</ele>
        <time>2017-01-22T13:27:03Z</time>
      </trkpt>
      <trkpt lat="45.21949" lon="5.97804">
        <ele>1471.92</ele>
        <time>2017-01-22T13:27:42Z</time>
      </trkpt>
      <trkpt lat="45.21947" lon="5.97808">
        <ele>1471.92</ele>
        <time>2017-01-22T13:28:21Z</time>
      </trkpt>
      <trkpt lat="45.21954" lon="5.97806">
        <ele>1472.88</ele>
        <time>2017-01-22T13:28:47Z</time>
      </trkpt>
      <trkpt lat="45.21954" lon="5.97801">
        <ele>1472.88</ele>
        <time>2017-01-22T13:29:21Z</time>
      </trkpt>
      <trkpt lat="45.21953" lon="5.97806">
        <ele>1474.8</ele>
        <time>2017-01-22T13:29:45Z</time>
      </trkpt>
      <trkpt lat="45.2195" lon="5.9781">
        <ele>1475.76</ele>
        <time>2017-01-22T13:30:05Z</time>
      </trkpt>
      <trkpt lat="45.21947" lon="5.97815">
        <ele>1477.2</ele>
        <time>2017-01-22T13:30:27Z</time>
      </trkpt>
      <trkpt lat="45.21938" lon="5.97815">
        <ele>1477.68</ele>
        <time>2017-01-22T13:30:59Z</time>
      </trkpt>
      <trkpt lat="45.21944" lon="5.97818">
        <ele>1479.61</ele>
        <time>2017-01-22T13:31:23Z</time>
      </trkpt>
      <trkpt lat="45.21947" lon="5.97819">
        <ele>1481.53</ele>
        <time>2017-01-22T13:31:44Z</time>
      </trkpt>
      <trkpt lat="45.21947" lon="5.97821">
        <ele>1482.97</ele>
        <time>2017-01-22T13:32:08Z</time>
      </trkpt>
      <trkpt lat="45.21947" lon="5.97825">
        <ele>1484.89</ele>
        <time>2017-01-22T13:32:27Z</time>
      </trkpt>
      <trkpt lat="45.21945" lon="5.97831">
        <ele>1486.34</ele>
        <time>2017-01-22T13:32:50Z</time>
      </trkpt>
      <trkpt lat="45.21943" lon="5.97838">
        <ele>1487.3</ele>
        <time>2017-01-22T13:33:05Z</time>
      </trkpt>
      <trkpt lat="45.21941" lon="5.97848">
        <ele>1488.74</ele>
        <time>2017-01-22T13:33:24Z</time>
      </trkpt>
      <trkpt lat="45.21938" lon="5.97854">
        <ele>1489.22</ele>
        <time>2017-01-22T13:33:46Z</time>
      </trkpt>
      <trkpt lat="45.21934" lon="5.97855">
        <ele>1490.18</ele>
        <time>2017-01-22T13:34:15Z</time>
      </trkpt>
      <trkpt lat="45.21939" lon="5.97852">
        <ele>1488.74</ele>
        <time>2017-01-22T13:34:38Z</time>
      </trkpt>
      <trkpt lat="45.21944" lon="5.97845">
        <ele>1488.74</ele>
        <time>2017-01-22T13:35:09Z</time>
      </trkpt>
      <trkpt lat="45.21945" lon="5.97844">
        <ele>1490.18</ele>
        <time>2017-01-22T13:35:28Z</time>
      </trkpt>
      <trkpt lat="45.21942" lon="5.9785">
        <ele>1490.18</ele>
        <time>2017-01-22T13:35:51Z</time>
      </trkpt>
      <trkpt lat="45.2194" lon="5.97855">
        <ele>1492.1</ele>
        <time>2017-01-22T13:36:11Z</time>
      </trkpt>
      <trkpt lat="45.21935" lon="5.97856">
        <ele>1494.03</ele>
        <time>2017-01-22T13:36:33Z</time>
      </trkpt>
      <trkpt lat="45.21932" lon="5.97856">
        <ele>1495.95</ele>
        <time>2017-01-22T13:36:55Z</time>
      </trkpt>
      <trkpt lat="45.21932" lon="5.97861">
        <ele>1496.91</ele>
        <time>2017-01-22T13:37:17Z</time>
      </trkpt>
      <trkpt lat="45.21934" lon="5.97863">
        <ele>1498.35</ele>
        <time>2017-01-22T13:37:36Z</time>
      </trkpt>
      <trkpt lat="45.21931" lon="5.97869">
        <ele>1502.2</ele>
        <time>2017-01-22T13:37:53Z</time>
      </trkpt>
      <trkpt lat="45.2193" lon="5.97881">
        <ele>1505.08</ele>
        <time>2017-01-22T13:38:11Z</time>
      </trkpt>
      <trkpt lat="45.2193" lon="5.97886">
        <ele>1507</ele>
        <time>2017-01-22T13:38:31Z</time>
      </trkpt>
      <trkpt lat="45.21929" lon="5.9789">
        <ele>1509.41</ele>
        <time>2017-01-22T13:38:52Z</time>
      </trkpt>
      <trkpt lat="45.21921" lon="5.97887">
        <ele>1510.37</ele>
        <time>2017-01-22T13:39:11Z</time>
      </trkpt>
      <trkpt lat="45.21923" lon="5.97897">
        <ele>1512.29</ele>
        <time>2017-01-22T13:39:31Z</time>
      </trkpt>
      <trkpt lat="45.21924" lon="5.97905">
        <ele>1513.73</ele>
        <time>2017-01-22T13:39:49Z</time>
      </trkpt>
      <trkpt lat="45.21924" lon="5.97905">
        <ele>1515.18</ele>
        <time>2017-01-22T13:40:07Z</time>
      </trkpt>
      <trkpt lat="45.21925" lon="5.97907">
        <ele>1517.58</ele>
        <time>2017-01-22T13:40:31Z</time>
      </trkpt>
      <trkpt lat="45.21925" lon="5.97913">
        <ele>1518.54</ele>
        <time>2017-01-22T13:40:53Z</time>
      </trkpt>
      <trkpt lat="45.21925" lon="5.97916">
        <ele>1520.46</ele>
        <time>2017-01-22T13:41:13Z</time>
      </trkpt>
      <trkpt lat="45.21922" lon="5.97918">
        <ele>1522.87</ele>
        <time>2017-01-22T13:41:35Z</time>
      </trkpt>
      <trkpt lat="45.21921" lon="5.97921">
        <ele>1523.83</ele>
        <time>2017-01-22T13:41:54Z</time>
      </trkpt>
      <trkpt lat="45.21926" lon="5.97924">
        <ele>1526.23</ele>
        <time>2017-01-22T13:42:15Z</time>
      </trkpt>
      <trkpt lat="45.21928" lon="5.97926">
        <ele>1528.15</ele>
        <time>2017-01-22T13:42:34Z</time>
      </trkpt>
      <trkpt lat="45.21931" lon="5.97934">
        <ele>1530.56</ele>
        <time>2017-01-22T13:42:52Z</time>
      </trkpt>
      <trkpt lat="45.21933" lon="5.9794">
        <ele>1531.52</ele>
        <time>2017-01-22T13:43:13Z</time>
      </trkpt>
      <trkpt lat="45.21937" lon="5.97947">
        <ele>1533.44</ele>
        <time>2017-01-22T13:43:31Z</time>
      </trkpt>
      <trkpt lat="45.21937" lon="5.97959">
        <ele>1535.36</ele>
        <time>2017-01-22T13:43:52Z</time>
      </trkpt>
      <trkpt lat="45.21934" lon="5.97968">
        <ele>1537.29</ele>
        <time>2017-01-22T13:44:18Z</time>
      </trkpt>
      <trkpt lat="45.2193" lon="5.97974">
        <ele>1538.73</ele>
        <time>2017-01-22T13:44:35Z</time>
      </trkpt>
      <trkpt lat="45.21925" lon="5.97974">
        <ele>1540.65</ele>
        <time>2017-01-22T13:44:57Z</time>
      </trkpt>
      <trkpt lat="45.2192" lon="5.97979">
        <ele>1542.57</ele>
        <time>2017-01-22T13:45:17Z</time>
      </trkpt>
      <trkpt lat="45.21911" lon="5.97984">
        <ele>1545.94</ele>
        <time>2017-01-22T13:45:39Z</time>
      </trkpt>
      <trkpt lat="45.21904" lon="5.97983">
        <ele>1548.82</ele>
        <time>2017-01-22T13:46:00Z</time>
      </trkpt>
      <trkpt lat="45.21902" lon="5.97991">
        <ele>1549.78</ele>
        <time>2017-01-22T13:46:14Z</time>
      </trkpt>
      <trkpt lat="45.21901" lon="5.97994">
        <ele>1550.74</ele>
        <time>2017-01-22T13:46:40Z</time>
      </trkpt>
      <trkpt lat="45.21899" lon="5.97995">
        <ele>1550.74</ele>
        <time>2017-01-22T13:47:04Z</time>
      </trkpt>
      <trkpt lat="45.21899" lon="5.98003">
        <ele>1550.74</ele>
        <time>2017-01-22T13:47:47Z</time>
      </trkpt>
      <trkpt lat="45.21901" lon="5.97996">
        <ele>1551.22</ele>
        <time>2017-01-22T13:48:16Z</time>
      </trkpt>
      <trkpt lat="45.21896" lon="5.97993">
        <ele>1552.67</ele>
        <time>2017-01-22T13:48:46Z</time>
      </trkpt>
      <trkpt lat="45.21894" lon="5.97981">
        <ele>1552.67</ele>
        <time>2017-01-22T13:49:22Z</time>
      </trkpt>
      <trkpt lat="45.21891" lon="5.97976">
        <ele>1555.55</ele>
        <time>2017-01-22T13:49:44Z</time>
      </trkpt>
      <trkpt lat="45.21889" lon="5.97973">
        <ele>1556.99</ele>
        <time>2017-01-22T13:50:02Z</time>
      </trkpt>
      <trkpt lat="45.21891" lon="5.97983">
        <ele>1557.47</ele>
        <time>2017-01-22T13:50:43Z</time>
      </trkpt>
      <trkpt lat="45.2189" lon="5.97991">
        <ele>1559.4</ele>
        <time>2017-01-22T13:51:05Z</time>
      </trkpt>
      <trkpt lat="45.21885" lon="5.97994">
        <ele>1561.32</ele>
        <time>2017-01-22T13:51:28Z</time>
      </trkpt>
      <trkpt lat="45.21884" lon="5.97998">
        <ele>1562.28</ele>
        <time>2017-01-22T13:51:48Z</time>
      </trkpt>
      <trkpt lat="45.21879" lon="5.97997">
        <ele>1563.24</ele>
        <time>2017-01-22T13:52:09Z</time>
      </trkpt>
      <trkpt lat="45.21876" lon="5.97988">
        <ele>1564.68</ele>
        <time>2017-01-22T13:52:24Z</time>
      </trkpt>
      <trkpt lat="45.21879" lon="5.97981">
        <ele>1564.68</ele>
        <time>2017-01-22T13:52:53Z</time>
      </trkpt>
      <trkpt lat="45.21878" lon="5.97982">
        <ele>1563.72</ele>
        <time>2017-01-22T13:53:17Z</time>
      </trkpt>
      <trkpt lat="45.21876" lon="5.97981">
        <ele>1563.72</ele>
        <time>2017-01-22T13:53:40Z</time>
      </trkpt>
      <trkpt lat="45.21873" lon="5.97978">
        <ele>1566.12</ele>
        <time>2017-01-22T13:53:59Z</time>
      </trkpt>
      <trkpt lat="45.21878" lon="5.97991">
        <ele>1567.09</ele>
        <time>2017-01-22T13:54:20Z</time>
      </trkpt>
      <trkpt lat="45.21877" lon="5.97997">
        <ele>1568.05</ele>
        <time>2017-01-22T13:54:40Z</time>
      </trkpt>
      <trkpt lat="45.21876" lon="5.97988">
        <ele>1569.01</ele>
        <time>2017-01-22T13:55:04Z</time>
      </trkpt>
      <trkpt lat="45.21875" lon="5.97995">
        <ele>1569.49</ele>
        <time>2017-01-22T13:55:33Z</time>
      </trkpt>
      <trkpt lat="45.21876" lon="5.97994">
        <ele>1569.49</ele>
        <time>2017-01-22T13:56:01Z</time>
      </trkpt>
      <trkpt lat="45.21873" lon="5.97997">
        <ele>1569.97</ele>
        <time>2017-01-22T13:56:21Z</time>
      </trkpt>
      <trkpt lat="45.21873" lon="5.98008">
        <ele>1572.37</ele>
        <time>2017-01-22T13:56:47Z</time>
      </trkpt>
      <trkpt lat="45.2187" lon="5.98019">
        <ele>1573.33</ele>
        <time>2017-01-22T13:57:05Z</time>
      </trkpt>
      <trkpt lat="45.21868" lon="5.9802">
        <ele>1573.33</ele>
        <time>2017-01-22T13:57:27Z</time>
      </trkpt>
      <trkpt lat="45.2186" lon="5.98018">
        <ele>1576.22</ele>
        <time>2017-01-22T13:57:51Z</time>
      </trkpt>
      <trkpt lat="45.21853" lon="5.98011">
        <ele>1577.18</ele>
        <time>2017-01-22T13:58:11Z</time>
      </trkpt>
      <trkpt lat="45.21844" lon="5.98013">
        <ele>1576.22</ele>
        <time>2017-01-22T13:58:40Z</time>
      </trkpt>
      <trkpt lat="45.21843" lon="5.98012">
        <ele>1576.22</ele>
        <time>2017-01-22T13:58:41Z</time>
      </trkpt>
      <trkpt lat="45.21841" lon="5.98004">
        <ele>1575.74</ele>
        <time>2017-01-22T13:59:07Z</time>
      </trkpt>
      <trkpt lat="45.21836" lon="5.97995">
        <ele>1576.22</ele>
        <time>2017-01-22T13:59:28Z</time>
      </trkpt>
      <trkpt lat="45.21834" lon="5.97987">
        <ele>1579.1</ele>
        <time>2017-01-22T13:59:48Z</time>
      </trkpt>
      <trkpt lat="45.21824" lon="5.97977">
        <ele>1580.54</ele>
        <time>2017-01-22T14:00:07Z</time>
      </trkpt>
      <trkpt lat="45.21815" lon="5.9797">
        <ele>1582.47</ele>
        <time>2017-01-22T14:00:30Z</time>
      </trkpt>
      <trkpt lat="45.21824" lon="5.97959">
        <ele>1584.39</ele>
        <time>2017-01-22T14:00:52Z</time>
      </trkpt>
      <trkpt lat="45.21826" lon="5.97953">
        <ele>1586.31</ele>
        <time>2017-01-22T14:01:09Z</time>
      </trkpt>
      <trkpt lat="45.21818" lon="5.97952">
        <ele>1587.27</ele>
        <time>2017-01-22T14:01:27Z</time>
      </trkpt>
      <trkpt lat="45.21805" lon="5.97947">
        <ele>1588.24</ele>
        <time>2017-01-22T14:01:44Z</time>
      </trkpt>
      <trkpt lat="45.21795" lon="5.97948">
        <ele>1590.64</ele>
        <time>2017-01-22T14:02:05Z</time>
      </trkpt>
      <trkpt lat="45.21788" lon="5.97944">
        <ele>1593.04</ele>
        <time>2017-01-22T14:02:27Z</time>
      </trkpt>
      <trkpt lat="45.21776" lon="5.97947">
        <ele>1595.93</ele>
        <time>2017-01-22T14:02:50Z</time>
      </trkpt>
      <trkpt lat="45.21765" lon="5.97939">
        <ele>1599.29</ele>
        <time>2017-01-22T14:03:11Z</time>
      </trkpt>
      <trkpt lat="45.2176" lon="5.97937">
        <ele>1601.69</ele>
        <time>2017-01-22T14:03:29Z</time>
      </trkpt>
      <trkpt lat="45.21757" lon="5.97944">
        <ele>1603.62</ele>
        <time>2017-01-22T14:03:47Z</time>
      </trkpt>
      <trkpt lat="45.21749" lon="5.97949">
        <ele>1605.54</ele>
        <time>2017-01-22T14:04:06Z</time>
      </trkpt>
      <trkpt lat="45.21744" lon="5.97959">
        <ele>1607.46</ele>
        <time>2017-01-22T14:04:27Z</time>
      </trkpt>
      <trkpt lat="45.21741" lon="5.97975">
        <ele>1608.42</ele>
        <time>2017-01-22T14:04:47Z</time>
      </trkpt>
      <trkpt lat="45.2174" lon="5.97984">
        <ele>1610.35</ele>
        <time>2017-01-22T14:05:05Z</time>
      </trkpt>
      <trkpt lat="45.21737" lon="5.97998">
        <ele>1611.31</ele>
        <time>2017-01-22T14:05:23Z</time>
      </trkpt>
      <trkpt lat="45.21734" lon="5.98003">
        <ele>1612.75</ele>
        <time>2017-01-22T14:05:40Z</time>
      </trkpt>
      <trkpt lat="45.21735" lon="5.98007">
        <ele>1612.75</ele>
        <time>2017-01-22T14:06:11Z</time>
      </trkpt>
      <trkpt lat="45.21731" lon="5.97994">
        <ele>1613.23</ele>
        <time>2017-01-22T14:06:53Z</time>
      </trkpt>
      <trkpt lat="45.21731" lon="5.98009">
        <ele>1613.71</ele>
        <time>2017-01-22T14:07:11Z</time>
      </trkpt>
      <trkpt lat="45.21728" lon="5.9803">
        <ele>1614.19</ele>
        <time>2017-01-22T14:07:29Z</time>
      </trkpt>
      <trkpt lat="45.21723" lon="5.98043">
        <ele>1616.11</ele>
        <time>2017-01-22T14:07:45Z</time>
      </trkpt>
      <trkpt lat="45.21718" lon="5.98054">
        <ele>1617.56</ele>
        <time>2017-01-22T14:08:06Z</time>
      </trkpt>
      <trkpt lat="45.21712" lon="5.98064">
        <ele>1618.04</ele>
        <time>2017-01-22T14:08:25Z</time>
      </trkpt>
      <trkpt lat="45.21711" lon="5.98074">
        <ele>1619.48</ele>
        <time>2017-01-22T14:08:40Z</time>
      </trkpt>
      <trkpt lat="45.21709" lon="5.98086">
        <ele>1619.96</ele>
        <time>2017-01-22T14:08:58Z</time>
      </trkpt>
      <trkpt lat="45.21708" lon="5.98096">
        <ele>1621.4</ele>
        <time>2017-01-22T14:09:15Z</time>
      </trkpt>
      <trkpt lat="45.21706" lon="5.98086">
        <ele>1622.84</ele>
        <time>2017-01-22T14:09:33Z</time>
      </trkpt>
      <trkpt lat="45.21702" lon="5.98088">
        <ele>1623.32</ele>
        <time>2017-01-22T14:09:54Z</time>
      </trkpt>
      <trkpt lat="45.21705" lon="5.98086">
        <ele>1623.32</ele>
        <time>2017-01-22T14:10:21Z</time>
      </trkpt>
      <trkpt lat="45.21703" lon="5.98088">
        <ele>1624.77</ele>
        <time>2017-01-22T14:10:28Z</time>
      </trkpt>
      <trkpt lat="45.21697" lon="5.98097">
        <ele>1626.69</ele>
        <time>2017-01-22T14:10:45Z</time>
      </trkpt>
      <trkpt lat="45.21691" lon="5.98082">
        <ele>1628.61</ele>
        <time>2017-01-22T14:11:08Z</time>
      </trkpt>
      <trkpt lat="45.2169" lon="5.98092">
        <ele>1629.57</ele>
        <time>2017-01-22T14:11:28Z</time>
      </trkpt>
      <trkpt lat="45.21689" lon="5.98089">
        <ele>1630.05</ele>
        <time>2017-01-22T14:11:41Z</time>
      </trkpt>
      <trkpt lat="45.2169" lon="5.98095">
        <ele>1630.53</ele>
        <time>2017-01-22T14:12:00Z</time>
      </trkpt>
      <trkpt lat="45.21698" lon="5.98101">
        <ele>1631.98</ele>
        <time>2017-01-22T14:12:22Z</time>
      </trkpt>
      <trkpt lat="45.21699" lon="5.98103">
        <ele>1631.98</ele>
        <time>2017-01-22T14:12:56Z</time>
      </trkpt>
      <trkpt lat="45.21693" lon="5.98103">
        <ele>1632.94</ele>
        <time>2017-01-22T14:13:09Z</time>
      </trkpt>
      <trkpt lat="45.21693" lon="5.98102">
        <ele>1632.46</ele>
        <time>2017-01-22T14:13:27Z</time>
      </trkpt>
      <trkpt lat="45.21685" lon="5.98112">
        <ele>1632.46</ele>
        <time>2017-01-22T14:13:48Z</time>
      </trkpt>
      <trkpt lat="45.21684" lon="5.98125">
        <ele>1633.9</ele>
        <time>2017-01-22T14:14:03Z</time>
      </trkpt>
      <trkpt lat="45.21674" lon="5.98134">
        <ele>1635.82</ele>
        <time>2017-01-22T14:14:18Z</time>
      </trkpt>
      <trkpt lat="45.21676" lon="5.98153">
        <ele>1636.3</ele>
        <time>2017-01-22T14:14:33Z</time>
      </trkpt>
      <trkpt lat="45.21675" lon="5.98167">
        <ele>1637.26</ele>
        <time>2017-01-22T14:14:50Z</time>
      </trkpt>
      <trkpt lat="45.21674" lon="5.98178">
        <ele>1639.19</ele>
        <time>2017-01-22T14:15:06Z</time>
      </trkpt>
      <trkpt lat="45.21675" lon="5.98188">
        <ele>1642.55</ele>
        <time>2017-01-22T14:15:26Z</time>
      </trkpt>
      <trkpt lat="45.21674" lon="5.98207">
        <ele>1645.43</ele>
        <time>2017-01-22T14:15:48Z</time>
      </trkpt>
      <trkpt lat="45.21673" lon="5.98219">
        <ele>1647.36</ele>
        <time>2017-01-22T14:16:11Z</time>
      </trkpt>
      <trkpt lat="45.21673" lon="5.98231">
        <ele>1649.76</ele>
        <time>2017-01-22T14:16:33Z</time>
      </trkpt>
      <trkpt lat="45.21671" lon="5.98241">
        <ele>1649.76</ele>
        <time>2017-01-22T14:16:53Z</time>
      </trkpt>
      <trkpt lat="45.21668" lon="5.98251">
        <ele>1647.84</ele>
        <time>2017-01-22T14:17:13Z</time>
      </trkpt>
      <trkpt lat="45.21666" lon="5.98277">
        <ele>1646.4</ele>
        <time>2017-01-22T14:17:32Z</time>
      </trkpt>
      <trkpt lat="45.2166" lon="5.98288">
        <ele>1646.4</ele>
        <time>2017-01-22T14:17:46Z</time>
      </trkpt>
      <trkpt lat="45.21649" lon="5.98288">
        <ele>1648.8</ele>
        <time>2017-01-22T14:18:05Z</time>
      </trkpt>
      <trkpt lat="45.21645" lon="5.98288">
        <ele>1648.8</ele>
        <time>2017-01-22T14:18:25Z</time>
      </trkpt>
      <trkpt lat="45.21636" lon="5.98289">
        <ele>1647.36</ele>
        <time>2017-01-22T14:18:48Z</time>
      </trkpt>
      <trkpt lat="45.21626" lon="5.98287">
        <ele>1647.36</ele>
        <time>2017-01-22T14:19:01Z</time>
      </trkpt>
      <trkpt lat="45.21613" lon="5.98283">
        <ele>1649.76</ele>
        <time>2017-01-22T14:19:20Z</time>
      </trkpt>
      <trkpt lat="45.21609" lon="5.98274">
        <ele>1651.2</ele>
        <time>2017-01-22T14:19:42Z</time>
      </trkpt>
      <trkpt lat="45.21605" lon="5.98273">
        <ele>1653.6</ele>
        <time>2017-01-22T14:19:58Z</time>
      </trkpt>
      <trkpt lat="45.21596" lon="5.98267">
        <ele>1656.49</ele>
        <time>2017-01-22T14:20:14Z</time>
      </trkpt>
      <trkpt lat="45.2159" lon="5.98265">
        <ele>1657.45</ele>
        <time>2017-01-22T14:20:29Z</time>
      </trkpt>
      <trkpt lat="45.21584" lon="5.98262">
        <ele>1659.85</ele>
        <time>2017-01-22T14:20:47Z</time>
      </trkpt>
      <trkpt lat="45.21579" lon="5.98257">
        <ele>1661.78</ele>
        <time>2017-01-22T14:21:03Z</time>
      </trkpt>
      <trkpt lat="45.21577" lon="5.98256">
        <ele>1662.26</ele>
        <time>2017-01-22T14:21:29Z</time>
      </trkpt>
      <trkpt lat="45.21569" lon="5.98259">
        <ele>1662.26</ele>
        <time>2017-01-22T14:21:48Z</time>
      </trkpt>
      <trkpt lat="45.21563" lon="5.98265">
        <ele>1662.74</ele>
        <time>2017-01-22T14:22:04Z</time>
      </trkpt>
      <trkpt lat="45.21564" lon="5.98248">
        <ele>1665.14</ele>
        <time>2017-01-22T14:22:25Z</time>
      </trkpt>
      <trkpt lat="45.21563" lon="5.98235">
        <ele>1665.62</ele>
        <time>2017-01-22T14:22:46Z</time>
      </trkpt>
      <trkpt lat="45.21567" lon="5.98226">
        <ele>1666.58</ele>
        <time>2017-01-22T14:23:01Z</time>
      </trkpt>
      <trkpt lat="45.21559" lon="5.98231">
        <ele>1668.51</ele>
        <time>2017-01-22T14:23:18Z</time>
      </trkpt>
      <trkpt lat="45.21558" lon="5.98232">
        <ele>1668.99</ele>
        <time>2017-01-22T14:23:41Z</time>
      </trkpt>
      <trkpt lat="45.21551" lon="5.98238">
        <ele>1671.39</ele>
        <time>2017-01-22T14:23:56Z</time>
      </trkpt>
      <trkpt lat="45.2155" lon="5.98224">
        <ele>1672.83</ele>
        <time>2017-01-22T14:24:13Z</time>
      </trkpt>
      <trkpt lat="45.2155" lon="5.98222">
        <ele>1672.83</ele>
        <time>2017-01-22T14:24:53Z</time>
      </trkpt>
      <trkpt lat="45.21549" lon="5.98217">
        <ele>1673.31</ele>
        <time>2017-01-22T14:25:29Z</time>
      </trkpt>
      <trkpt lat="45.21547" lon="5.98213">
        <ele>1674.75</ele>
        <time>2017-01-22T14:25:45Z</time>
      </trkpt>
      <trkpt lat="45.21545" lon="5.98222">
        <ele>1676.68</ele>
        <time>2017-01-22T14:26:00Z</time>
      </trkpt>
      <trkpt lat="45.21538" lon="5.98217">
        <ele>1678.6</ele>
        <time>2017-01-22T14:26:15Z</time>
      </trkpt>
      <trkpt lat="45.21536" lon="5.98214">
        <ele>1678.6</ele>
        <time>2017-01-22T14:26:19Z</time>
      </trkpt>
      <trkpt lat="45.21526" lon="5.9821">
        <ele>1679.56</ele>
        <time>2017-01-22T14:26:33Z</time>
      </trkpt>
      <trkpt lat="45.21518" lon="5.98209">
        <ele>1679.56</ele>
        <time>2017-01-22T14:26:46Z</time>
      </trkpt>
      <trkpt lat="45.21512" lon="5.98196">
        <ele>1680.04</ele>
        <time>2017-01-22T14:27:03Z</time>
      </trkpt>
      <trkpt lat="45.21506" lon="5.98185">
        <ele>1682.44</ele>
        <time>2017-01-22T14:27:19Z</time>
      </trkpt>
      <trkpt lat="45.21502" lon="5.98175">
        <ele>1684.37</ele>
        <time>2017-01-22T14:27:35Z</time>
      </trkpt>
      <trkpt lat="45.21497" lon="5.98168">
        <ele>1686.77</ele>
        <time>2017-01-22T14:27:51Z</time>
      </trkpt>
      <trkpt lat="45.21499" lon="5.98162">
        <ele>1687.73</ele>
        <time>2017-01-22T14:28:03Z</time>
      </trkpt>
      <trkpt lat="45.21498" lon="5.98152">
        <ele>1690.14</ele>
        <time>2017-01-22T14:28:19Z</time>
      </trkpt>
      <trkpt lat="45.21497" lon="5.9814">
        <ele>1691.1</ele>
        <time>2017-01-22T14:28:34Z</time>
      </trkpt>
      <trkpt lat="45.21495" lon="5.98127">
        <ele>1692.06</ele>
        <time>2017-01-22T14:28:50Z</time>
      </trkpt>
      <trkpt lat="45.21492" lon="5.98116">
        <ele>1693.5</ele>
        <time>2017-01-22T14:29:11Z</time>
      </trkpt>
      <trkpt lat="45.21489" lon="5.98104">
        <ele>1694.94</ele>
        <time>2017-01-22T14:29:27Z</time>
      </trkpt>
      <trkpt lat="45.21491" lon="5.98094">
        <ele>1696.38</ele>
        <time>2017-01-22T14:29:41Z</time>
      </trkpt>
      <trkpt lat="45.21495" lon="5.98085">
        <ele>1698.31</ele>
        <time>2017-01-22T14:29:58Z</time>
      </trkpt>
      <trkpt lat="45.21494" lon="5.98077">
        <ele>1700.23</ele>
        <time>2017-01-22T14:30:17Z</time>
      </trkpt>
      <trkpt lat="45.21488" lon="5.9808">
        <ele>1701.19</ele>
        <time>2017-01-22T14:30:30Z</time>
      </trkpt>
      <trkpt lat="45.21483" lon="5.98086">
        <ele>1702.15</ele>
        <time>2017-01-22T14:30:45Z</time>
      </trkpt>
      <trkpt lat="45.21476" lon="5.98087">
        <ele>1703.59</ele>
        <time>2017-01-22T14:31:01Z</time>
      </trkpt>
      <trkpt lat="45.21469" lon="5.98086">
        <ele>1705.52</ele>
        <time>2017-01-22T14:31:17Z</time>
      </trkpt>
      <trkpt lat="45.21465" lon="5.98089">
        <ele>1707.92</ele>
        <time>2017-01-22T14:31:34Z</time>
      </trkpt>
      <trkpt lat="45.21463" lon="5.98086">
        <ele>1709.36</ele>
        <time>2017-01-22T14:31:49Z</time>
      </trkpt>
      <trkpt lat="45.21465" lon="5.98085">
        <ele>1709.84</ele>
        <time>2017-01-22T14:32:18Z</time>
      </trkpt>
      <trkpt lat="45.21464" lon="5.98085">
        <ele>1709.84</ele>
        <time>2017-01-22T14:32:54Z</time>
      </trkpt>
      <trkpt lat="45.21463" lon="5.98085">
        <ele>1709.84</ele>
        <time>2017-01-22T14:33:21Z</time>
      </trkpt>
      <trkpt lat="45.21464" lon="5.98083">
        <ele>1709.36</ele>
        <time>2017-01-22T14:33:45Z</time>
      </trkpt>
      <trkpt lat="45.21465" lon="5.98085">
        <ele>1708.4</ele>
        <time>2017-01-22T14:34:03Z</time>
      </trkpt>
      <trkpt lat="45.21465" lon="5.98087">
        <ele>1708.4</ele>
        <time>2017-01-22T14:34:45Z</time>
      </trkpt>
      <trkpt lat="45.21466" lon="5.98085">
        <ele>1709.84</ele>
        <time>2017-01-22T14:35:05Z</time>
      </trkpt>
      <trkpt lat="45.21462" lon="5.98075">
        <ele>1710.32</ele>
        <time>2017-01-22T14:35:24Z</time>
      </trkpt>
      <trkpt lat="45.21459" lon="5.98062">
        <ele>1711.76</ele>
        <time>2017-01-22T14:35:37Z</time>
      </trkpt>
      <trkpt lat="45.21453" lon="5.98042">
        <ele>1714.65</ele>
        <time>2017-01-22T14:36:00Z</time>
      </trkpt>
      <trkpt lat="45.21448" lon="5.98029">
        <ele>1716.09</ele>
        <time>2017-01-22T14:36:15Z</time>
      </trkpt>
      <trkpt lat="45.21445" lon="5.98016">
        <ele>1718.49</ele>
        <time>2017-01-22T14:36:33Z</time>
      </trkpt>
      <trkpt lat="45.21446" lon="5.98003">
        <ele>1720.9</ele>
        <time>2017-01-22T14:36:50Z</time>
      </trkpt>
      <trkpt lat="45.21447" lon="5.97993">
        <ele>1722.34</ele>
        <time>2017-01-22T14:37:02Z</time>
      </trkpt>
      <trkpt lat="45.21446" lon="5.97982">
        <ele>1723.78</ele>
        <time>2017-01-22T14:37:16Z</time>
      </trkpt>
      <trkpt lat="45.21447" lon="5.97976">
        <ele>1724.74</ele>
        <time>2017-01-22T14:37:33Z</time>
      </trkpt>
      <trkpt lat="45.21447" lon="5.9797">
        <ele>1725.7</ele>
        <time>2017-01-22T14:37:49Z</time>
      </trkpt>
      <trkpt lat="45.21446" lon="5.97968">
        <ele>1726.18</ele>
        <time>2017-01-22T14:38:03Z</time>
      </trkpt>
      <trkpt lat="45.21439" lon="5.97978">
        <ele>1728.11</ele>
        <time>2017-01-22T14:38:20Z</time>
      </trkpt>
      <trkpt lat="45.2143" lon="5.97984">
        <ele>1730.03</ele>
        <time>2017-01-22T14:38:36Z</time>
      </trkpt>
      <trkpt lat="45.21426" lon="5.97978">
        <ele>1731.47</ele>
        <time>2017-01-22T14:38:56Z</time>
      </trkpt>
      <trkpt lat="45.21412" lon="5.97977">
        <ele>1733.88</ele>
        <time>2017-01-22T14:39:15Z</time>
      </trkpt>
      <trkpt lat="45.21407" lon="5.97978">
        <ele>1735.8</ele>
        <time>2017-01-22T14:39:33Z</time>
      </trkpt>
      <trkpt lat="45.21398" lon="5.97977">
        <ele>1736.76</ele>
        <time>2017-01-22T14:39:53Z</time>
      </trkpt>
      <trkpt lat="45.21391" lon="5.97971">
        <ele>1739.64</ele>
        <time>2017-01-22T14:40:10Z</time>
      </trkpt>
      <trkpt lat="45.21395" lon="5.97959">
        <ele>1743.01</ele>
        <time>2017-01-22T14:40:26Z</time>
      </trkpt>
      <trkpt lat="45.21393" lon="5.9795">
        <ele>1744.45</ele>
        <time>2017-01-22T14:40:42Z</time>
      </trkpt>
      <trkpt lat="45.21385" lon="5.97949">
        <ele>1746.85</ele>
        <time>2017-01-22T14:41:04Z</time>
      </trkpt>
      <trkpt lat="45.21378" lon="5.97949">
        <ele>1749.26</ele>
        <time>2017-01-22T14:41:20Z</time>
      </trkpt>
      <trkpt lat="45.21369" lon="5.97947">
        <ele>1751.66</ele>
        <time>2017-01-22T14:41:39Z</time>
      </trkpt>
      <trkpt lat="45.21368" lon="5.97935">
        <ele>1754.06</ele>
        <time>2017-01-22T14:41:55Z</time>
      </trkpt>
      <trkpt lat="45.21371" lon="5.97924">
        <ele>1756.47</ele>
        <time>2017-01-22T14:42:11Z</time>
      </trkpt>
      <trkpt lat="45.21367" lon="5.97913">
        <ele>1758.39</ele>
        <time>2017-01-22T14:42:26Z</time>
      </trkpt>
      <trkpt lat="45.21363" lon="5.97903">
        <ele>1759.35</ele>
        <time>2017-01-22T14:42:42Z</time>
      </trkpt>
      <trkpt lat="45.2136" lon="5.97896">
        <ele>1761.27</ele>
        <time>2017-01-22T14:42:58Z</time>
      </trkpt>
      <trkpt lat="45.21355" lon="5.97884">
        <ele>1764.16</ele>
        <time>2017-01-22T14:43:13Z</time>
      </trkpt>
      <trkpt lat="45.21354" lon="5.97873">
        <ele>1766.08</ele>
        <time>2017-01-22T14:43:30Z</time>
      </trkpt>
      <trkpt lat="45.21351" lon="5.97865">
        <ele>1768.48</ele>
        <time>2017-01-22T14:43:46Z</time>
      </trkpt>
      <trkpt lat="45.21348" lon="5.97856">
        <ele>1769.92</ele>
        <time>2017-01-22T14:44:02Z</time>
      </trkpt>
      <trkpt lat="45.21344" lon="5.97846">
        <ele>1771.85</ele>
        <time>2017-01-22T14:44:17Z</time>
      </trkpt>
      <trkpt lat="45.2134" lon="5.97838">
        <ele>1774.25</ele>
        <time>2017-01-22T14:44:34Z</time>
      </trkpt>
      <trkpt lat="45.2134" lon="5.97831">
        <ele>1776.17</ele>
        <time>2017-01-22T14:44:50Z</time>
      </trkpt>
      <trkpt lat="45.2134" lon="5.97827">
        <ele>1778.1</ele>
        <time>2017-01-22T14:45:06Z</time>
      </trkpt>
      <trkpt lat="45.21338" lon="5.9782">
        <ele>1780.02</ele>
        <time>2017-01-22T14:45:25Z</time>
      </trkpt>
      <trkpt lat="45.21338" lon="5.9781">
        <ele>1782.42</ele>
        <time>2017-01-22T14:45:41Z</time>
      </trkpt>
      <trkpt lat="45.21337" lon="5.97803">
        <ele>1784.82</ele>
        <time>2017-01-22T14:45:56Z</time>
      </trkpt>
      <trkpt lat="45.21338" lon="5.97795">
        <ele>1786.75</ele>
        <time>2017-01-22T14:46:13Z</time>
      </trkpt>
      <trkpt lat="45.21338" lon="5.97784">
        <ele>1788.67</ele>
        <time>2017-01-22T14:46:31Z</time>
      </trkpt>
      <trkpt lat="45.21337" lon="5.97773">
        <ele>1790.59</ele>
        <time>2017-01-22T14:46:47Z</time>
      </trkpt>
      <trkpt lat="45.21337" lon="5.97767">
        <ele>1793</ele>
        <time>2017-01-22T14:47:02Z</time>
      </trkpt>
      <trkpt lat="45.21338" lon="5.9776">
        <ele>1794.92</ele>
        <time>2017-01-22T14:47:20Z</time>
      </trkpt>
      <trkpt lat="45.21339" lon="5.97752">
        <ele>1796.84</ele>
        <time>2017-01-22T14:47:36Z</time>
      </trkpt>
      <trkpt lat="45.21338" lon="5.97744">
        <ele>1799.24</ele>
        <time>2017-01-22T14:47:52Z</time>
      </trkpt>
      <trkpt lat="45.21335" lon="5.97739">
        <ele>1800.69</ele>
        <time>2017-01-22T14:48:11Z</time>
      </trkpt>
      <trkpt lat="45.21333" lon="5.9773">
        <ele>1802.61</ele>
        <time>2017-01-22T14:48:28Z</time>
      </trkpt>
      <trkpt lat="45.2133" lon="5.9772">
        <ele>1805.01</ele>
        <time>2017-01-22T14:48:46Z</time>
      </trkpt>
      <trkpt lat="45.21334" lon="5.97722">
        <ele>1805.97</ele>
        <time>2017-01-22T14:49:04Z</time>
      </trkpt>
      <trkpt lat="45.21342" lon="5.97724">
        <ele>1807.42</ele>
        <time>2017-01-22T14:49:20Z</time>
      </trkpt>
      <trkpt lat="45.21348" lon="5.97726">
        <ele>1809.34</ele>
        <time>2017-01-22T14:49:35Z</time>
      </trkpt>
      <trkpt lat="45.2135" lon="5.97724">
        <ele>1810.3</ele>
        <time>2017-01-22T14:49:49Z</time>
      </trkpt>
      <trkpt lat="45.21345" lon="5.97716">
        <ele>1810.78</ele>
        <time>2017-01-22T14:50:17Z</time>
      </trkpt>
      <trkpt lat="45.21343" lon="5.97713">
        <ele>1812.7</ele>
        <time>2017-01-22T14:50:34Z</time>
      </trkpt>
      <trkpt lat="45.2134" lon="5.97706">
        <ele>1814.15</ele>
        <time>2017-01-22T14:50:50Z</time>
      </trkpt>
      <trkpt lat="45.21338" lon="5.97698">
        <ele>1816.55</ele>
        <time>2017-01-22T14:51:05Z</time>
      </trkpt>
      <trkpt lat="45.21337" lon="5.97695">
        <ele>1817.03</ele>
        <time>2017-01-22T14:51:27Z</time>
      </trkpt>
      <trkpt lat="45.21342" lon="5.97696">
        <ele>1817.51</ele>
        <time>2017-01-22T14:51:46Z</time>
      </trkpt>
      <trkpt lat="45.21341" lon="5.97699">
        <ele>1817.99</ele>
        <time>2017-01-22T14:52:14Z</time>
      </trkpt>
      <trkpt lat="45.2135" lon="5.97698">
        <ele>1818.47</ele>
        <time>2017-01-22T14:52:53Z</time>
      </trkpt>
      <trkpt lat="45.2134" lon="5.97697">
        <ele>1818.47</ele>
        <time>2017-01-22T14:53:18Z</time>
      </trkpt>
      <trkpt lat="45.21342" lon="5.97696">
        <ele>1818.47</ele>
        <time>2017-01-22T14:53:52Z</time>
      </trkpt>
      <trkpt lat="45.21346" lon="5.97699">
        <ele>1818.47</ele>
        <time>2017-01-22T14:54:13Z</time>
      </trkpt>
      <trkpt lat="45.21348" lon="5.977">
        <ele>1819.43</ele>
        <time>2017-01-22T14:54:44Z</time>
      </trkpt>
      <trkpt lat="45.21345" lon="5.97697">
        <ele>1820.39</ele>
        <time>2017-01-22T14:55:08Z</time>
      </trkpt>
      <trkpt lat="45.2134" lon="5.97691">
        <ele>1821.35</ele>
        <time>2017-01-22T14:55:52Z</time>
      </trkpt>
      <trkpt lat="45.21339" lon="5.97685">
        <ele>1823.76</ele>
        <time>2017-01-22T14:56:12Z</time>
      </trkpt>
      <trkpt lat="45.21333" lon="5.97687">
        <ele>1824.72</ele>
        <time>2017-01-22T14:56:40Z</time>
      </trkpt>
      <trkpt lat="45.21334" lon="5.97676">
        <ele>1825.68</ele>
        <time>2017-01-22T14:57:03Z</time>
      </trkpt>
      <trkpt lat="45.21341" lon="5.97681">
        <ele>1826.64</ele>
        <time>2017-01-22T14:57:19Z</time>
      </trkpt>
      <trkpt lat="45.21341" lon="5.97683">
        <ele>1827.12</ele>
        <time>2017-01-22T14:57:42Z</time>
      </trkpt>
      <trkpt lat="45.21343" lon="5.9769">
        <ele>1827.12</ele>
        <time>2017-01-22T14:58:15Z</time>
      </trkpt>
      <trkpt lat="45.21346" lon="5.97686">
        <ele>1828.08</ele>
        <time>2017-01-22T14:58:47Z</time>
      </trkpt>
      <trkpt lat="45.21343" lon="5.97682">
        <ele>1828.56</ele>
        <time>2017-01-22T14:59:08Z</time>
      </trkpt>
      <trkpt lat="45.21343" lon="5.97682">
        <ele>1828.56</ele>
        <time>2017-01-22T14:59:13Z</time>
      </trkpt>
      <trkpt lat="45.21354" lon="5.97688">
        <ele>1830.01</ele>
        <time>2017-01-22T14:59:33Z</time>
      </trkpt>
      <trkpt lat="45.21364" lon="5.97695">
        <ele>1832.41</ele>
        <time>2017-01-22T14:59:47Z</time>
      </trkpt>
      <trkpt lat="45.21374" lon="5.97701">
        <ele>1835.77</ele>
        <time>2017-01-22T15:00:05Z</time>
      </trkpt>
      <trkpt lat="45.21384" lon="5.97702">
        <ele>1839.14</ele>
        <time>2017-01-22T15:00:24Z</time>
      </trkpt>
      <trkpt lat="45.21386" lon="5.97701">
        <ele>1841.06</ele>
        <time>2017-01-22T15:00:41Z</time>
      </trkpt>
      <trkpt lat="45.21383" lon="5.97692">
        <ele>1842.98</ele>
        <time>2017-01-22T15:00:56Z</time>
      </trkpt>
      <trkpt lat="45.2138" lon="5.97684">
        <ele>1845.39</ele>
        <time>2017-01-22T15:01:12Z</time>
      </trkpt>
      <trkpt lat="45.21376" lon="5.97674">
        <ele>1847.79</ele>
        <time>2017-01-22T15:01:29Z</time>
      </trkpt>
      <trkpt lat="45.21374" lon="5.97667">
        <ele>1849.23</ele>
        <time>2017-01-22T15:01:43Z</time>
      </trkpt>
      <trkpt lat="45.21378" lon="5.97666">
        <ele>1851.16</ele>
        <time>2017-01-22T15:01:58Z</time>
      </trkpt>
      <trkpt lat="45.21387" lon="5.97665">
        <ele>1854.04</ele>
        <time>2017-01-22T15:02:17Z</time>
      </trkpt>
      <trkpt lat="45.21394" lon="5.97662">
        <ele>1856.92</ele>
        <time>2017-01-22T15:02:31Z</time>
      </trkpt>
      <trkpt lat="45.21403" lon="5.97659">
        <ele>1858.85</ele>
        <time>2017-01-22T15:02:49Z</time>
      </trkpt>
      <trkpt lat="45.21409" lon="5.97654">
        <ele>1861.25</ele>
        <time>2017-01-22T15:03:04Z</time>
      </trkpt>
      <trkpt lat="45.21415" lon="5.97651">
        <ele>1864.13</ele>
        <time>2017-01-22T15:03:21Z</time>
      </trkpt>
      <trkpt lat="45.21417" lon="5.97644">
        <ele>1866.54</ele>
        <time>2017-01-22T15:03:41Z</time>
      </trkpt>
      <trkpt lat="45.21422" lon="5.97635">
        <ele>1868.46</ele>
        <time>2017-01-22T15:03:55Z</time>
      </trkpt>
      <trkpt lat="45.21423" lon="5.97624">
        <ele>1871.34</ele>
        <time>2017-01-22T15:04:10Z</time>
      </trkpt>
      <trkpt lat="45.21424" lon="5.97611">
        <ele>1873.27</ele>
        <time>2017-01-22T15:04:25Z</time>
      </trkpt>
      <trkpt lat="45.2142" lon="5.97604">
        <ele>1875.19</ele>
        <time>2017-01-22T15:04:39Z</time>
      </trkpt>
      <trkpt lat="45.21417" lon="5.97603">
        <ele>1877.11</ele>
        <time>2017-01-22T15:05:01Z</time>
      </trkpt>
      <trkpt lat="45.21418" lon="5.97604">
        <ele>1877.11</ele>
        <time>2017-01-22T15:05:33Z</time>
      </trkpt>
      <trkpt lat="45.21417" lon="5.97602">
        <ele>1877.11</ele>
        <time>2017-01-22T15:06:04Z</time>
      </trkpt>
      <trkpt lat="45.21416" lon="5.97595">
        <ele>1877.59</ele>
        <time>2017-01-22T15:06:20Z</time>
      </trkpt>
      <trkpt lat="45.21415" lon="5.97597">
        <ele>1877.59</ele>
        <time>2017-01-22T15:06:47Z</time>
      </trkpt>
      <trkpt lat="45.21416" lon="5.97596">
        <ele>1877.59</ele>
        <time>2017-01-22T15:07:20Z</time>
      </trkpt>
      <trkpt lat="45.21415" lon="5.97595">
        <ele>1876.15</ele>
        <time>2017-01-22T15:07:36Z</time>
      </trkpt>
      <trkpt lat="45.21416" lon="5.97595">
        <ele>1876.15</ele>
        <time>2017-01-22T15:08:10Z</time>
      </trkpt>
      <trkpt lat="45.21415" lon="5.97594">
        <ele>1876.63</ele>
        <time>2017-01-22T15:08:18Z</time>
      </trkpt>
      <trkpt lat="45.21413" lon="5.97592">
        <ele>1876.63</ele>
        <time>2017-01-22T15:08:27Z</time>
      </trkpt>
      <trkpt lat="45.21408" lon="5.97579">
        <ele>1878.55</ele>
        <time>2017-01-22T15:08:43Z</time>
      </trkpt>
      <trkpt lat="45.21405" lon="5.97565">
        <ele>1880.96</ele>
        <time>2017-01-22T15:08:58Z</time>
      </trkpt>
      <trkpt lat="45.21402" lon="5.97554">
        <ele>1882.88</ele>
        <time>2017-01-22T15:09:14Z</time>
      </trkpt>
      <trkpt lat="45.21401" lon="5.97539">
        <ele>1884.8</ele>
        <time>2017-01-22T15:09:32Z</time>
      </trkpt>
      <trkpt lat="45.21402" lon="5.97524">
        <ele>1886.24</ele>
        <time>2017-01-22T15:09:48Z</time>
      </trkpt>
      <trkpt lat="45.214" lon="5.97509">
        <ele>1888.65</ele>
        <time>2017-01-22T15:10:08Z</time>
      </trkpt>
      <trkpt lat="45.214" lon="5.97495">
        <ele>1889.61</ele>
        <time>2017-01-22T15:10:22Z</time>
      </trkpt>
      <trkpt lat="45.214" lon="5.97481">
        <ele>1892.01</ele>
        <time>2017-01-22T15:10:42Z</time>
      </trkpt>
      <trkpt lat="45.21399" lon="5.97468">
        <ele>1893.93</ele>
        <time>2017-01-22T15:11:00Z</time>
      </trkpt>
      <trkpt lat="45.21396" lon="5.97453">
        <ele>1896.34</ele>
        <time>2017-01-22T15:11:20Z</time>
      </trkpt>
      <trkpt lat="45.21397" lon="5.9744">
        <ele>1896.34</ele>
        <time>2017-01-22T15:11:37Z</time>
      </trkpt>
      <trkpt lat="45.21403" lon="5.97423">
        <ele>1899.22</ele>
        <time>2017-01-22T15:12:01Z</time>
      </trkpt>
      <trkpt lat="45.21404" lon="5.97407">
        <ele>1901.63</ele>
        <time>2017-01-22T15:12:22Z</time>
      </trkpt>
      <trkpt lat="45.21405" lon="5.974">
        <ele>1901.14</ele>
        <time>2017-01-22T15:12:30Z</time>
      </trkpt>
      <trkpt lat="45.21405" lon="5.97397">
        <ele>1900.18</ele>
        <time>2017-01-22T15:12:32Z</time>
      </trkpt>
      <trkpt lat="45.21409" lon="5.97379">
        <ele>1899.22</ele>
        <time>2017-01-22T15:12:50Z</time>
      </trkpt>
      <trkpt lat="45.2141" lon="5.9737">
        <ele>1898.74</ele>
        <time>2017-01-22T15:13:08Z</time>
      </trkpt>
      <trkpt lat="45.21414" lon="5.97358">
        <ele>1898.74</ele>
        <time>2017-01-22T15:13:26Z</time>
      </trkpt>
      <trkpt lat="45.2142" lon="5.97341">
        <ele>1898.74</ele>
        <time>2017-01-22T15:13:43Z</time>
      </trkpt>
      <trkpt lat="45.2142" lon="5.97338">
        <ele>1900.18</ele>
        <time>2017-01-22T15:13:46Z</time>
      </trkpt>
      <trkpt lat="45.21422" lon="5.97329">
        <ele>1901.14</ele>
        <time>2017-01-22T15:14:04Z</time>
      </trkpt>
      <trkpt lat="45.21425" lon="5.97317">
        <ele>1899.7</ele>
        <time>2017-01-22T15:14:25Z</time>
      </trkpt>
      <trkpt lat="45.21428" lon="5.97301">
        <ele>1896.82</ele>
        <time>2017-01-22T15:14:31Z</time>
      </trkpt>
      <trkpt lat="45.21427" lon="5.97299">
        <ele>1895.86</ele>
        <time>2017-01-22T15:14:32Z</time>
      </trkpt>
      <trkpt lat="45.21425" lon="5.97283">
        <ele>1892.01</ele>
        <time>2017-01-22T15:14:38Z</time>
      </trkpt>
      <trkpt lat="45.21423" lon="5.97277">
        <ele>1891.05</ele>
        <time>2017-01-22T15:14:39Z</time>
      </trkpt>
      <trkpt lat="45.21419" lon="5.97268">
        <ele>1889.13</ele>
        <time>2017-01-22T15:14:41Z</time>
      </trkpt>
      <trkpt lat="45.21418" lon="5.9726">
        <ele>1889.13</ele>
        <time>2017-01-22T15:14:46Z</time>
      </trkpt>
      <trkpt lat="45.21419" lon="5.97257">
        <ele>1888.65</ele>
        <time>2017-01-22T15:14:47Z</time>
      </trkpt>
      <trkpt lat="45.21421" lon="5.97256">
        <ele>1888.17</ele>
        <time>2017-01-22T15:14:48Z</time>
      </trkpt>
      <trkpt lat="45.21423" lon="5.97255">
        <ele>1887.21</ele>
        <time>2017-01-22T15:14:50Z</time>
      </trkpt>
      <trkpt lat="45.21432" lon="5.97262">
        <ele>1887.21</ele>
        <time>2017-01-22T15:15:07Z</time>
      </trkpt>
      <trkpt lat="45.21433" lon="5.97268">
        <ele>1886.72</ele>
        <time>2017-01-22T15:15:26Z</time>
      </trkpt>
      <trkpt lat="45.21431" lon="5.97272">
        <ele>1886.72</ele>
        <time>2017-01-22T15:15:59Z</time>
      </trkpt>
      <trkpt lat="45.21431" lon="5.97261">
        <ele>1886.24</ele>
        <time>2017-01-22T15:16:18Z</time>
      </trkpt>
      <trkpt lat="45.21431" lon="5.9726">
        <ele>1886.24</ele>
        <time>2017-01-22T15:16:50Z</time>
      </trkpt>
      <trkpt lat="45.21432" lon="5.9726">
        <ele>1886.24</ele>
        <time>2017-01-22T15:17:18Z</time>
      </trkpt>
      <trkpt lat="45.21433" lon="5.97263">
        <ele>1886.24</ele>
        <time>2017-01-22T15:17:58Z</time>
      </trkpt>
      <trkpt lat="45.21433" lon="5.97264">
        <ele>1886.24</ele>
        <time>2017-01-22T15:18:20Z</time>
      </trkpt>
      <trkpt lat="45.21433" lon="5.97266">
        <ele>1887.69</ele>
        <time>2017-01-22T15:18:36Z</time>
      </trkpt>
      <trkpt lat="45.21433" lon="5.97268">
        <ele>1887.69</ele>
        <time>2017-01-22T15:19:03Z</time>
      </trkpt>
      <trkpt lat="45.21435" lon="5.97271">
        <ele>1887.69</ele>
        <time>2017-01-22T15:19:38Z</time>
      </trkpt>
      <trkpt lat="45.21435" lon="5.97271">
        <ele>1887.69</ele>
        <time>2017-01-22T15:20:13Z</time>
      </trkpt>
      <trkpt lat="45.21434" lon="5.9727">
        <ele>1886.72</ele>
        <time>2017-01-22T15:20:41Z</time>
      </trkpt>
      <trkpt lat="45.21433" lon="5.9727">
        <ele>1887.69</ele>
        <time>2017-01-22T15:21:05Z</time>
      </trkpt>
      <trkpt lat="45.21435" lon="5.97273">
        <ele>1888.17</ele>
        <time>2017-01-22T15:21:45Z</time>
      </trkpt>
      <trkpt lat="45.21435" lon="5.97277">
        <ele>1887.21</ele>
        <time>2017-01-22T15:22:19Z</time>
      </trkpt>
      <trkpt lat="45.21435" lon="5.97276">
        <ele>1887.21</ele>
        <time>2017-01-22T15:23:12Z</time>
      </trkpt>
      <trkpt lat="45.21435" lon="5.97279">
        <ele>1887.21</ele>
        <time>2017-01-22T15:24:01Z</time>
      </trkpt>
      <trkpt lat="45.21433" lon="5.97273">
        <ele>1887.21</ele>
        <time>2017-01-22T15:24:39Z</time>
      </trkpt>
      <trkpt lat="45.21432" lon="5.97267">
        <ele>1887.21</ele>
        <time>2017-01-22T15:25:11Z</time>
      </trkpt>
      <trkpt lat="45.21429" lon="5.97263">
        <ele>1887.21</ele>
        <time>2017-01-22T15:25:40Z</time>
      </trkpt>
      <trkpt lat="45.21434" lon="5.97266">
        <ele>1887.21</ele>
        <time>2017-01-22T15:26:14Z</time>
      </trkpt>
      <trkpt lat="45.21435" lon="5.97276">
        <ele>1887.21</ele>
        <time>2017-01-22T15:26:44Z</time>
      </trkpt>
      <trkpt lat="45.21433" lon="5.97269">
        <ele>1887.21</ele>
        <time>2017-01-22T15:27:00Z</time>
      </trkpt>
      <trkpt lat="45.21431" lon="5.97265">
        <ele>1887.21</ele>
        <time>2017-01-22T15:27:27Z</time>
      </trkpt>
      <trkpt lat="45.21435" lon="5.97278">
        <ele>1887.21</ele>
        <time>2017-01-22T15:27:59Z</time>
      </trkpt>
      <trkpt lat="45.21433" lon="5.97269">
        <ele>1887.21</ele>
        <time>2017-01-22T15:28:30Z</time>
      </trkpt>
      <trkpt lat="45.21434" lon="5.97268">
        <ele>1887.21</ele>
        <time>2017-01-22T15:28:56Z</time>
      </trkpt>
      <trkpt lat="45.21437" lon="5.97266">
        <ele>1888.65</ele>
        <time>2017-01-22T15:29:08Z</time>
      </trkpt>
      <trkpt lat="45.21434" lon="5.97264">
        <ele>1888.65</ele>
        <time>2017-01-22T15:29:17Z</time>
      </trkpt>
      <trkpt lat="45.21433" lon="5.97261">
        <ele>1889.13</ele>
        <time>2017-01-22T15:29:33Z</time>
      </trkpt>
      <trkpt lat="45.21432" lon="5.97259">
        <ele>1887.69</ele>
        <time>2017-01-22T15:29:35Z</time>
      </trkpt>
      <trkpt lat="45.21419" lon="5.97219">
        <ele>1884.32</ele>
        <time>2017-01-22T15:29:49Z</time>
      </trkpt>
      <trkpt lat="45.21415" lon="5.97206">
        <ele>1883.36</ele>
        <time>2017-01-22T15:29:53Z</time>
      </trkpt>
      <trkpt lat="45.2141" lon="5.97188">
        <ele>1881.92</ele>
        <time>2017-01-22T15:30:00Z</time>
      </trkpt>
      <trkpt lat="45.21409" lon="5.97186">
        <ele>1881.92</ele>
        <time>2017-01-22T15:30:01Z</time>
      </trkpt>
      <trkpt lat="45.21401" lon="5.9716">
        <ele>1882.4</ele>
        <time>2017-01-22T15:30:15Z</time>
      </trkpt>
      <trkpt lat="45.21399" lon="5.97151">
        <ele>1880.48</ele>
        <time>2017-01-22T15:30:32Z</time>
      </trkpt>
      <trkpt lat="45.21398" lon="5.9715">
        <ele>1880.48</ele>
        <time>2017-01-22T15:30:33Z</time>
      </trkpt>
      <trkpt lat="45.21397" lon="5.97148">
        <ele>1880.48</ele>
        <time>2017-01-22T15:30:34Z</time>
      </trkpt>
      <trkpt lat="45.21396" lon="5.97146">
        <ele>1880.48</ele>
        <time>2017-01-22T15:30:35Z</time>
      </trkpt>
      <trkpt lat="45.21395" lon="5.97143">
        <ele>1880</ele>
        <time>2017-01-22T15:30:36Z</time>
      </trkpt>
      <trkpt lat="45.21394" lon="5.97141">
        <ele>1880</ele>
        <time>2017-01-22T15:30:37Z</time>
      </trkpt>
      <trkpt lat="45.21393" lon="5.97138">
        <ele>1880</ele>
        <time>2017-01-22T15:30:38Z</time>
      </trkpt>
      <trkpt lat="45.21393" lon="5.97136">
        <ele>1879.03</ele>
        <time>2017-01-22T15:30:39Z</time>
      </trkpt>
      <trkpt lat="45.21391" lon="5.97134">
        <ele>1879.03</ele>
        <time>2017-01-22T15:30:40Z</time>
      </trkpt>
      <trkpt lat="45.2139" lon="5.97132">
        <ele>1878.55</ele>
        <time>2017-01-22T15:30:41Z</time>
      </trkpt>
      <trkpt lat="45.21389" lon="5.9713">
        <ele>1878.55</ele>
        <time>2017-01-22T15:30:42Z</time>
      </trkpt>
      <trkpt lat="45.21388" lon="5.97127">
        <ele>1878.55</ele>
        <time>2017-01-22T15:30:43Z</time>
      </trkpt>
      <trkpt lat="45.21387" lon="5.97125">
        <ele>1878.07</ele>
        <time>2017-01-22T15:30:44Z</time>
      </trkpt>
      <trkpt lat="45.21386" lon="5.97122">
        <ele>1877.59</ele>
        <time>2017-01-22T15:30:45Z</time>
      </trkpt>
      <trkpt lat="45.21385" lon="5.97119">
        <ele>1876.63</ele>
        <time>2017-01-22T15:30:46Z</time>
      </trkpt>
      <trkpt lat="45.2138" lon="5.97107">
        <ele>1874.71</ele>
        <time>2017-01-22T15:30:49Z</time>
      </trkpt>
      <trkpt lat="45.21374" lon="5.97094">
        <ele>1873.27</ele>
        <time>2017-01-22T15:30:54Z</time>
      </trkpt>
      <trkpt lat="45.21373" lon="5.97092">
        <ele>1873.27</ele>
        <time>2017-01-22T15:30:55Z</time>
      </trkpt>
      <trkpt lat="45.21372" lon="5.9709">
        <ele>1872.79</ele>
        <time>2017-01-22T15:30:56Z</time>
      </trkpt>
      <trkpt lat="45.21359" lon="5.97058">
        <ele>1869.9</ele>
        <time>2017-01-22T15:31:10Z</time>
      </trkpt>
      <trkpt lat="45.21359" lon="5.97058">
        <ele>1869.9</ele>
        <time>2017-01-22T15:31:14Z</time>
      </trkpt>
      <trkpt lat="45.21363" lon="5.97066">
        <ele>1869.9</ele>
        <time>2017-01-22T15:31:19Z</time>
      </trkpt>
      <trkpt lat="45.21371" lon="5.97083">
        <ele>1872.79</ele>
        <time>2017-01-22T15:31:31Z</time>
      </trkpt>
      <trkpt lat="45.2138" lon="5.9711">
        <ele>1875.67</ele>
        <time>2017-01-22T15:31:51Z</time>
      </trkpt>
      <trkpt lat="45.21388" lon="5.97127">
        <ele>1878.55</ele>
        <time>2017-01-22T15:32:05Z</time>
      </trkpt>
      <trkpt lat="45.21391" lon="5.97134">
        <ele>1879.03</ele>
        <time>2017-01-22T15:32:23Z</time>
      </trkpt>
      <trkpt lat="45.21391" lon="5.97134">
        <ele>1877.59</ele>
        <time>2017-01-22T15:32:32Z</time>
      </trkpt>
      <trkpt lat="45.21391" lon="5.97136">
        <ele>1879.51</ele>
        <time>2017-01-22T15:32:46Z</time>
      </trkpt>
      <trkpt lat="45.21392" lon="5.97135">
        <ele>1879.51</ele>
        <time>2017-01-22T15:33:27Z</time>
      </trkpt>
      <trkpt lat="45.21391" lon="5.97134">
        <ele>1879.51</ele>
        <time>2017-01-22T15:34:05Z</time>
      </trkpt>
      <trkpt lat="45.21391" lon="5.97135">
        <ele>1879.51</ele>
        <time>2017-01-22T15:34:27Z</time>
      </trkpt>
      <trkpt lat="45.21391" lon="5.97134">
        <ele>1878.07</ele>
        <time>2017-01-22T15:34:36Z</time>
      </trkpt>
      <trkpt lat="45.21389" lon="5.97132">
        <ele>1878.07</ele>
        <time>2017-01-22T15:34:52Z</time>
      </trkpt>
      <trkpt lat="45.21389" lon="5.97131">
        <ele>1878.07</ele>
        <time>2017-01-22T15:35:12Z</time>
      </trkpt>
      <trkpt lat="45.21383" lon="5.97112">
        <ele>1874.71</ele>
        <time>2017-01-22T15:35:20Z</time>
      </trkpt>
      <trkpt lat="45.2138" lon="5.97105">
        <ele>1874.23</ele>
        <time>2017-01-22T15:35:22Z</time>
      </trkpt>
      <trkpt lat="45.21365" lon="5.97072">
        <ele>1870.86</ele>
        <time>2017-01-22T15:35:34Z</time>
      </trkpt>
      <trkpt lat="45.21352" lon="5.97042">
        <ele>1867.02</ele>
        <time>2017-01-22T15:35:48Z</time>
      </trkpt>
      <trkpt lat="45.21344" lon="5.97033">
        <ele>1864.13</ele>
        <time>2017-01-22T15:35:51Z</time>
      </trkpt>
      <trkpt lat="45.21332" lon="5.97021">
        <ele>1862.21</ele>
        <time>2017-01-22T15:36:03Z</time>
      </trkpt>
      <trkpt lat="45.21331" lon="5.97022">
        <ele>1862.21</ele>
        <time>2017-01-22T15:36:27Z</time>
      </trkpt>
      <trkpt lat="45.21332" lon="5.97021">
        <ele>1862.21</ele>
        <time>2017-01-22T15:36:51Z</time>
      </trkpt>
      <trkpt lat="45.21332" lon="5.97021">
        <ele>1861.73</ele>
        <time>2017-01-22T15:37:10Z</time>
      </trkpt>
      <trkpt lat="45.21332" lon="5.97021">
        <ele>1861.73</ele>
        <time>2017-01-22T15:37:36Z</time>
      </trkpt>
      <trkpt lat="45.21332" lon="5.97021">
        <ele>1861.25</ele>
        <time>2017-01-22T15:37:52Z</time>
      </trkpt>
      <trkpt lat="45.21332" lon="5.97022">
        <ele>1861.25</ele>
        <time>2017-01-22T15:38:22Z</time>
      </trkpt>
      <trkpt lat="45.21332" lon="5.97022">
        <ele>1860.77</ele>
        <time>2017-01-22T15:39:02Z</time>
      </trkpt>
      <trkpt lat="45.21332" lon="5.97021">
        <ele>1862.21</ele>
        <time>2017-01-22T15:39:27Z</time>
      </trkpt>
      <trkpt lat="45.21332" lon="5.97021">
        <ele>1862.21</ele>
        <time>2017-01-22T15:39:28Z</time>
      </trkpt>
      <trkpt lat="45.21332" lon="5.97021">
        <ele>1860.29</ele>
        <time>2017-01-22T15:39:31Z</time>
      </trkpt>
      <trkpt lat="45.21331" lon="5.97021">
        <ele>1860.29</ele>
        <time>2017-01-22T15:40:10Z</time>
      </trkpt>
      <trkpt lat="45.21331" lon="5.9702">
        <ele>1860.77</ele>
        <time>2017-01-22T15:40:48Z</time>
      </trkpt>
      <trkpt lat="45.21331" lon="5.97021">
        <ele>1860.77</ele>
        <time>2017-01-22T15:41:28Z</time>
      </trkpt>
      <trkpt lat="45.21331" lon="5.97021">
        <ele>1860.77</ele>
        <time>2017-01-22T15:42:12Z</time>
      </trkpt>
      <trkpt lat="45.21331" lon="5.97021">
        <ele>1860.77</ele>
        <time>2017-01-22T15:42:50Z</time>
      </trkpt>
      <trkpt lat="45.21332" lon="5.97022">
        <ele>1861.73</ele>
        <time>2017-01-22T15:43:19Z</time>
      </trkpt>
      <trkpt lat="45.21333" lon="5.97021">
        <ele>1862.69</ele>
        <time>2017-01-22T15:43:44Z</time>
      </trkpt>
      <trkpt lat="45.21332" lon="5.97021">
        <ele>1862.69</ele>
        <time>2017-01-22T15:44:06Z</time>
      </trkpt>
      <trkpt lat="45.21332" lon="5.97021">
        <ele>1862.69</ele>
        <time>2017-01-22T15:44:23Z</time>
      </trkpt>
      <trkpt lat="45.21333" lon="5.97022">
        <ele>1863.17</ele>
        <time>2017-01-22T15:44:43Z</time>
      </trkpt>
      <trkpt lat="45.21334" lon="5.97024">
        <ele>1863.17</ele>
        <time>2017-01-22T15:45:03Z</time>
      </trkpt>
      <trkpt lat="45.21337" lon="5.97028">
        <ele>1863.65</ele>
        <time>2017-01-22T15:45:22Z</time>
      </trkpt>
      <trkpt lat="45.21336" lon="5.97027">
        <ele>1863.65</ele>
        <time>2017-01-22T15:45:46Z</time>
      </trkpt>
      <trkpt lat="45.21336" lon="5.97027">
        <ele>1864.13</ele>
        <time>2017-01-22T15:46:06Z</time>
      </trkpt>
      <trkpt lat="45.21336" lon="5.97027">
        <ele>1864.13</ele>
        <time>2017-01-22T15:46:29Z</time>
      </trkpt>
      <trkpt lat="45.21336" lon="5.97024">
        <ele>1864.61</ele>
        <time>2017-01-22T15:46:58Z</time>
      </trkpt>
      <trkpt lat="45.21336" lon="5.97023">
        <ele>1864.61</ele>
        <time>2017-01-22T15:47:06Z</time>
      </trkpt>
      <trkpt lat="45.21335" lon="5.97021">
        <ele>1864.61</ele>
        <time>2017-01-22T15:47:07Z</time>
      </trkpt>
      <trkpt lat="45.21333" lon="5.97019">
        <ele>1863.17</ele>
        <time>2017-01-22T15:47:08Z</time>
      </trkpt>
      <trkpt lat="45.2133" lon="5.97017">
        <ele>1861.73</ele>
        <time>2017-01-22T15:47:09Z</time>
      </trkpt>
      <trkpt lat="45.21327" lon="5.97015">
        <ele>1861.25</ele>
        <time>2017-01-22T15:47:10Z</time>
      </trkpt>
      <trkpt lat="45.21322" lon="5.9701">
        <ele>1860.77</ele>
        <time>2017-01-22T15:47:12Z</time>
      </trkpt>
      <trkpt lat="45.21322" lon="5.97005">
        <ele>1857.89</ele>
        <time>2017-01-22T15:47:13Z</time>
      </trkpt>
      <trkpt lat="45.21322" lon="5.96999">
        <ele>1855.96</ele>
        <time>2017-01-22T15:47:14Z</time>
      </trkpt>
      <trkpt lat="45.2132" lon="5.96994">
        <ele>1854.04</ele>
        <time>2017-01-22T15:47:15Z</time>
      </trkpt>
      <trkpt lat="45.21319" lon="5.96989">
        <ele>1852.12</ele>
        <time>2017-01-22T15:47:16Z</time>
      </trkpt>
      <trkpt lat="45.21317" lon="5.96984">
        <ele>1849.71</ele>
        <time>2017-01-22T15:47:17Z</time>
      </trkpt>
      <trkpt lat="45.21315" lon="5.96979">
        <ele>1849.23</ele>
        <time>2017-01-22T15:47:18Z</time>
      </trkpt>
      <trkpt lat="45.21311" lon="5.96975">
        <ele>1846.35</ele>
        <time>2017-01-22T15:47:19Z</time>
      </trkpt>
      <trkpt lat="45.21308" lon="5.96972">
        <ele>1844.43</ele>
        <time>2017-01-22T15:47:20Z</time>
      </trkpt>
      <trkpt lat="45.21306" lon="5.9697">
        <ele>1844.43</ele>
        <time>2017-01-22T15:47:21Z</time>
      </trkpt>
      <trkpt lat="45.21306" lon="5.96973">
        <ele>1845.87</ele>
        <time>2017-01-22T15:47:42Z</time>
      </trkpt>
      <trkpt lat="45.21305" lon="5.9697">
        <ele>1845.87</ele>
        <time>2017-01-22T15:48:11Z</time>
      </trkpt>
      <trkpt lat="45.21303" lon="5.96967">
        <ele>1844.43</ele>
        <time>2017-01-22T15:48:13Z</time>
      </trkpt>
      <trkpt lat="45.21304" lon="5.96963">
        <ele>1842.98</ele>
        <time>2017-01-22T15:48:14Z</time>
      </trkpt>
      <trkpt lat="45.21303" lon="5.96958">
        <ele>1840.1</ele>
        <time>2017-01-22T15:48:15Z</time>
      </trkpt>
      <trkpt lat="45.213" lon="5.96955">
        <ele>1837.22</ele>
        <time>2017-01-22T15:48:16Z</time>
      </trkpt>
      <trkpt lat="45.21297" lon="5.96952">
        <ele>1837.22</ele>
        <time>2017-01-22T15:48:17Z</time>
      </trkpt>
      <trkpt lat="45.21285" lon="5.96938">
        <ele>1834.33</ele>
        <time>2017-01-22T15:48:22Z</time>
      </trkpt>
      <trkpt lat="45.21285" lon="5.96933">
        <ele>1831.45</ele>
        <time>2017-01-22T15:48:23Z</time>
      </trkpt>
      <trkpt lat="45.21284" lon="5.96927">
        <ele>1828.56</ele>
        <time>2017-01-22T15:48:24Z</time>
      </trkpt>
      <trkpt lat="45.21282" lon="5.96922">
        <ele>1825.2</ele>
        <time>2017-01-22T15:48:25Z</time>
      </trkpt>
      <trkpt lat="45.21281" lon="5.96918">
        <ele>1825.2</ele>
        <time>2017-01-22T15:48:26Z</time>
      </trkpt>
      <trkpt lat="45.21281" lon="5.96915">
        <ele>1823.28</ele>
        <time>2017-01-22T15:48:27Z</time>
      </trkpt>
      <trkpt lat="45.21284" lon="5.96914">
        <ele>1821.84</ele>
        <time>2017-01-22T15:48:29Z</time>
      </trkpt>
      <trkpt lat="45.21286" lon="5.96916">
        <ele>1821.84</ele>
        <time>2017-01-22T15:48:48Z</time>
      </trkpt>
      <trkpt lat="45.21289" lon="5.96913">
        <ele>1821.84</ele>
        <time>2017-01-22T15:49:23Z</time>
      </trkpt>
      <trkpt lat="45.21287" lon="5.96915">
        <ele>1821.84</ele>
        <time>2017-01-22T15:49:55Z</time>
      </trkpt>
      <trkpt lat="45.21288" lon="5.96913">
        <ele>1821.35</ele>
        <time>2017-01-22T15:50:17Z</time>
      </trkpt>
      <trkpt lat="45.21289" lon="5.96913">
        <ele>1821.35</ele>
        <time>2017-01-22T15:50:22Z</time>
      </trkpt>
      <trkpt lat="45.21292" lon="5.96912">
        <ele>1820.87</ele>
        <time>2017-01-22T15:50:23Z</time>
      </trkpt>
      <trkpt lat="45.21296" lon="5.96911">
        <ele>1819.43</ele>
        <time>2017-01-22T15:50:24Z</time>
      </trkpt>
      <trkpt lat="45.21301" lon="5.96911">
        <ele>1817.99</ele>
        <time>2017-01-22T15:50:25Z</time>
      </trkpt>
      <trkpt lat="45.21307" lon="5.96911">
        <ele>1816.55</ele>
        <time>2017-01-22T15:50:26Z</time>
      </trkpt>
      <trkpt lat="45.21319" lon="5.96908">
        <ele>1813.18</ele>
        <time>2017-01-22T15:50:29Z</time>
      </trkpt>
      <trkpt lat="45.21322" lon="5.96906">
        <ele>1809.82</ele>
        <time>2017-01-22T15:50:30Z</time>
      </trkpt>
      <trkpt lat="45.21324" lon="5.96905">
        <ele>1807.42</ele>
        <time>2017-01-22T15:50:31Z</time>
      </trkpt>
      <trkpt lat="45.21326" lon="5.96906">
        <ele>1807.42</ele>
        <time>2017-01-22T15:50:32Z</time>
      </trkpt>
      <trkpt lat="45.21321" lon="5.96905">
        <ele>1807.42</ele>
        <time>2017-01-22T15:50:50Z</time>
      </trkpt>
      <trkpt lat="45.21324" lon="5.96903">
        <ele>1806.94</ele>
        <time>2017-01-22T15:51:09Z</time>
      </trkpt>
      <trkpt lat="45.21327" lon="5.96901">
        <ele>1806.45</ele>
        <time>2017-01-22T15:51:10Z</time>
      </trkpt>
      <trkpt lat="45.21331" lon="5.96899">
        <ele>1804.53</ele>
        <time>2017-01-22T15:51:11Z</time>
      </trkpt>
      <trkpt lat="45.21335" lon="5.96897">
        <ele>1802.13</ele>
        <time>2017-01-22T15:51:12Z</time>
      </trkpt>
      <trkpt lat="45.21338" lon="5.96896">
        <ele>1801.17</ele>
        <time>2017-01-22T15:51:13Z</time>
      </trkpt>
      <trkpt lat="45.21348" lon="5.96891">
        <ele>1797.8</ele>
        <time>2017-01-22T15:51:16Z</time>
      </trkpt>
      <trkpt lat="45.21353" lon="5.96889">
        <ele>1794.44</ele>
        <time>2017-01-22T15:51:17Z</time>
      </trkpt>
      <trkpt lat="45.21358" lon="5.96888">
        <ele>1791.07</ele>
        <time>2017-01-22T15:51:18Z</time>
      </trkpt>
      <trkpt lat="45.21361" lon="5.96886">
        <ele>1791.07</ele>
        <time>2017-01-22T15:51:19Z</time>
      </trkpt>
      <trkpt lat="45.21363" lon="5.96884">
        <ele>1789.63</ele>
        <time>2017-01-22T15:51:20Z</time>
      </trkpt>
      <trkpt lat="45.21365" lon="5.96884">
        <ele>1788.19</ele>
        <time>2017-01-22T15:51:22Z</time>
      </trkpt>
      <trkpt lat="45.21365" lon="5.96887">
        <ele>1787.71</ele>
        <time>2017-01-22T15:51:38Z</time>
      </trkpt>
      <trkpt lat="45.21364" lon="5.96888">
        <ele>1787.23</ele>
        <time>2017-01-22T15:51:59Z</time>
      </trkpt>
      <trkpt lat="45.21365" lon="5.96888">
        <ele>1786.75</ele>
        <time>2017-01-22T15:52:25Z</time>
      </trkpt>
      <trkpt lat="45.21365" lon="5.96888">
        <ele>1786.75</ele>
        <time>2017-01-22T15:52:56Z</time>
      </trkpt>
      <trkpt lat="45.21371" lon="5.96888">
        <ele>1785.31</ele>
        <time>2017-01-22T15:53:20Z</time>
      </trkpt>
      <trkpt lat="45.21374" lon="5.96888">
        <ele>1784.82</ele>
        <time>2017-01-22T15:53:36Z</time>
      </trkpt>
      <trkpt lat="45.21376" lon="5.96888">
        <ele>1783.86</ele>
        <time>2017-01-22T15:53:37Z</time>
      </trkpt>
      <trkpt lat="45.21377" lon="5.96887">
        <ele>1783.86</ele>
        <time>2017-01-22T15:53:38Z</time>
      </trkpt>
      <trkpt lat="45.21376" lon="5.96888">
        <ele>1783.38</ele>
        <time>2017-01-22T15:53:54Z</time>
      </trkpt>
      <trkpt lat="45.21378" lon="5.96888">
        <ele>1783.38</ele>
        <time>2017-01-22T15:54:03Z</time>
      </trkpt>
      <trkpt lat="45.2138" lon="5.96888">
        <ele>1782.9</ele>
        <time>2017-01-22T15:54:04Z</time>
      </trkpt>
      <trkpt lat="45.21381" lon="5.96888">
        <ele>1781.46</ele>
        <time>2017-01-22T15:54:21Z</time>
      </trkpt>
      <trkpt lat="45.21379" lon="5.96888">
        <ele>1781.46</ele>
        <time>2017-01-22T15:54:50Z</time>
      </trkpt>
      <trkpt lat="45.21381" lon="5.96887">
        <ele>1781.46</ele>
        <time>2017-01-22T15:55:00Z</time>
      </trkpt>
      <trkpt lat="45.21382" lon="5.96887">
        <ele>1781.46</ele>
        <time>2017-01-22T15:55:01Z</time>
      </trkpt>
      <trkpt lat="45.21387" lon="5.96887">
        <ele>1779.06</ele>
        <time>2017-01-22T15:55:12Z</time>
      </trkpt>
      <trkpt lat="45.21386" lon="5.96886">
        <ele>1778.58</ele>
        <time>2017-01-22T15:55:36Z</time>
      </trkpt>
      <trkpt lat="45.21387" lon="5.96885">
        <ele>1778.1</ele>
        <time>2017-01-22T15:56:06Z</time>
      </trkpt>
      <trkpt lat="45.21391" lon="5.96884">
        <ele>1777.13</ele>
        <time>2017-01-22T15:56:16Z</time>
      </trkpt>
      <trkpt lat="45.21392" lon="5.96883">
        <ele>1775.21</ele>
        <time>2017-01-22T15:56:17Z</time>
      </trkpt>
      <trkpt lat="45.21394" lon="5.96883">
        <ele>1775.21</ele>
        <time>2017-01-22T15:56:18Z</time>
      </trkpt>
      <trkpt lat="45.21398" lon="5.96886">
        <ele>1773.77</ele>
        <time>2017-01-22T15:56:32Z</time>
      </trkpt>
      <trkpt lat="45.21405" lon="5.96885">
        <ele>1770.41</ele>
        <time>2017-01-22T15:56:57Z</time>
      </trkpt>
      <trkpt lat="45.21408" lon="5.96887">
        <ele>1769.44</ele>
        <time>2017-01-22T15:57:10Z</time>
      </trkpt>
      <trkpt lat="45.21412" lon="5.96886">
        <ele>1767.04</ele>
        <time>2017-01-22T15:57:33Z</time>
      </trkpt>
      <trkpt lat="45.21413" lon="5.96885">
        <ele>1766.08</ele>
        <time>2017-01-22T15:57:35Z</time>
      </trkpt>
      <trkpt lat="45.21415" lon="5.96882">
        <ele>1765.6</ele>
        <time>2017-01-22T15:57:47Z</time>
      </trkpt>
      <trkpt lat="45.21416" lon="5.96882">
        <ele>1764.16</ele>
        <time>2017-01-22T15:57:48Z</time>
      </trkpt>
      <trkpt lat="45.21417" lon="5.96882">
        <ele>1763.68</ele>
        <time>2017-01-22T15:57:50Z</time>
      </trkpt>
      <trkpt lat="45.21424" lon="5.9688">
        <ele>1760.79</ele>
        <time>2017-01-22T15:58:15Z</time>
      </trkpt>
      <trkpt lat="45.21426" lon="5.9688">
        <ele>1759.83</ele>
        <time>2017-01-22T15:58:16Z</time>
      </trkpt>
      <trkpt lat="45.21428" lon="5.96879">
        <ele>1757.91</ele>
        <time>2017-01-22T15:58:18Z</time>
      </trkpt>
      <trkpt lat="45.2143" lon="5.96878">
        <ele>1756.47</ele>
        <time>2017-01-22T15:58:34Z</time>
      </trkpt>
      <trkpt lat="45.21431" lon="5.96879">
        <ele>1756.47</ele>
        <time>2017-01-22T15:58:38Z</time>
      </trkpt>
      <trkpt lat="45.21434" lon="5.96878">
        <ele>1755.5</ele>
        <time>2017-01-22T15:58:42Z</time>
      </trkpt>
      <trkpt lat="45.21438" lon="5.96878">
        <ele>1753.1</ele>
        <time>2017-01-22T15:58:53Z</time>
      </trkpt>
      <trkpt lat="45.21441" lon="5.96876">
        <ele>1751.18</ele>
        <time>2017-01-22T15:59:11Z</time>
      </trkpt>
      <trkpt lat="45.21443" lon="5.96876">
        <ele>1750.22</ele>
        <time>2017-01-22T15:59:12Z</time>
      </trkpt>
      <trkpt lat="45.21445" lon="5.96877">
        <ele>1749.26</ele>
        <time>2017-01-22T15:59:13Z</time>
      </trkpt>
      <trkpt lat="45.21445" lon="5.96878">
        <ele>1749.26</ele>
        <time>2017-01-22T15:59:14Z</time>
      </trkpt>
      <trkpt lat="45.21444" lon="5.96878">
        <ele>1748.78</ele>
        <time>2017-01-22T15:59:42Z</time>
      </trkpt>
      <trkpt lat="45.21447" lon="5.96878">
        <ele>1748.78</ele>
        <time>2017-01-22T15:59:44Z</time>
      </trkpt>
      <trkpt lat="45.21449" lon="5.96877">
        <ele>1747.81</ele>
        <time>2017-01-22T15:59:45Z</time>
      </trkpt>
      <trkpt lat="45.21455" lon="5.96875">
        <ele>1746.37</ele>
        <time>2017-01-22T15:59:52Z</time>
      </trkpt>
      <trkpt lat="45.21457" lon="5.96876">
        <ele>1745.41</ele>
        <time>2017-01-22T15:59:54Z</time>
      </trkpt>
      <trkpt lat="45.21454" lon="5.96881">
        <ele>1744.45</ele>
        <time>2017-01-22T16:00:20Z</time>
      </trkpt>
      <trkpt lat="45.21455" lon="5.96881">
        <ele>1744.45</ele>
        <time>2017-01-22T16:00:53Z</time>
      </trkpt>
      <trkpt lat="45.21462" lon="5.96884">
        <ele>1743.01</ele>
        <time>2017-01-22T16:01:07Z</time>
      </trkpt>
      <trkpt lat="45.21464" lon="5.96885">
        <ele>1742.53</ele>
        <time>2017-01-22T16:01:37Z</time>
      </trkpt>
      <trkpt lat="45.21478" lon="5.9689">
        <ele>1738.2</ele>
        <time>2017-01-22T16:01:48Z</time>
      </trkpt>
      <trkpt lat="45.21484" lon="5.96893">
        <ele>1735.8</ele>
        <time>2017-01-22T16:01:49Z</time>
      </trkpt>
      <trkpt lat="45.21489" lon="5.96897">
        <ele>1734.84</ele>
        <time>2017-01-22T16:01:50Z</time>
      </trkpt>
      <trkpt lat="45.21492" lon="5.969">
        <ele>1734.36</ele>
        <time>2017-01-22T16:01:51Z</time>
      </trkpt>
      <trkpt lat="45.21496" lon="5.96904">
        <ele>1733.88</ele>
        <time>2017-01-22T16:01:52Z</time>
      </trkpt>
      <trkpt lat="45.2151" lon="5.96913">
        <ele>1730.99</ele>
        <time>2017-01-22T16:01:55Z</time>
      </trkpt>
      <trkpt lat="45.21515" lon="5.96913">
        <ele>1731.47</ele>
        <time>2017-01-22T16:02:05Z</time>
      </trkpt>
      <trkpt lat="45.21515" lon="5.96914">
        <ele>1731.47</ele>
        <time>2017-01-22T16:02:24Z</time>
      </trkpt>
      <trkpt lat="45.21518" lon="5.96913">
        <ele>1731.47</ele>
        <time>2017-01-22T16:02:25Z</time>
      </trkpt>
      <trkpt lat="45.21521" lon="5.96912">
        <ele>1730.99</ele>
        <time>2017-01-22T16:02:26Z</time>
      </trkpt>
      <trkpt lat="45.21523" lon="5.96908">
        <ele>1729.07</ele>
        <time>2017-01-22T16:02:27Z</time>
      </trkpt>
      <trkpt lat="45.21525" lon="5.96905">
        <ele>1726.18</ele>
        <time>2017-01-22T16:02:28Z</time>
      </trkpt>
      <trkpt lat="45.21529" lon="5.96902">
        <ele>1724.74</ele>
        <time>2017-01-22T16:02:29Z</time>
      </trkpt>
      <trkpt lat="45.2153" lon="5.96899">
        <ele>1720.42</ele>
        <time>2017-01-22T16:02:30Z</time>
      </trkpt>
      <trkpt lat="45.21532" lon="5.96888">
        <ele>1717.53</ele>
        <time>2017-01-22T16:02:32Z</time>
      </trkpt>
      <trkpt lat="45.21537" lon="5.96885">
        <ele>1713.69</ele>
        <time>2017-01-22T16:02:33Z</time>
      </trkpt>
      <trkpt lat="45.21542" lon="5.96885">
        <ele>1711.28</ele>
        <time>2017-01-22T16:02:34Z</time>
      </trkpt>
      <trkpt lat="45.21546" lon="5.96885">
        <ele>1709.84</ele>
        <time>2017-01-22T16:02:35Z</time>
      </trkpt>
      <trkpt lat="45.21555" lon="5.96884">
        <ele>1706.96</ele>
        <time>2017-01-22T16:02:36Z</time>
      </trkpt>
      <trkpt lat="45.21557" lon="5.9688">
        <ele>1706</ele>
        <time>2017-01-22T16:02:43Z</time>
      </trkpt>
      <trkpt lat="45.21551" lon="5.96879">
        <ele>1706</ele>
        <time>2017-01-22T16:03:14Z</time>
      </trkpt>
      <trkpt lat="45.21551" lon="5.9688">
        <ele>1706</ele>
        <time>2017-01-22T16:03:43Z</time>
      </trkpt>
      <trkpt lat="45.21565" lon="5.96884">
        <ele>1703.59</ele>
        <time>2017-01-22T16:03:56Z</time>
      </trkpt>
      <trkpt lat="45.21576" lon="5.96889">
        <ele>1700.23</ele>
        <time>2017-01-22T16:04:01Z</time>
      </trkpt>
      <trkpt lat="45.21582" lon="5.96885">
        <ele>1696.86</ele>
        <time>2017-01-22T16:04:03Z</time>
      </trkpt>
      <trkpt lat="45.21588" lon="5.96881">
        <ele>1692.06</ele>
        <time>2017-01-22T16:04:04Z</time>
      </trkpt>
      <trkpt lat="45.21594" lon="5.9688">
        <ele>1688.21</ele>
        <time>2017-01-22T16:04:05Z</time>
      </trkpt>
      <trkpt lat="45.21601" lon="5.96882">
        <ele>1684.85</ele>
        <time>2017-01-22T16:04:06Z</time>
      </trkpt>
      <trkpt lat="45.21605" lon="5.96886">
        <ele>1684.37</ele>
        <time>2017-01-22T16:04:07Z</time>
      </trkpt>
      <trkpt lat="45.21607" lon="5.96887">
        <ele>1686.29</ele>
        <time>2017-01-22T16:04:08Z</time>
      </trkpt>
      <trkpt lat="45.21609" lon="5.96885">
        <ele>1684.85</ele>
        <time>2017-01-22T16:04:20Z</time>
      </trkpt>
      <trkpt lat="45.21613" lon="5.96876">
        <ele>1684.85</ele>
        <time>2017-01-22T16:04:46Z</time>
      </trkpt>
      <trkpt lat="45.21608" lon="5.96883">
        <ele>1684.85</ele>
        <time>2017-01-22T16:05:19Z</time>
      </trkpt>
      <trkpt lat="45.21606" lon="5.9688">
        <ele>1684.85</ele>
        <time>2017-01-22T16:05:56Z</time>
      </trkpt>
      <trkpt lat="45.21608" lon="5.96873">
        <ele>1684.85</ele>
        <time>2017-01-22T16:06:18Z</time>
      </trkpt>
      <trkpt lat="45.2161" lon="5.96874">
        <ele>1683.89</ele>
        <time>2017-01-22T16:06:19Z</time>
      </trkpt>
      <trkpt lat="45.21612" lon="5.96877">
        <ele>1682.93</ele>
        <time>2017-01-22T16:06:20Z</time>
      </trkpt>
      <trkpt lat="45.21615" lon="5.96878">
        <ele>1682.93</ele>
        <time>2017-01-22T16:06:21Z</time>
      </trkpt>
      <trkpt lat="45.21617" lon="5.96878">
        <ele>1681.96</ele>
        <time>2017-01-22T16:06:22Z</time>
      </trkpt>
      <trkpt lat="45.21622" lon="5.96874">
        <ele>1676.68</ele>
        <time>2017-01-22T16:06:25Z</time>
      </trkpt>
      <trkpt lat="45.21625" lon="5.96874">
        <ele>1675.23</ele>
        <time>2017-01-22T16:06:26Z</time>
      </trkpt>
      <trkpt lat="45.21627" lon="5.96876">
        <ele>1674.27</ele>
        <time>2017-01-22T16:06:27Z</time>
      </trkpt>
      <trkpt lat="45.21628" lon="5.96877">
        <ele>1674.27</ele>
        <time>2017-01-22T16:06:28Z</time>
      </trkpt>
      <trkpt lat="45.2163" lon="5.96877">
        <ele>1674.75</ele>
        <time>2017-01-22T16:06:30Z</time>
      </trkpt>
      <trkpt lat="45.21632" lon="5.96877">
        <ele>1673.31</ele>
        <time>2017-01-22T16:06:31Z</time>
      </trkpt>
      <trkpt lat="45.21634" lon="5.96878">
        <ele>1672.35</ele>
        <time>2017-01-22T16:06:41Z</time>
      </trkpt>
      <trkpt lat="45.21639" lon="5.96873">
        <ele>1672.35</ele>
        <time>2017-01-22T16:07:14Z</time>
      </trkpt>
      <trkpt lat="45.21642" lon="5.96868">
        <ele>1669.47</ele>
        <time>2017-01-22T16:07:20Z</time>
      </trkpt>
      <trkpt lat="45.21644" lon="5.96868">
        <ele>1668.99</ele>
        <time>2017-01-22T16:07:21Z</time>
      </trkpt>
      <trkpt lat="45.21646" lon="5.96868">
        <ele>1668.99</ele>
        <time>2017-01-22T16:07:22Z</time>
      </trkpt>
      <trkpt lat="45.21649" lon="5.96868">
        <ele>1668.99</ele>
        <time>2017-01-22T16:07:23Z</time>
      </trkpt>
      <trkpt lat="45.21654" lon="5.96867">
        <ele>1667.06</ele>
        <time>2017-01-22T16:07:24Z</time>
      </trkpt>
      <trkpt lat="45.21657" lon="5.96867">
        <ele>1665.62</ele>
        <time>2017-01-22T16:07:25Z</time>
      </trkpt>
      <trkpt lat="45.2166" lon="5.96869">
        <ele>1664.18</ele>
        <time>2017-01-22T16:07:26Z</time>
      </trkpt>
      <trkpt lat="45.21662" lon="5.9687">
        <ele>1664.18</ele>
        <time>2017-01-22T16:07:27Z</time>
      </trkpt>
      <trkpt lat="45.21664" lon="5.9687">
        <ele>1664.18</ele>
        <time>2017-01-22T16:07:28Z</time>
      </trkpt>
      <trkpt lat="45.21666" lon="5.96869">
        <ele>1662.74</ele>
        <time>2017-01-22T16:07:29Z</time>
      </trkpt>
      <trkpt lat="45.21668" lon="5.96869">
        <ele>1662.26</ele>
        <time>2017-01-22T16:07:30Z</time>
      </trkpt>
      <trkpt lat="45.2167" lon="5.9687">
        <ele>1662.26</ele>
        <time>2017-01-22T16:07:31Z</time>
      </trkpt>
      <trkpt lat="45.21674" lon="5.96871">
        <ele>1661.3</ele>
        <time>2017-01-22T16:07:33Z</time>
      </trkpt>
      <trkpt lat="45.21676" lon="5.96871">
        <ele>1660.33</ele>
        <time>2017-01-22T16:07:34Z</time>
      </trkpt>
      <trkpt lat="45.21678" lon="5.96871">
        <ele>1660.33</ele>
        <time>2017-01-22T16:07:35Z</time>
      </trkpt>
      <trkpt lat="45.2168" lon="5.9687">
        <ele>1660.33</ele>
        <time>2017-01-22T16:07:36Z</time>
      </trkpt>
      <trkpt lat="45.21681" lon="5.9687">
        <ele>1660.33</ele>
        <time>2017-01-22T16:07:37Z</time>
      </trkpt>
      <trkpt lat="45.21684" lon="5.9687">
        <ele>1659.37</ele>
        <time>2017-01-22T16:07:38Z</time>
      </trkpt>
      <trkpt lat="45.21686" lon="5.96869">
        <ele>1657.93</ele>
        <time>2017-01-22T16:07:39Z</time>
      </trkpt>
      <trkpt lat="45.21688" lon="5.9687">
        <ele>1656.97</ele>
        <time>2017-01-22T16:07:40Z</time>
      </trkpt>
      <trkpt lat="45.21689" lon="5.9687">
        <ele>1656.97</ele>
        <time>2017-01-22T16:07:41Z</time>
      </trkpt>
      <trkpt lat="45.21701" lon="5.96873">
        <ele>1657.45</ele>
        <time>2017-01-22T16:08:00Z</time>
      </trkpt>
      <trkpt lat="45.21703" lon="5.96875">
        <ele>1657.45</ele>
        <time>2017-01-22T16:08:05Z</time>
      </trkpt>
      <trkpt lat="45.21705" lon="5.96876">
        <ele>1656.49</ele>
        <time>2017-01-22T16:08:06Z</time>
      </trkpt>
      <trkpt lat="45.21709" lon="5.96876">
        <ele>1655.53</ele>
        <time>2017-01-22T16:08:07Z</time>
      </trkpt>
      <trkpt lat="45.21712" lon="5.96874">
        <ele>1653.12</ele>
        <time>2017-01-22T16:08:08Z</time>
      </trkpt>
      <trkpt lat="45.21714" lon="5.96872">
        <ele>1652.16</ele>
        <time>2017-01-22T16:08:09Z</time>
      </trkpt>
      <trkpt lat="45.21716" lon="5.96872">
        <ele>1651.2</ele>
        <time>2017-01-22T16:08:10Z</time>
      </trkpt>
      <trkpt lat="45.21718" lon="5.96872">
        <ele>1650.24</ele>
        <time>2017-01-22T16:08:12Z</time>
      </trkpt>
      <trkpt lat="45.2172" lon="5.96869">
        <ele>1647.84</ele>
        <time>2017-01-22T16:08:32Z</time>
      </trkpt>
      <trkpt lat="45.21721" lon="5.96866">
        <ele>1647.36</ele>
        <time>2017-01-22T16:08:48Z</time>
      </trkpt>
      <trkpt lat="45.21723" lon="5.96863">
        <ele>1647.36</ele>
        <time>2017-01-22T16:08:52Z</time>
      </trkpt>
      <trkpt lat="45.21725" lon="5.96862">
        <ele>1647.36</ele>
        <time>2017-01-22T16:08:53Z</time>
      </trkpt>
      <trkpt lat="45.21727" lon="5.96861">
        <ele>1647.36</ele>
        <time>2017-01-22T16:08:54Z</time>
      </trkpt>
      <trkpt lat="45.21732" lon="5.96854">
        <ele>1644.95</ele>
        <time>2017-01-22T16:09:11Z</time>
      </trkpt>
      <trkpt lat="45.21734" lon="5.96853">
        <ele>1644.95</ele>
        <time>2017-01-22T16:09:16Z</time>
      </trkpt>
      <trkpt lat="45.21736" lon="5.96853">
        <ele>1643.99</ele>
        <time>2017-01-22T16:09:17Z</time>
      </trkpt>
      <trkpt lat="45.21738" lon="5.96853">
        <ele>1643.03</ele>
        <time>2017-01-22T16:09:18Z</time>
      </trkpt>
      <trkpt lat="45.21741" lon="5.96854">
        <ele>1640.63</ele>
        <time>2017-01-22T16:09:19Z</time>
      </trkpt>
      <trkpt lat="45.21745" lon="5.96855">
        <ele>1640.63</ele>
        <time>2017-01-22T16:09:20Z</time>
      </trkpt>
      <trkpt lat="45.2175" lon="5.96856">
        <ele>1639.67</ele>
        <time>2017-01-22T16:09:21Z</time>
      </trkpt>
      <trkpt lat="45.21756" lon="5.96857">
        <ele>1637.26</ele>
        <time>2017-01-22T16:09:22Z</time>
      </trkpt>
      <trkpt lat="45.21763" lon="5.96857">
        <ele>1635.82</ele>
        <time>2017-01-22T16:09:23Z</time>
      </trkpt>
      <trkpt lat="45.21784" lon="5.9686">
        <ele>1632.94</ele>
        <time>2017-01-22T16:09:26Z</time>
      </trkpt>
      <trkpt lat="45.21802" lon="5.96862">
        <ele>1635.82</ele>
        <time>2017-01-22T16:09:30Z</time>
      </trkpt>
      <trkpt lat="45.21812" lon="5.96861">
        <ele>1636.78</ele>
        <time>2017-01-22T16:09:45Z</time>
      </trkpt>
      <trkpt lat="45.21822" lon="5.96862">
        <ele>1636.78</ele>
        <time>2017-01-22T16:10:06Z</time>
      </trkpt>
      <trkpt lat="45.21824" lon="5.96864">
        <ele>1636.78</ele>
        <time>2017-01-22T16:10:20Z</time>
      </trkpt>
      <trkpt lat="45.2183" lon="5.96864">
        <ele>1637.26</ele>
        <time>2017-01-22T16:10:40Z</time>
      </trkpt>
      <trkpt lat="45.21842" lon="5.96863">
        <ele>1639.19</ele>
        <time>2017-01-22T16:11:04Z</time>
      </trkpt>
      <trkpt lat="45.21846" lon="5.96862">
        <ele>1639.67</ele>
        <time>2017-01-22T16:11:22Z</time>
      </trkpt>
      <trkpt lat="45.21848" lon="5.96865">
        <ele>1639.67</ele>
        <time>2017-01-22T16:11:49Z</time>
      </trkpt>
      <trkpt lat="45.2185" lon="5.96865">
        <ele>1640.15</ele>
        <time>2017-01-22T16:12:11Z</time>
      </trkpt>
      <trkpt lat="45.2185" lon="5.96866">
        <ele>1640.15</ele>
        <time>2017-01-22T16:12:34Z</time>
      </trkpt>
      <trkpt lat="45.2186" lon="5.96857">
        <ele>1640.15</ele>
        <time>2017-01-22T16:13:11Z</time>
      </trkpt>
      <trkpt lat="45.2187" lon="5.96857">
        <ele>1641.11</ele>
        <time>2017-01-22T16:13:31Z</time>
      </trkpt>
      <trkpt lat="45.21883" lon="5.96853">
        <ele>1641.11</ele>
        <time>2017-01-22T16:13:50Z</time>
      </trkpt>
      <trkpt lat="45.21894" lon="5.96844">
        <ele>1641.11</ele>
        <time>2017-01-22T16:14:10Z</time>
      </trkpt>
      <trkpt lat="45.21896" lon="5.96844">
        <ele>1641.11</ele>
        <time>2017-01-22T16:14:32Z</time>
      </trkpt>
      <trkpt lat="45.21897" lon="5.96843">
        <ele>1641.11</ele>
        <time>2017-01-22T16:14:36Z</time>
      </trkpt>
      <trkpt lat="45.21899" lon="5.96842">
        <ele>1641.11</ele>
        <time>2017-01-22T16:14:37Z</time>
      </trkpt>
      <trkpt lat="45.219" lon="5.96841">
        <ele>1639.67</ele>
        <time>2017-01-22T16:14:38Z</time>
      </trkpt>
      <trkpt lat="45.21902" lon="5.9684">
        <ele>1639.19</ele>
        <time>2017-01-22T16:14:39Z</time>
      </trkpt>
      <trkpt lat="45.21903" lon="5.96839">
        <ele>1638.7</ele>
        <time>2017-01-22T16:14:40Z</time>
      </trkpt>
      <trkpt lat="45.21937" lon="5.96818">
        <ele>1638.22</ele>
        <time>2017-01-22T16:14:55Z</time>
      </trkpt>
      <trkpt lat="45.2196" lon="5.96804">
        <ele>1636.3</ele>
        <time>2017-01-22T16:15:05Z</time>
      </trkpt>
      <trkpt lat="45.21964" lon="5.96801">
        <ele>1635.34</ele>
        <time>2017-01-22T16:15:06Z</time>
      </trkpt>
      <trkpt lat="45.21968" lon="5.96798">
        <ele>1635.34</ele>
        <time>2017-01-22T16:15:07Z</time>
      </trkpt>
      <trkpt lat="45.21971" lon="5.96795">
        <ele>1634.86</ele>
        <time>2017-01-22T16:15:08Z</time>
      </trkpt>
      <trkpt lat="45.21972" lon="5.96793">
        <ele>1634.86</ele>
        <time>2017-01-22T16:15:09Z</time>
      </trkpt>
      <trkpt lat="45.21973" lon="5.9679">
        <ele>1635.82</ele>
        <time>2017-01-22T16:15:13Z</time>
      </trkpt>
      <trkpt lat="45.21979" lon="5.96784">
        <ele>1636.78</ele>
        <time>2017-01-22T16:15:27Z</time>
      </trkpt>
      <trkpt lat="45.21989" lon="5.96774">
        <ele>1636.78</ele>
        <time>2017-01-22T16:15:44Z</time>
      </trkpt>
      <trkpt lat="45.21993" lon="5.96771">
        <ele>1635.34</ele>
        <time>2017-01-22T16:15:48Z</time>
      </trkpt>
      <trkpt lat="45.21995" lon="5.96771">
        <ele>1634.86</ele>
        <time>2017-01-22T16:15:49Z</time>
      </trkpt>
      <trkpt lat="45.21998" lon="5.9677">
        <ele>1633.9</ele>
        <time>2017-01-22T16:15:50Z</time>
      </trkpt>
      <trkpt lat="45.22002" lon="5.9677">
        <ele>1632.46</ele>
        <time>2017-01-22T16:15:51Z</time>
      </trkpt>
      <trkpt lat="45.22009" lon="5.9677">
        <ele>1630.53</ele>
        <time>2017-01-22T16:15:52Z</time>
      </trkpt>
      <trkpt lat="45.22016" lon="5.96769">
        <ele>1630.05</ele>
        <time>2017-01-22T16:15:53Z</time>
      </trkpt>
      <trkpt lat="45.22021" lon="5.96768">
        <ele>1629.57</ele>
        <time>2017-01-22T16:15:54Z</time>
      </trkpt>
      <trkpt lat="45.22025" lon="5.96766">
        <ele>1629.57</ele>
        <time>2017-01-22T16:15:55Z</time>
      </trkpt>
      <trkpt lat="45.22029" lon="5.96765">
        <ele>1629.57</ele>
        <time>2017-01-22T16:15:56Z</time>
      </trkpt>
      <trkpt lat="45.22031" lon="5.96765">
        <ele>1629.09</ele>
        <time>2017-01-22T16:15:57Z</time>
      </trkpt>
      <trkpt lat="45.22033" lon="5.96766">
        <ele>1629.57</ele>
        <time>2017-01-22T16:16:10Z</time>
      </trkpt>
      <trkpt lat="45.22036" lon="5.96766">
        <ele>1629.57</ele>
        <time>2017-01-22T16:16:16Z</time>
      </trkpt>
      <trkpt lat="45.22039" lon="5.96765">
        <ele>1629.57</ele>
        <time>2017-01-22T16:16:17Z</time>
      </trkpt>
      <trkpt lat="45.22051" lon="5.96755">
        <ele>1624.77</ele>
        <time>2017-01-22T16:16:21Z</time>
      </trkpt>
      <trkpt lat="45.22054" lon="5.9675">
        <ele>1624.77</ele>
        <time>2017-01-22T16:16:22Z</time>
      </trkpt>
      <trkpt lat="45.22057" lon="5.96746">
        <ele>1621.88</ele>
        <time>2017-01-22T16:16:23Z</time>
      </trkpt>
      <trkpt lat="45.22061" lon="5.96743">
        <ele>1620.44</ele>
        <time>2017-01-22T16:16:24Z</time>
      </trkpt>
      <trkpt lat="45.22063" lon="5.96738">
        <ele>1618.52</ele>
        <time>2017-01-22T16:16:25Z</time>
      </trkpt>
      <trkpt lat="45.22066" lon="5.96734">
        <ele>1617.56</ele>
        <time>2017-01-22T16:16:26Z</time>
      </trkpt>
      <trkpt lat="45.2207" lon="5.96731">
        <ele>1615.15</ele>
        <time>2017-01-22T16:16:27Z</time>
      </trkpt>
      <trkpt lat="45.22074" lon="5.9673">
        <ele>1613.71</ele>
        <time>2017-01-22T16:16:28Z</time>
      </trkpt>
      <trkpt lat="45.22077" lon="5.96729">
        <ele>1613.71</ele>
        <time>2017-01-22T16:16:29Z</time>
      </trkpt>
      <trkpt lat="45.22079" lon="5.96726">
        <ele>1611.79</ele>
        <time>2017-01-22T16:16:30Z</time>
      </trkpt>
      <trkpt lat="45.2208" lon="5.96722">
        <ele>1610.83</ele>
        <time>2017-01-22T16:16:31Z</time>
      </trkpt>
      <trkpt lat="45.22083" lon="5.96719">
        <ele>1610.35</ele>
        <time>2017-01-22T16:16:32Z</time>
      </trkpt>
      <trkpt lat="45.22086" lon="5.96717">
        <ele>1608.42</ele>
        <time>2017-01-22T16:16:33Z</time>
      </trkpt>
      <trkpt lat="45.22089" lon="5.96717">
        <ele>1608.42</ele>
        <time>2017-01-22T16:16:34Z</time>
      </trkpt>
      <trkpt lat="45.22093" lon="5.96715">
        <ele>1606.02</ele>
        <time>2017-01-22T16:16:35Z</time>
      </trkpt>
      <trkpt lat="45.22097" lon="5.96714">
        <ele>1604.58</ele>
        <time>2017-01-22T16:16:36Z</time>
      </trkpt>
      <trkpt lat="45.221" lon="5.96712">
        <ele>1604.58</ele>
        <time>2017-01-22T16:16:37Z</time>
      </trkpt>
      <trkpt lat="45.22105" lon="5.9671">
        <ele>1604.58</ele>
        <time>2017-01-22T16:16:38Z</time>
      </trkpt>
      <trkpt lat="45.22109" lon="5.96709">
        <ele>1603.14</ele>
        <time>2017-01-22T16:16:39Z</time>
      </trkpt>
      <trkpt lat="45.22111" lon="5.96706">
        <ele>1601.69</ele>
        <time>2017-01-22T16:16:40Z</time>
      </trkpt>
      <trkpt lat="45.22111" lon="5.96705">
        <ele>1601.69</ele>
        <time>2017-01-22T16:16:41Z</time>
      </trkpt>
      <trkpt lat="45.22109" lon="5.96699">
        <ele>1600.25</ele>
        <time>2017-01-22T16:16:43Z</time>
      </trkpt>
      <trkpt lat="45.2211" lon="5.96694">
        <ele>1598.81</ele>
        <time>2017-01-22T16:16:44Z</time>
      </trkpt>
      <trkpt lat="45.22111" lon="5.96691">
        <ele>1598.33</ele>
        <time>2017-01-22T16:16:45Z</time>
      </trkpt>
      <trkpt lat="45.22114" lon="5.96689">
        <ele>1597.37</ele>
        <time>2017-01-22T16:16:46Z</time>
      </trkpt>
      <trkpt lat="45.22116" lon="5.96687">
        <ele>1597.37</ele>
        <time>2017-01-22T16:16:47Z</time>
      </trkpt>
      <trkpt lat="45.22119" lon="5.96686">
        <ele>1596.41</ele>
        <time>2017-01-22T16:16:48Z</time>
      </trkpt>
      <trkpt lat="45.2212" lon="5.96684">
        <ele>1595.93</ele>
        <time>2017-01-22T16:16:49Z</time>
      </trkpt>
      <trkpt lat="45.22122" lon="5.9668">
        <ele>1594.48</ele>
        <time>2017-01-22T16:16:50Z</time>
      </trkpt>
      <trkpt lat="45.22124" lon="5.96678">
        <ele>1594.48</ele>
        <time>2017-01-22T16:16:51Z</time>
      </trkpt>
      <trkpt lat="45.22127" lon="5.96671">
        <ele>1595.45</ele>
        <time>2017-01-22T16:17:08Z</time>
      </trkpt>
      <trkpt lat="45.22123" lon="5.96669">
        <ele>1595.45</ele>
        <time>2017-01-22T16:17:36Z</time>
      </trkpt>
      <trkpt lat="45.22126" lon="5.96665">
        <ele>1594</ele>
        <time>2017-01-22T16:17:44Z</time>
      </trkpt>
      <trkpt lat="45.22129" lon="5.96666">
        <ele>1593.52</ele>
        <time>2017-01-22T16:18:05Z</time>
      </trkpt>
      <trkpt lat="45.22132" lon="5.96663">
        <ele>1593.52</ele>
        <time>2017-01-22T16:18:40Z</time>
      </trkpt>
      <trkpt lat="45.22132" lon="5.96661">
        <ele>1592.08</ele>
        <time>2017-01-22T16:18:41Z</time>
      </trkpt>
      <trkpt lat="45.2213" lon="5.96658">
        <ele>1591.6</ele>
        <time>2017-01-22T16:18:42Z</time>
      </trkpt>
      <trkpt lat="45.22128" lon="5.9665">
        <ele>1591.12</ele>
        <time>2017-01-22T16:18:44Z</time>
      </trkpt>
      <trkpt lat="45.22131" lon="5.96647">
        <ele>1589.68</ele>
        <time>2017-01-22T16:18:45Z</time>
      </trkpt>
      <trkpt lat="45.22133" lon="5.96644">
        <ele>1588.72</ele>
        <time>2017-01-22T16:18:46Z</time>
      </trkpt>
      <trkpt lat="45.22136" lon="5.96642">
        <ele>1587.27</ele>
        <time>2017-01-22T16:18:47Z</time>
      </trkpt>
      <trkpt lat="45.2214" lon="5.9664">
        <ele>1586.31</ele>
        <time>2017-01-22T16:18:48Z</time>
      </trkpt>
      <trkpt lat="45.22145" lon="5.96639">
        <ele>1584.87</ele>
        <time>2017-01-22T16:18:49Z</time>
      </trkpt>
      <trkpt lat="45.22149" lon="5.96639">
        <ele>1583.43</ele>
        <time>2017-01-22T16:18:50Z</time>
      </trkpt>
      <trkpt lat="45.22152" lon="5.96641">
        <ele>1583.43</ele>
        <time>2017-01-22T16:18:51Z</time>
      </trkpt>
      <trkpt lat="45.22155" lon="5.9664">
        <ele>1583.43</ele>
        <time>2017-01-22T16:18:52Z</time>
      </trkpt>
      <trkpt lat="45.22158" lon="5.96637">
        <ele>1581.51</ele>
        <time>2017-01-22T16:18:53Z</time>
      </trkpt>
      <trkpt lat="45.22165" lon="5.96632">
        <ele>1578.14</ele>
        <time>2017-01-22T16:18:55Z</time>
      </trkpt>
      <trkpt lat="45.22169" lon="5.9663">
        <ele>1577.18</ele>
        <time>2017-01-22T16:18:56Z</time>
      </trkpt>
      <trkpt lat="45.22171" lon="5.96629">
        <ele>1575.74</ele>
        <time>2017-01-22T16:18:57Z</time>
      </trkpt>
      <trkpt lat="45.22172" lon="5.96628">
        <ele>1575.74</ele>
        <time>2017-01-22T16:18:58Z</time>
      </trkpt>
      <trkpt lat="45.22173" lon="5.96625">
        <ele>1576.22</ele>
        <time>2017-01-22T16:19:04Z</time>
      </trkpt>
      <trkpt lat="45.22175" lon="5.96623">
        <ele>1575.74</ele>
        <time>2017-01-22T16:19:05Z</time>
      </trkpt>
      <trkpt lat="45.22183" lon="5.96617">
        <ele>1572.37</ele>
        <time>2017-01-22T16:19:07Z</time>
      </trkpt>
      <trkpt lat="45.22187" lon="5.96612">
        <ele>1571.41</ele>
        <time>2017-01-22T16:19:08Z</time>
      </trkpt>
      <trkpt lat="45.2219" lon="5.96606">
        <ele>1569.01</ele>
        <time>2017-01-22T16:19:09Z</time>
      </trkpt>
      <trkpt lat="45.22194" lon="5.966">
        <ele>1568.05</ele>
        <time>2017-01-22T16:19:10Z</time>
      </trkpt>
      <trkpt lat="45.22199" lon="5.96598">
        <ele>1565.16</ele>
        <time>2017-01-22T16:19:11Z</time>
      </trkpt>
      <trkpt lat="45.22206" lon="5.96597">
        <ele>1563.72</ele>
        <time>2017-01-22T16:19:12Z</time>
      </trkpt>
      <trkpt lat="45.22212" lon="5.96595">
        <ele>1561.8</ele>
        <time>2017-01-22T16:19:13Z</time>
      </trkpt>
      <trkpt lat="45.22217" lon="5.96591">
        <ele>1560.84</ele>
        <time>2017-01-22T16:19:14Z</time>
      </trkpt>
      <trkpt lat="45.22222" lon="5.96589">
        <ele>1558.92</ele>
        <time>2017-01-22T16:19:15Z</time>
      </trkpt>
      <trkpt lat="45.22226" lon="5.96589">
        <ele>1558.92</ele>
        <time>2017-01-22T16:19:16Z</time>
      </trkpt>
      <trkpt lat="45.22231" lon="5.96588">
        <ele>1557.47</ele>
        <time>2017-01-22T16:19:17Z</time>
      </trkpt>
      <trkpt lat="45.22236" lon="5.96585">
        <ele>1556.03</ele>
        <time>2017-01-22T16:19:18Z</time>
      </trkpt>
      <trkpt lat="45.22241" lon="5.96584">
        <ele>1554.59</ele>
        <time>2017-01-22T16:19:19Z</time>
      </trkpt>
      <trkpt lat="45.22245" lon="5.96583">
        <ele>1553.63</ele>
        <time>2017-01-22T16:19:20Z</time>
      </trkpt>
      <trkpt lat="45.22249" lon="5.96584">
        <ele>1552.67</ele>
        <time>2017-01-22T16:19:21Z</time>
      </trkpt>
      <trkpt lat="45.2225" lon="5.96586">
        <ele>1552.67</ele>
        <time>2017-01-22T16:19:22Z</time>
      </trkpt>
      <trkpt lat="45.22253" lon="5.96584">
        <ele>1555.07</ele>
        <time>2017-01-22T16:19:26Z</time>
      </trkpt>
      <trkpt lat="45.2226" lon="5.96589">
        <ele>1554.59</ele>
        <time>2017-01-22T16:19:54Z</time>
      </trkpt>
      <trkpt lat="45.22261" lon="5.96588">
        <ele>1554.59</ele>
        <time>2017-01-22T16:19:55Z</time>
      </trkpt>
      <trkpt lat="45.22269" lon="5.96586">
        <ele>1550.74</ele>
        <time>2017-01-22T16:19:58Z</time>
      </trkpt>
      <trkpt lat="45.22272" lon="5.96583">
        <ele>1549.78</ele>
        <time>2017-01-22T16:19:59Z</time>
      </trkpt>
      <trkpt lat="45.22276" lon="5.96578">
        <ele>1548.82</ele>
        <time>2017-01-22T16:20:00Z</time>
      </trkpt>
      <trkpt lat="45.22281" lon="5.96573">
        <ele>1546.42</ele>
        <time>2017-01-22T16:20:01Z</time>
      </trkpt>
      <trkpt lat="45.22287" lon="5.96569">
        <ele>1544.5</ele>
        <time>2017-01-22T16:20:02Z</time>
      </trkpt>
      <trkpt lat="45.22293" lon="5.96564">
        <ele>1543.05</ele>
        <time>2017-01-22T16:20:03Z</time>
      </trkpt>
      <trkpt lat="45.22299" lon="5.96559">
        <ele>1541.13</ele>
        <time>2017-01-22T16:20:04Z</time>
      </trkpt>
      <trkpt lat="45.22304" lon="5.96553">
        <ele>1538.73</ele>
        <time>2017-01-22T16:20:05Z</time>
      </trkpt>
      <trkpt lat="45.22307" lon="5.96546">
        <ele>1537.77</ele>
        <time>2017-01-22T16:20:06Z</time>
      </trkpt>
      <trkpt lat="45.2231" lon="5.9654">
        <ele>1537.77</ele>
        <time>2017-01-22T16:20:07Z</time>
      </trkpt>
      <trkpt lat="45.22313" lon="5.96531">
        <ele>1537.77</ele>
        <time>2017-01-22T16:20:09Z</time>
      </trkpt>
      <trkpt lat="45.22316" lon="5.96529">
        <ele>1536.32</ele>
        <time>2017-01-22T16:20:10Z</time>
      </trkpt>
      <trkpt lat="45.2232" lon="5.96528">
        <ele>1535.36</ele>
        <time>2017-01-22T16:20:11Z</time>
      </trkpt>
      <trkpt lat="45.22324" lon="5.96526">
        <ele>1535.36</ele>
        <time>2017-01-22T16:20:12Z</time>
      </trkpt>
      <trkpt lat="45.22328" lon="5.96522">
        <ele>1533.44</ele>
        <time>2017-01-22T16:20:13Z</time>
      </trkpt>
      <trkpt lat="45.22331" lon="5.96519">
        <ele>1532</ele>
        <time>2017-01-22T16:20:14Z</time>
      </trkpt>
      <trkpt lat="45.22335" lon="5.96516">
        <ele>1531.04</ele>
        <time>2017-01-22T16:20:15Z</time>
      </trkpt>
      <trkpt lat="45.22337" lon="5.9651">
        <ele>1530.08</ele>
        <time>2017-01-22T16:20:16Z</time>
      </trkpt>
      <trkpt lat="45.22339" lon="5.96503">
        <ele>1528.63</ele>
        <time>2017-01-22T16:20:17Z</time>
      </trkpt>
      <trkpt lat="45.22341" lon="5.96496">
        <ele>1526.71</ele>
        <time>2017-01-22T16:20:18Z</time>
      </trkpt>
      <trkpt lat="45.22342" lon="5.96489">
        <ele>1526.23</ele>
        <time>2017-01-22T16:20:19Z</time>
      </trkpt>
      <trkpt lat="45.22344" lon="5.96482">
        <ele>1524.79</ele>
        <time>2017-01-22T16:20:20Z</time>
      </trkpt>
      <trkpt lat="45.22345" lon="5.96477">
        <ele>1524.31</ele>
        <time>2017-01-22T16:20:21Z</time>
      </trkpt>
      <trkpt lat="45.22346" lon="5.96469">
        <ele>1523.35</ele>
        <time>2017-01-22T16:20:22Z</time>
      </trkpt>
      <trkpt lat="45.22347" lon="5.96463">
        <ele>1522.87</ele>
        <time>2017-01-22T16:20:23Z</time>
      </trkpt>
      <trkpt lat="45.22346" lon="5.9646">
        <ele>1524.31</ele>
        <time>2017-01-22T16:20:31Z</time>
      </trkpt>
      <trkpt lat="45.22349" lon="5.96456">
        <ele>1522.87</ele>
        <time>2017-01-22T16:20:47Z</time>
      </trkpt>
      <trkpt lat="45.2235" lon="5.96453">
        <ele>1520.94</ele>
        <time>2017-01-22T16:20:48Z</time>
      </trkpt>
      <trkpt lat="45.22351" lon="5.96448">
        <ele>1519.02</ele>
        <time>2017-01-22T16:20:49Z</time>
      </trkpt>
      <trkpt lat="45.22351" lon="5.96442">
        <ele>1518.54</ele>
        <time>2017-01-22T16:20:50Z</time>
      </trkpt>
      <trkpt lat="45.22352" lon="5.96437">
        <ele>1517.1</ele>
        <time>2017-01-22T16:20:51Z</time>
      </trkpt>
      <trkpt lat="45.22355" lon="5.96432">
        <ele>1516.62</ele>
        <time>2017-01-22T16:20:52Z</time>
      </trkpt>
      <trkpt lat="45.22356" lon="5.96428">
        <ele>1515.66</ele>
        <time>2017-01-22T16:20:53Z</time>
      </trkpt>
      <trkpt lat="45.22356" lon="5.96424">
        <ele>1514.69</ele>
        <time>2017-01-22T16:20:54Z</time>
      </trkpt>
      <trkpt lat="45.22355" lon="5.9642">
        <ele>1513.25</ele>
        <time>2017-01-22T16:20:56Z</time>
      </trkpt>
      <trkpt lat="45.22353" lon="5.96417">
        <ele>1513.25</ele>
        <time>2017-01-22T16:21:16Z</time>
      </trkpt>
      <trkpt lat="45.22356" lon="5.96414">
        <ele>1512.77</ele>
        <time>2017-01-22T16:21:53Z</time>
      </trkpt>
      <trkpt lat="45.22356" lon="5.96412">
        <ele>1511.81</ele>
        <time>2017-01-22T16:21:55Z</time>
      </trkpt>
      <trkpt lat="45.22355" lon="5.96407">
        <ele>1510.37</ele>
        <time>2017-01-22T16:21:56Z</time>
      </trkpt>
      <trkpt lat="45.22353" lon="5.96401">
        <ele>1508.93</ele>
        <time>2017-01-22T16:21:57Z</time>
      </trkpt>
      <trkpt lat="45.22351" lon="5.96394">
        <ele>1507</ele>
        <time>2017-01-22T16:21:58Z</time>
      </trkpt>
      <trkpt lat="45.22348" lon="5.96387">
        <ele>1505.56</ele>
        <time>2017-01-22T16:21:59Z</time>
      </trkpt>
      <trkpt lat="45.22344" lon="5.96382">
        <ele>1504.12</ele>
        <time>2017-01-22T16:22:00Z</time>
      </trkpt>
      <trkpt lat="45.2234" lon="5.96376">
        <ele>1503.64</ele>
        <time>2017-01-22T16:22:01Z</time>
      </trkpt>
      <trkpt lat="45.22337" lon="5.96372">
        <ele>1503.64</ele>
        <time>2017-01-22T16:22:02Z</time>
      </trkpt>
      <trkpt lat="45.22334" lon="5.9637">
        <ele>1503.64</ele>
        <time>2017-01-22T16:22:03Z</time>
      </trkpt>
      <trkpt lat="45.22332" lon="5.96368">
        <ele>1502.68</ele>
        <time>2017-01-22T16:22:04Z</time>
      </trkpt>
      <trkpt lat="45.22323" lon="5.96365">
        <ele>1500.76</ele>
        <time>2017-01-22T16:22:08Z</time>
      </trkpt>
      <trkpt lat="45.22314" lon="5.96365">
        <ele>1498.35</ele>
        <time>2017-01-22T16:22:12Z</time>
      </trkpt>
      <trkpt lat="45.22311" lon="5.96362">
        <ele>1497.87</ele>
        <time>2017-01-22T16:22:13Z</time>
      </trkpt>
      <trkpt lat="45.22308" lon="5.9636">
        <ele>1496.91</ele>
        <time>2017-01-22T16:22:14Z</time>
      </trkpt>
      <trkpt lat="45.22305" lon="5.96356">
        <ele>1495.95</ele>
        <time>2017-01-22T16:22:15Z</time>
      </trkpt>
      <trkpt lat="45.22303" lon="5.96354">
        <ele>1494.99</ele>
        <time>2017-01-22T16:22:16Z</time>
      </trkpt>
      <trkpt lat="45.22293" lon="5.96343">
        <ele>1494.51</ele>
        <time>2017-01-22T16:22:27Z</time>
      </trkpt>
      <trkpt lat="45.22287" lon="5.96335">
        <ele>1494.03</ele>
        <time>2017-01-22T16:23:06Z</time>
      </trkpt>
      <trkpt lat="45.22281" lon="5.96328">
        <ele>1492.1</ele>
        <time>2017-01-22T16:23:17Z</time>
      </trkpt>
      <trkpt lat="45.22279" lon="5.96325">
        <ele>1491.14</ele>
        <time>2017-01-22T16:23:18Z</time>
      </trkpt>
      <trkpt lat="45.22277" lon="5.96321">
        <ele>1489.7</ele>
        <time>2017-01-22T16:23:19Z</time>
      </trkpt>
      <trkpt lat="45.22271" lon="5.96307">
        <ele>1486.34</ele>
        <time>2017-01-22T16:23:22Z</time>
      </trkpt>
      <trkpt lat="45.22264" lon="5.96294">
        <ele>1482.49</ele>
        <time>2017-01-22T16:23:25Z</time>
      </trkpt>
      <trkpt lat="45.22261" lon="5.9629">
        <ele>1481.53</ele>
        <time>2017-01-22T16:23:26Z</time>
      </trkpt>
      <trkpt lat="45.22258" lon="5.96286">
        <ele>1479.61</ele>
        <time>2017-01-22T16:23:27Z</time>
      </trkpt>
      <trkpt lat="45.22255" lon="5.96282">
        <ele>1479.61</ele>
        <time>2017-01-22T16:23:28Z</time>
      </trkpt>
      <trkpt lat="45.22253" lon="5.96279">
        <ele>1478.65</ele>
        <time>2017-01-22T16:23:29Z</time>
      </trkpt>
      <trkpt lat="45.22251" lon="5.96276">
        <ele>1477.2</ele>
        <time>2017-01-22T16:23:30Z</time>
      </trkpt>
      <trkpt lat="45.22249" lon="5.96273">
        <ele>1476.24</ele>
        <time>2017-01-22T16:23:31Z</time>
      </trkpt>
      <trkpt lat="45.22247" lon="5.9627">
        <ele>1475.76</ele>
        <time>2017-01-22T16:23:32Z</time>
      </trkpt>
      <trkpt lat="45.22238" lon="5.9626">
        <ele>1472.4</ele>
        <time>2017-01-22T16:23:35Z</time>
      </trkpt>
      <trkpt lat="45.22235" lon="5.96256">
        <ele>1471.44</ele>
        <time>2017-01-22T16:23:36Z</time>
      </trkpt>
      <trkpt lat="45.22232" lon="5.96251">
        <ele>1470.47</ele>
        <time>2017-01-22T16:23:37Z</time>
      </trkpt>
      <trkpt lat="45.22229" lon="5.96248">
        <ele>1470.47</ele>
        <time>2017-01-22T16:23:38Z</time>
      </trkpt>
      <trkpt lat="45.22226" lon="5.96245">
        <ele>1469.03</ele>
        <time>2017-01-22T16:23:39Z</time>
      </trkpt>
      <trkpt lat="45.22224" lon="5.96244">
        <ele>1469.03</ele>
        <time>2017-01-22T16:23:40Z</time>
      </trkpt>
      <trkpt lat="45.22214" lon="5.96232">
        <ele>1465.67</ele>
        <time>2017-01-22T16:23:44Z</time>
      </trkpt>
      <trkpt lat="45.22211" lon="5.96229">
        <ele>1465.67</ele>
        <time>2017-01-22T16:23:45Z</time>
      </trkpt>
      <trkpt lat="45.22206" lon="5.96223">
        <ele>1464.23</ele>
        <time>2017-01-22T16:23:47Z</time>
      </trkpt>
      <trkpt lat="45.22192" lon="5.96206">
        <ele>1461.34</ele>
        <time>2017-01-22T16:23:52Z</time>
      </trkpt>
      <trkpt lat="45.22187" lon="5.96199">
        <ele>1459.42</ele>
        <time>2017-01-22T16:23:54Z</time>
      </trkpt>
      <trkpt lat="45.2218" lon="5.96186">
        <ele>1456.53</ele>
        <time>2017-01-22T16:23:56Z</time>
      </trkpt>
      <trkpt lat="45.22177" lon="5.96181">
        <ele>1454.61</ele>
        <time>2017-01-22T16:23:57Z</time>
      </trkpt>
      <trkpt lat="45.22175" lon="5.96179">
        <ele>1455.09</ele>
        <time>2017-01-22T16:23:58Z</time>
      </trkpt>
      <trkpt lat="45.22164" lon="5.96175">
        <ele>1454.61</ele>
        <time>2017-01-22T16:24:18Z</time>
      </trkpt>
      <trkpt lat="45.22158" lon="5.96162">
        <ele>1451.73</ele>
        <time>2017-01-22T16:24:32Z</time>
      </trkpt>
      <trkpt lat="45.22156" lon="5.96157">
        <ele>1451.25</ele>
        <time>2017-01-22T16:24:54Z</time>
      </trkpt>
      <trkpt lat="45.22151" lon="5.96141">
        <ele>1446.44</ele>
        <time>2017-01-22T16:25:13Z</time>
      </trkpt>
      <trkpt lat="45.22148" lon="5.96129">
        <ele>1443.08</ele>
        <time>2017-01-22T16:25:16Z</time>
      </trkpt>
      <trkpt lat="45.22142" lon="5.96109">
        <ele>1439.23</ele>
        <time>2017-01-22T16:25:20Z</time>
      </trkpt>
      <trkpt lat="45.22134" lon="5.96087">
        <ele>1437.31</ele>
        <time>2017-01-22T16:25:24Z</time>
      </trkpt>
      <trkpt lat="45.22133" lon="5.9608">
        <ele>1436.35</ele>
        <time>2017-01-22T16:25:25Z</time>
      </trkpt>
      <trkpt lat="45.22131" lon="5.96075">
        <ele>1435.87</ele>
        <time>2017-01-22T16:25:26Z</time>
      </trkpt>
      <trkpt lat="45.2213" lon="5.9607">
        <ele>1435.87</ele>
        <time>2017-01-22T16:25:27Z</time>
      </trkpt>
      <trkpt lat="45.22129" lon="5.96067">
        <ele>1435.39</ele>
        <time>2017-01-22T16:25:28Z</time>
      </trkpt>
      <trkpt lat="45.22127" lon="5.96064">
        <ele>1434.42</ele>
        <time>2017-01-22T16:25:29Z</time>
      </trkpt>
      <trkpt lat="45.22127" lon="5.96061">
        <ele>1434.42</ele>
        <time>2017-01-22T16:25:30Z</time>
      </trkpt>
      <trkpt lat="45.22126" lon="5.96058">
        <ele>1434.42</ele>
        <time>2017-01-22T16:25:31Z</time>
      </trkpt>
      <trkpt lat="45.22123" lon="5.96056">
        <ele>1433.94</ele>
        <time>2017-01-22T16:25:32Z</time>
      </trkpt>
      <trkpt lat="45.22118" lon="5.9605">
        <ele>1433.46</ele>
        <time>2017-01-22T16:25:34Z</time>
      </trkpt>
      <trkpt lat="45.2211" lon="5.96042">
        <ele>1430.1</ele>
        <time>2017-01-22T16:25:37Z</time>
      </trkpt>
      <trkpt lat="45.22107" lon="5.96039">
        <ele>1429.14</ele>
        <time>2017-01-22T16:25:38Z</time>
      </trkpt>
      <trkpt lat="45.22103" lon="5.96034">
        <ele>1427.7</ele>
        <time>2017-01-22T16:25:39Z</time>
      </trkpt>
      <trkpt lat="45.22099" lon="5.96029">
        <ele>1426.73</ele>
        <time>2017-01-22T16:25:40Z</time>
      </trkpt>
      <trkpt lat="45.22096" lon="5.96025">
        <ele>1426.73</ele>
        <time>2017-01-22T16:25:41Z</time>
      </trkpt>
      <trkpt lat="45.22094" lon="5.96023">
        <ele>1426.73</ele>
        <time>2017-01-22T16:25:42Z</time>
      </trkpt>
      <trkpt lat="45.22093" lon="5.96021">
        <ele>1426.73</ele>
        <time>2017-01-22T16:25:43Z</time>
      </trkpt>
      <trkpt lat="45.22091" lon="5.9602">
        <ele>1426.73</ele>
        <time>2017-01-22T16:25:44Z</time>
      </trkpt>
      <trkpt lat="45.22088" lon="5.96007">
        <ele>1426.73</ele>
        <time>2017-01-22T16:26:02Z</time>
      </trkpt>
      <trkpt lat="45.22094" lon="5.96001">
        <ele>1426.25</ele>
        <time>2017-01-22T16:26:30Z</time>
      </trkpt>
      <trkpt lat="45.22098" lon="5.96004">
        <ele>1426.25</ele>
        <time>2017-01-22T16:27:10Z</time>
      </trkpt>
      <trkpt lat="45.22099" lon="5.96003">
        <ele>1426.25</ele>
        <time>2017-01-22T16:27:39Z</time>
      </trkpt>
      <trkpt lat="45.22102" lon="5.96001">
        <ele>1425.29</ele>
        <time>2017-01-22T16:28:05Z</time>
      </trkpt>
      <trkpt lat="45.22107" lon="5.96002">
        <ele>1425.29</ele>
        <time>2017-01-22T16:28:29Z</time>
      </trkpt>
      <trkpt lat="45.22117" lon="5.96004">
        <ele>1425.29</ele>
        <time>2017-01-22T16:28:41Z</time>
      </trkpt>
      <trkpt lat="45.22143" lon="5.96017">
        <ele>1421.93</ele>
        <time>2017-01-22T16:28:55Z</time>
      </trkpt>
      <trkpt lat="45.2216" lon="5.96033">
        <ele>1419.04</ele>
        <time>2017-01-22T16:29:03Z</time>
      </trkpt>
      <trkpt lat="45.22163" lon="5.9603">
        <ele>1420</ele>
        <time>2017-01-22T16:29:29Z</time>
      </trkpt>
      <trkpt lat="45.22163" lon="5.96032">
        <ele>1418.56</ele>
        <time>2017-01-22T16:29:34Z</time>
      </trkpt>
      <trkpt lat="45.2219" lon="5.96059">
        <ele>1415.68</ele>
        <time>2017-01-22T16:29:51Z</time>
      </trkpt>
      <trkpt lat="45.22233" lon="5.96076">
        <ele>1412.79</ele>
        <time>2017-01-22T16:30:10Z</time>
      </trkpt>
      <trkpt lat="45.22259" lon="5.96075">
        <ele>1411.35</ele>
        <time>2017-01-22T16:30:28Z</time>
      </trkpt>
      <trkpt lat="45.22273" lon="5.96067">
        <ele>1410.87</ele>
        <time>2017-01-22T16:30:45Z</time>
      </trkpt>
      <trkpt lat="45.22278" lon="5.96065">
        <ele>1410.39</ele>
        <time>2017-01-22T16:30:50Z</time>
      </trkpt>
      <trkpt lat="45.22279" lon="5.96065">
        <ele>1410.39</ele>
        <time>2017-01-22T16:30:51Z</time>
      </trkpt>
      <trkpt lat="45.2228" lon="5.96064">
        <ele>1410.39</ele>
        <time>2017-01-22T16:30:52Z</time>
      </trkpt>
      <trkpt lat="45.22282" lon="5.96063">
        <ele>1410.39</ele>
        <time>2017-01-22T16:30:53Z</time>
      </trkpt>
      <trkpt lat="45.22282" lon="5.96063">
        <ele>1410.39</ele>
        <time>2017-01-22T16:30:54Z</time>
      </trkpt>
      <trkpt lat="45.22315" lon="5.96041">
        <ele>1407.51</ele>
        <time>2017-01-22T16:31:12Z</time>
      </trkpt>
      <trkpt lat="45.22346" lon="5.96026">
        <ele>1405.58</ele>
        <time>2017-01-22T16:31:29Z</time>
      </trkpt>
      <trkpt lat="45.22376" lon="5.96028">
        <ele>1403.18</ele>
        <time>2017-01-22T16:31:46Z</time>
      </trkpt>
      <trkpt lat="45.22401" lon="5.96034">
        <ele>1401.74</ele>
        <time>2017-01-22T16:32:00Z</time>
      </trkpt>
      <trkpt lat="45.22433" lon="5.96049">
        <ele>1398.37</ele>
        <time>2017-01-22T16:32:14Z</time>
      </trkpt>
      <trkpt lat="45.22443" lon="5.96054">
        <ele>1397.41</ele>
        <time>2017-01-22T16:32:17Z</time>
      </trkpt>
      <trkpt lat="45.22474" lon="5.96062">
        <ele>1394.05</ele>
        <time>2017-01-22T16:32:26Z</time>
      </trkpt>
      <trkpt lat="45.22501" lon="5.96062">
        <ele>1392.13</ele>
        <time>2017-01-22T16:32:32Z</time>
      </trkpt>
      <trkpt lat="45.22551" lon="5.96054">
        <ele>1388.76</ele>
        <time>2017-01-22T16:32:41Z</time>
      </trkpt>
      <trkpt lat="45.22601" lon="5.96051">
        <ele>1385.88</ele>
        <time>2017-01-22T16:32:55Z</time>
      </trkpt>
      <trkpt lat="45.22634" lon="5.96054">
        <ele>1382.03</ele>
        <time>2017-01-22T16:33:03Z</time>
      </trkpt>
      <trkpt lat="45.22661" lon="5.96061">
        <ele>1379.63</ele>
        <time>2017-01-22T16:33:09Z</time>
      </trkpt>
      <trkpt lat="45.22694" lon="5.96075">
        <ele>1375.78</ele>
        <time>2017-01-22T16:33:17Z</time>
      </trkpt>
      <trkpt lat="45.22746" lon="5.96114">
        <ele>1372.9</ele>
        <time>2017-01-22T16:33:31Z</time>
      </trkpt>
      <trkpt lat="45.22769" lon="5.9613">
        <ele>1370.02</ele>
        <time>2017-01-22T16:33:38Z</time>
      </trkpt>
      <trkpt lat="45.22788" lon="5.96143">
        <ele>1368.57</ele>
        <time>2017-01-22T16:33:51Z</time>
      </trkpt>
      <trkpt lat="45.22809" lon="5.96164">
        <ele>1366.17</ele>
        <time>2017-01-22T16:34:06Z</time>
      </trkpt>
      <trkpt lat="45.22836" lon="5.96202">
        <ele>1363.29</ele>
        <time>2017-01-22T16:34:20Z</time>
      </trkpt>
      <trkpt lat="45.22855" lon="5.9623">
        <ele>1360.4</ele>
        <time>2017-01-22T16:34:27Z</time>
      </trkpt>
      <trkpt lat="45.22863" lon="5.96246">
        <ele>1358.48</ele>
        <time>2017-01-22T16:34:30Z</time>
      </trkpt>
      <trkpt lat="45.22866" lon="5.96251">
        <ele>1358.48</ele>
        <time>2017-01-22T16:34:31Z</time>
      </trkpt>
      <trkpt lat="45.22871" lon="5.96261">
        <ele>1358</ele>
        <time>2017-01-22T16:34:33Z</time>
      </trkpt>
      <trkpt lat="45.22879" lon="5.96281">
        <ele>1356.56</ele>
        <time>2017-01-22T16:34:37Z</time>
      </trkpt>
      <trkpt lat="45.2288" lon="5.96287">
        <ele>1356.56</ele>
        <time>2017-01-22T16:34:38Z</time>
      </trkpt>
      <trkpt lat="45.22888" lon="5.96311">
        <ele>1355.12</ele>
        <time>2017-01-22T16:34:43Z</time>
      </trkpt>
      <trkpt lat="45.22898" lon="5.9633">
        <ele>1354.15</ele>
        <time>2017-01-22T16:34:53Z</time>
      </trkpt>
      <trkpt lat="45.22907" lon="5.96324">
        <ele>1353.19</ele>
        <time>2017-01-22T16:35:06Z</time>
      </trkpt>
      <trkpt lat="45.22912" lon="5.96285">
        <ele>1349.83</ele>
        <time>2017-01-22T16:35:16Z</time>
      </trkpt>
      <trkpt lat="45.229" lon="5.96244">
        <ele>1348.39</ele>
        <time>2017-01-22T16:35:28Z</time>
      </trkpt>
      <trkpt lat="45.22885" lon="5.96202">
        <ele>1347.43</ele>
        <time>2017-01-22T16:35:43Z</time>
      </trkpt>
      <trkpt lat="45.22872" lon="5.96171">
        <ele>1346.94</ele>
        <time>2017-01-22T16:35:56Z</time>
      </trkpt>
      <trkpt lat="45.22859" lon="5.96143">
        <ele>1346.94</ele>
        <time>2017-01-22T16:36:17Z</time>
      </trkpt>
      <trkpt lat="45.22847" lon="5.96123">
        <ele>1346.94</ele>
        <time>2017-01-22T16:36:31Z</time>
      </trkpt>
      <trkpt lat="45.22837" lon="5.96105">
        <ele>1346.94</ele>
        <time>2017-01-22T16:36:42Z</time>
      </trkpt>
      <trkpt lat="45.22822" lon="5.96075">
        <ele>1346.46</ele>
        <time>2017-01-22T16:36:56Z</time>
      </trkpt>
      <trkpt lat="45.22806" lon="5.96043">
        <ele>1345.5</ele>
        <time>2017-01-22T16:37:13Z</time>
      </trkpt>
      <trkpt lat="45.22792" lon="5.96011">
        <ele>1344.06</ele>
        <time>2017-01-22T16:37:32Z</time>
      </trkpt>
      <trkpt lat="45.22783" lon="5.95997">
        <ele>1343.1</ele>
        <time>2017-01-22T16:37:49Z</time>
      </trkpt>
      <trkpt lat="45.22782" lon="5.95993">
        <ele>1343.1</ele>
        <time>2017-01-22T16:37:56Z</time>
      </trkpt>
      <trkpt lat="45.22775" lon="5.95975">
        <ele>1342.62</ele>
        <time>2017-01-22T16:38:13Z</time>
      </trkpt>
      <trkpt lat="45.22775" lon="5.95974">
        <ele>1342.62</ele>
        <time>2017-01-22T16:38:14Z</time>
      </trkpt>
      <trkpt lat="45.22774" lon="5.95972">
        <ele>1342.62</ele>
        <time>2017-01-22T16:38:15Z</time>
      </trkpt>
      <trkpt lat="45.22774" lon="5.95971">
        <ele>1342.62</ele>
        <time>2017-01-22T16:38:16Z</time>
      </trkpt>
      <trkpt lat="45.22774" lon="5.95969">
        <ele>1342.62</ele>
        <time>2017-01-22T16:38:17Z</time>
      </trkpt>
      <trkpt lat="45.22751" lon="5.95918">
        <ele>1338.77</ele>
        <time>2017-01-22T16:38:37Z</time>
      </trkpt>
      <trkpt lat="45.22726" lon="5.95868">
        <ele>1337.33</ele>
        <time>2017-01-22T16:38:58Z</time>
      </trkpt>
      <trkpt lat="45.22705" lon="5.95852">
        <ele>1333.97</ele>
        <time>2017-01-22T16:39:06Z</time>
      </trkpt>
      <trkpt lat="45.22693" lon="5.95838">
        <ele>1332.04</ele>
        <time>2017-01-22T16:39:10Z</time>
      </trkpt>
      <trkpt lat="45.22673" lon="5.95813">
        <ele>1328.68</ele>
        <time>2017-01-22T16:39:16Z</time>
      </trkpt>
      <trkpt lat="45.22645" lon="5.95789">
        <ele>1325.31</ele>
        <time>2017-01-22T16:39:24Z</time>
      </trkpt>
      <trkpt lat="45.22637" lon="5.95783">
        <ele>1323.87</ele>
        <time>2017-01-22T16:39:26Z</time>
      </trkpt>
      <trkpt lat="45.22622" lon="5.95776">
        <ele>1321.95</ele>
        <time>2017-01-22T16:39:29Z</time>
      </trkpt>
      <trkpt lat="45.22618" lon="5.95773">
        <ele>1320.99</ele>
        <time>2017-01-22T16:39:30Z</time>
      </trkpt>
      <trkpt lat="45.22614" lon="5.9577">
        <ele>1320.51</ele>
        <time>2017-01-22T16:39:31Z</time>
      </trkpt>
      <trkpt lat="45.2261" lon="5.95768">
        <ele>1320.51</ele>
        <time>2017-01-22T16:39:32Z</time>
      </trkpt>
      <trkpt lat="45.22589" lon="5.95759">
        <ele>1317.62</ele>
        <time>2017-01-22T16:39:37Z</time>
      </trkpt>
      <trkpt lat="45.22585" lon="5.95757">
        <ele>1316.66</ele>
        <time>2017-01-22T16:39:38Z</time>
      </trkpt>
      <trkpt lat="45.2258" lon="5.95756">
        <ele>1315.7</ele>
        <time>2017-01-22T16:39:39Z</time>
      </trkpt>
      <trkpt lat="45.22571" lon="5.95754">
        <ele>1314.74</ele>
        <time>2017-01-22T16:39:41Z</time>
      </trkpt>
      <trkpt lat="45.22528" lon="5.9576">
        <ele>1313.3</ele>
        <time>2017-01-22T16:39:54Z</time>
      </trkpt>
      <trkpt lat="45.22504" lon="5.95762">
        <ele>1313.3</ele>
        <time>2017-01-22T16:40:08Z</time>
      </trkpt>
      <trkpt lat="45.22482" lon="5.9576">
        <ele>1313.3</ele>
        <time>2017-01-22T16:40:26Z</time>
      </trkpt>
      <trkpt lat="45.22471" lon="5.95755">
        <ele>1313.3</ele>
        <time>2017-01-22T16:40:45Z</time>
      </trkpt>
      <trkpt lat="45.22458" lon="5.95751">
        <ele>1313.3</ele>
        <time>2017-01-22T16:41:08Z</time>
      </trkpt>
      <trkpt lat="45.22443" lon="5.95747">
        <ele>1313.3</ele>
        <time>2017-01-22T16:41:26Z</time>
      </trkpt>
      <trkpt lat="45.22433" lon="5.95748">
        <ele>1312.82</ele>
        <time>2017-01-22T16:41:33Z</time>
      </trkpt>
      <trkpt lat="45.22432" lon="5.95749">
        <ele>1312.82</ele>
        <time>2017-01-22T16:41:34Z</time>
      </trkpt>
      <trkpt lat="45.22409" lon="5.95753">
        <ele>1312.34</ele>
        <time>2017-01-22T16:41:49Z</time>
      </trkpt>
      <trkpt lat="45.22382" lon="5.95745">
        <ele>1308.97</ele>
        <time>2017-01-22T16:42:04Z</time>
      </trkpt>
      <trkpt lat="45.22347" lon="5.95728">
        <ele>1305.61</ele>
        <time>2017-01-22T16:42:14Z</time>
      </trkpt>
      <trkpt lat="45.22338" lon="5.95724">
        <ele>1304.65</ele>
        <time>2017-01-22T16:42:16Z</time>
      </trkpt>
      <trkpt lat="45.22313" lon="5.95707">
        <ele>1301.76</ele>
        <time>2017-01-22T16:42:21Z</time>
      </trkpt>
      <trkpt lat="45.22307" lon="5.95703">
        <ele>1301.76</ele>
        <time>2017-01-22T16:42:22Z</time>
      </trkpt>
      <trkpt lat="45.22286" lon="5.95693">
        <ele>1298.88</ele>
        <time>2017-01-22T16:42:26Z</time>
      </trkpt>
      <trkpt lat="45.22281" lon="5.9569">
        <ele>1298.88</ele>
        <time>2017-01-22T16:42:27Z</time>
      </trkpt>
      <trkpt lat="45.22276" lon="5.95684">
        <ele>1298.4</ele>
        <time>2017-01-22T16:42:28Z</time>
      </trkpt>
      <trkpt lat="45.22272" lon="5.95678">
        <ele>1297.44</ele>
        <time>2017-01-22T16:42:29Z</time>
      </trkpt>
      <trkpt lat="45.22269" lon="5.95672">
        <ele>1296.96</ele>
        <time>2017-01-22T16:42:30Z</time>
      </trkpt>
      <trkpt lat="45.22265" lon="5.95665">
        <ele>1296.96</ele>
        <time>2017-01-22T16:42:31Z</time>
      </trkpt>
      <trkpt lat="45.22251" lon="5.95638">
        <ele>1293.59</ele>
        <time>2017-01-22T16:42:35Z</time>
      </trkpt>
      <trkpt lat="45.22247" lon="5.95632">
        <ele>1292.63</ele>
        <time>2017-01-22T16:42:36Z</time>
      </trkpt>
      <trkpt lat="45.22241" lon="5.95627">
        <ele>1292.63</ele>
        <time>2017-01-22T16:42:37Z</time>
      </trkpt>
      <trkpt lat="45.22219" lon="5.95605">
        <ele>1290.23</ele>
        <time>2017-01-22T16:42:41Z</time>
      </trkpt>
      <trkpt lat="45.22182" lon="5.95569">
        <ele>1289.75</ele>
        <time>2017-01-22T16:42:53Z</time>
      </trkpt>
      <trkpt lat="45.22175" lon="5.95562">
        <ele>1289.75</ele>
        <time>2017-01-22T16:43:01Z</time>
      </trkpt>
      <trkpt lat="45.22168" lon="5.95553">
        <ele>1289.75</ele>
        <time>2017-01-22T16:43:18Z</time>
      </trkpt>
      <trkpt lat="45.22165" lon="5.95543">
        <ele>1289.75</ele>
        <time>2017-01-22T16:43:51Z</time>
      </trkpt>
      <trkpt lat="45.2216" lon="5.95534">
        <ele>1289.75</ele>
        <time>2017-01-22T16:44:07Z</time>
      </trkpt>
      <trkpt lat="45.22154" lon="5.95515">
        <ele>1291.19</ele>
        <time>2017-01-22T16:44:24Z</time>
      </trkpt>
      <trkpt lat="45.22151" lon="5.95497">
        <ele>1291.19</ele>
        <time>2017-01-22T16:44:43Z</time>
      </trkpt>
      <trkpt lat="45.22153" lon="5.95493">
        <ele>1291.19</ele>
        <time>2017-01-22T16:44:47Z</time>
      </trkpt>
      <trkpt lat="45.22152" lon="5.95491">
        <ele>1291.19</ele>
        <time>2017-01-22T16:44:48Z</time>
      </trkpt>
      <trkpt lat="45.22148" lon="5.95489">
        <ele>1291.19</ele>
        <time>2017-01-22T16:45:04Z</time>
      </trkpt>
      <trkpt lat="45.22141" lon="5.95479">
        <ele>1291.19</ele>
        <time>2017-01-22T16:45:21Z</time>
      </trkpt>
      <trkpt lat="45.22136" lon="5.95464">
        <ele>1291.19</ele>
        <time>2017-01-22T16:45:38Z</time>
      </trkpt>
      <trkpt lat="45.22127" lon="5.95446">
        <ele>1288.3</ele>
        <time>2017-01-22T16:45:56Z</time>
      </trkpt>
      <trkpt lat="45.22125" lon="5.95441">
        <ele>1288.3</ele>
        <time>2017-01-22T16:45:57Z</time>
      </trkpt>
      <trkpt lat="45.22118" lon="5.95427">
        <ele>1286.38</ele>
        <time>2017-01-22T16:46:00Z</time>
      </trkpt>
      <trkpt lat="45.22106" lon="5.954">
        <ele>1283.02</ele>
        <time>2017-01-22T16:46:04Z</time>
      </trkpt>
      <trkpt lat="45.221" lon="5.95386">
        <ele>1281.09</ele>
        <time>2017-01-22T16:46:06Z</time>
      </trkpt>
      <trkpt lat="45.22097" lon="5.95378">
        <ele>1280.61</ele>
        <time>2017-01-22T16:46:07Z</time>
      </trkpt>
      <trkpt lat="45.22094" lon="5.95372">
        <ele>1279.65</ele>
        <time>2017-01-22T16:46:08Z</time>
      </trkpt>
      <trkpt lat="45.22077" lon="5.95346">
        <ele>1276.77</ele>
        <time>2017-01-22T16:46:12Z</time>
      </trkpt>
      <trkpt lat="45.22068" lon="5.95336">
        <ele>1274.85</ele>
        <time>2017-01-22T16:46:14Z</time>
      </trkpt>
      <trkpt lat="45.22062" lon="5.95332">
        <ele>1273.88</ele>
        <time>2017-01-22T16:46:15Z</time>
      </trkpt>
      <trkpt lat="45.22057" lon="5.95328">
        <ele>1273.88</ele>
        <time>2017-01-22T16:46:16Z</time>
      </trkpt>
      <trkpt lat="45.22054" lon="5.95322">
        <ele>1273.4</ele>
        <time>2017-01-22T16:46:17Z</time>
      </trkpt>
      <trkpt lat="45.22054" lon="5.95309">
        <ele>1271</ele>
        <time>2017-01-22T16:46:19Z</time>
      </trkpt>
      <trkpt lat="45.22053" lon="5.95303">
        <ele>1270.04</ele>
        <time>2017-01-22T16:46:20Z</time>
      </trkpt>
      <trkpt lat="45.22052" lon="5.953">
        <ele>1270.04</ele>
        <time>2017-01-22T16:46:21Z</time>
      </trkpt>
      <trkpt lat="45.22053" lon="5.95302">
        <ele>1269.08</ele>
        <time>2017-01-22T16:46:22Z</time>
      </trkpt>
      <trkpt lat="45.22055" lon="5.95304">
        <ele>1268.12</ele>
        <time>2017-01-22T16:46:23Z</time>
      </trkpt>
      <trkpt lat="45.22057" lon="5.95307">
        <ele>1268.12</ele>
        <time>2017-01-22T16:46:24Z</time>
      </trkpt>
      <trkpt lat="45.22058" lon="5.95309">
        <ele>1266.19</ele>
        <time>2017-01-22T16:46:25Z</time>
      </trkpt>
      <trkpt lat="45.2206" lon="5.9531">
        <ele>1266.19</ele>
        <time>2017-01-22T16:46:26Z</time>
      </trkpt>
      <trkpt lat="45.22063" lon="5.95311">
        <ele>1264.75</ele>
        <time>2017-01-22T16:46:27Z</time>
      </trkpt>
      <trkpt lat="45.22066" lon="5.95312">
        <ele>1264.75</ele>
        <time>2017-01-22T16:46:28Z</time>
      </trkpt>
      <trkpt lat="45.22067" lon="5.95313">
        <ele>1263.79</ele>
        <time>2017-01-22T16:46:29Z</time>
      </trkpt>
      <trkpt lat="45.22075" lon="5.95317">
        <ele>1262.35</ele>
        <time>2017-01-22T16:46:32Z</time>
      </trkpt>
      <trkpt lat="45.22093" lon="5.95314">
        <ele>1260.91</ele>
        <time>2017-01-22T16:46:45Z</time>
      </trkpt>
      <trkpt lat="45.221" lon="5.95315">
        <ele>1259.46</ele>
        <time>2017-01-22T16:46:49Z</time>
      </trkpt>
      <trkpt lat="45.22104" lon="5.95314">
        <ele>1258.98</ele>
        <time>2017-01-22T16:46:50Z</time>
      </trkpt>
      <trkpt lat="45.22108" lon="5.95314">
        <ele>1257.54</ele>
        <time>2017-01-22T16:46:51Z</time>
      </trkpt>
      <trkpt lat="45.22111" lon="5.95313">
        <ele>1257.06</ele>
        <time>2017-01-22T16:46:52Z</time>
      </trkpt>
      <trkpt lat="45.22116" lon="5.95312">
        <ele>1256.58</ele>
        <time>2017-01-22T16:46:53Z</time>
      </trkpt>
      <trkpt lat="45.22137" lon="5.95304">
        <ele>1253.22</ele>
        <time>2017-01-22T16:46:57Z</time>
      </trkpt>
      <trkpt lat="45.22142" lon="5.95301">
        <ele>1253.22</ele>
        <time>2017-01-22T16:46:58Z</time>
      </trkpt>
      <trkpt lat="45.22155" lon="5.95288">
        <ele>1250.81</ele>
        <time>2017-01-22T16:47:01Z</time>
      </trkpt>
      <trkpt lat="45.22159" lon="5.95272">
        <ele>1248.89</ele>
        <time>2017-01-22T16:47:04Z</time>
      </trkpt>
      <trkpt lat="45.22161" lon="5.95269">
        <ele>1248.41</ele>
        <time>2017-01-22T16:47:05Z</time>
      </trkpt>
      <trkpt lat="45.22163" lon="5.95267">
        <ele>1248.41</ele>
        <time>2017-01-22T16:47:06Z</time>
      </trkpt>
      <trkpt lat="45.22165" lon="5.95265">
        <ele>1248.41</ele>
        <time>2017-01-22T16:47:07Z</time>
      </trkpt>
      <trkpt lat="45.22167" lon="5.95262">
        <ele>1248.41</ele>
        <time>2017-01-22T16:47:08Z</time>
      </trkpt>
      <trkpt lat="45.22175" lon="5.95262">
        <ele>1247.93</ele>
        <time>2017-01-22T16:47:09Z</time>
      </trkpt>
      <trkpt lat="45.22181" lon="5.95262">
        <ele>1247.45</ele>
        <time>2017-01-22T16:47:10Z</time>
      </trkpt>
      <trkpt lat="45.22187" lon="5.95261">
        <ele>1246.97</ele>
        <time>2017-01-22T16:47:11Z</time>
      </trkpt>
      <trkpt lat="45.22192" lon="5.95258">
        <ele>1246.01</ele>
        <time>2017-01-22T16:47:12Z</time>
      </trkpt>
      <trkpt lat="45.22209" lon="5.95226">
        <ele>1242.64</ele>
        <time>2017-01-22T16:47:19Z</time>
      </trkpt>
      <trkpt lat="45.22214" lon="5.95199">
        <ele>1240.72</ele>
        <time>2017-01-22T16:47:23Z</time>
      </trkpt>
      <trkpt lat="45.22216" lon="5.95193">
        <ele>1240.24</ele>
        <time>2017-01-22T16:47:24Z</time>
      </trkpt>
      <trkpt lat="45.2222" lon="5.95189">
        <ele>1239.76</ele>
        <time>2017-01-22T16:47:25Z</time>
      </trkpt>
      <trkpt lat="45.22223" lon="5.95185">
        <ele>1239.76</ele>
        <time>2017-01-22T16:47:26Z</time>
      </trkpt>
      <trkpt lat="45.22227" lon="5.95181">
        <ele>1239.28</ele>
        <time>2017-01-22T16:47:27Z</time>
      </trkpt>
      <trkpt lat="45.22231" lon="5.95176">
        <ele>1238.32</ele>
        <time>2017-01-22T16:47:28Z</time>
      </trkpt>
      <trkpt lat="45.22233" lon="5.95171">
        <ele>1237.83</ele>
        <time>2017-01-22T16:47:29Z</time>
      </trkpt>
      <trkpt lat="45.22235" lon="5.95163">
        <ele>1237.35</ele>
        <time>2017-01-22T16:47:30Z</time>
      </trkpt>
      <trkpt lat="45.22235" lon="5.95155">
        <ele>1236.87</ele>
        <time>2017-01-22T16:47:31Z</time>
      </trkpt>
      <trkpt lat="45.22236" lon="5.95148">
        <ele>1236.87</ele>
        <time>2017-01-22T16:47:32Z</time>
      </trkpt>
      <trkpt lat="45.22238" lon="5.95142">
        <ele>1236.87</ele>
        <time>2017-01-22T16:47:33Z</time>
      </trkpt>
      <trkpt lat="45.2224" lon="5.95139">
        <ele>1236.39</ele>
        <time>2017-01-22T16:47:34Z</time>
      </trkpt>
      <trkpt lat="45.22243" lon="5.95136">
        <ele>1236.39</ele>
        <time>2017-01-22T16:47:35Z</time>
      </trkpt>
      <trkpt lat="45.22245" lon="5.95134">
        <ele>1235.91</ele>
        <time>2017-01-22T16:47:36Z</time>
      </trkpt>
      <trkpt lat="45.22247" lon="5.9513">
        <ele>1235.91</ele>
        <time>2017-01-22T16:47:37Z</time>
      </trkpt>
      <trkpt lat="45.22248" lon="5.95127">
        <ele>1235.43</ele>
        <time>2017-01-22T16:47:38Z</time>
      </trkpt>
      <trkpt lat="45.22249" lon="5.95124">
        <ele>1234.95</ele>
        <time>2017-01-22T16:47:39Z</time>
      </trkpt>
      <trkpt lat="45.2225" lon="5.95122">
        <ele>1234.47</ele>
        <time>2017-01-22T16:47:40Z</time>
      </trkpt>
      <trkpt lat="45.22251" lon="5.95121">
        <ele>1234.47</ele>
        <time>2017-01-22T16:47:41Z</time>
      </trkpt>
      <trkpt lat="45.22261" lon="5.95118">
        <ele>1231.59</ele>
        <time>2017-01-22T16:47:48Z</time>
      </trkpt>
      <trkpt lat="45.22273" lon="5.9513">
        <ele>1229.18</ele>
        <time>2017-01-22T16:47:52Z</time>
      </trkpt>
      <trkpt lat="45.22277" lon="5.95133">
        <ele>1228.22</ele>
        <time>2017-01-22T16:47:53Z</time>
      </trkpt>
      <trkpt lat="45.22297" lon="5.95153">
        <ele>1224.86</ele>
        <time>2017-01-22T16:47:59Z</time>
      </trkpt>
      <trkpt lat="45.22307" lon="5.95175">
        <ele>1221.97</ele>
        <time>2017-01-22T16:48:04Z</time>
      </trkpt>
      <trkpt lat="45.22309" lon="5.9518">
        <ele>1221.97</ele>
        <time>2017-01-22T16:48:05Z</time>
      </trkpt>
      <trkpt lat="45.22321" lon="5.95198">
        <ele>1219.57</ele>
        <time>2017-01-22T16:48:10Z</time>
      </trkpt>
      <trkpt lat="45.22322" lon="5.95202">
        <ele>1218.13</ele>
        <time>2017-01-22T16:48:11Z</time>
      </trkpt>
      <trkpt lat="45.22324" lon="5.95204">
        <ele>1218.13</ele>
        <time>2017-01-22T16:48:12Z</time>
      </trkpt>
      <trkpt lat="45.22339" lon="5.95223">
        <ele>1214.76</ele>
        <time>2017-01-22T16:48:20Z</time>
      </trkpt>
      <trkpt lat="45.2235" lon="5.95243">
        <ele>1211.88</ele>
        <time>2017-01-22T16:48:25Z</time>
      </trkpt>
      <trkpt lat="45.22367" lon="5.95267">
        <ele>1209</ele>
        <time>2017-01-22T16:48:30Z</time>
      </trkpt>
      <trkpt lat="45.22372" lon="5.95272">
        <ele>1208.03</ele>
        <time>2017-01-22T16:48:31Z</time>
      </trkpt>
      <trkpt lat="45.22376" lon="5.95276">
        <ele>1207.07</ele>
        <time>2017-01-22T16:48:32Z</time>
      </trkpt>
      <trkpt lat="45.22415" lon="5.9531">
        <ele>1204.19</ele>
        <time>2017-01-22T16:48:42Z</time>
      </trkpt>
      <trkpt lat="45.22427" lon="5.95317">
        <ele>1202.75</ele>
        <time>2017-01-22T16:48:45Z</time>
      </trkpt>
      <trkpt lat="45.2243" lon="5.95318">
        <ele>1202.75</ele>
        <time>2017-01-22T16:48:46Z</time>
      </trkpt>
      <trkpt lat="45.22433" lon="5.95319">
        <ele>1202.27</ele>
        <time>2017-01-22T16:48:47Z</time>
      </trkpt>
      <trkpt lat="45.22435" lon="5.95321">
        <ele>1202.27</ele>
        <time>2017-01-22T16:48:48Z</time>
      </trkpt>
      <trkpt lat="45.22436" lon="5.95322">
        <ele>1202.27</ele>
        <time>2017-01-22T16:48:49Z</time>
      </trkpt>
      <trkpt lat="45.22438" lon="5.95324">
        <ele>1202.27</ele>
        <time>2017-01-22T16:48:50Z</time>
      </trkpt>
      <trkpt lat="45.22441" lon="5.95326">
        <ele>1202.27</ele>
        <time>2017-01-22T16:48:51Z</time>
      </trkpt>
      <trkpt lat="45.22443" lon="5.95328">
        <ele>1202.27</ele>
        <time>2017-01-22T16:48:52Z</time>
      </trkpt>
      <trkpt lat="45.22475" lon="5.95333">
        <ele>1200.34</ele>
        <time>2017-01-22T16:49:08Z</time>
      </trkpt>
      <trkpt lat="45.22476" lon="5.95333">
        <ele>1200.34</ele>
        <time>2017-01-22T16:49:09Z</time>
      </trkpt>
      <trkpt lat="45.225" lon="5.95348">
        <ele>1197.46</ele>
        <time>2017-01-22T16:49:24Z</time>
      </trkpt>
      <trkpt lat="45.22528" lon="5.95361">
        <ele>1193.61</ele>
        <time>2017-01-22T16:49:34Z</time>
      </trkpt>
      <trkpt lat="45.22547" lon="5.95367">
        <ele>1191.69</ele>
        <time>2017-01-22T16:49:39Z</time>
      </trkpt>
      <trkpt lat="45.22566" lon="5.95373">
        <ele>1188.33</ele>
        <time>2017-01-22T16:49:44Z</time>
      </trkpt>
      <trkpt lat="45.22584" lon="5.95375">
        <ele>1185.44</ele>
        <time>2017-01-22T16:49:48Z</time>
      </trkpt>
      <trkpt lat="45.22619" lon="5.9538">
        <ele>1182.08</ele>
        <time>2017-01-22T16:49:55Z</time>
      </trkpt>
      <trkpt lat="45.22629" lon="5.95379">
        <ele>1180.16</ele>
        <time>2017-01-22T16:49:58Z</time>
      </trkpt>
      <trkpt lat="45.2263" lon="5.95379">
        <ele>1179.67</ele>
        <time>2017-01-22T16:49:59Z</time>
      </trkpt>
      <trkpt lat="45.22633" lon="5.95379">
        <ele>1178.71</ele>
        <time>2017-01-22T16:50:00Z</time>
      </trkpt>
      <trkpt lat="45.22635" lon="5.95379">
        <ele>1178.23</ele>
        <time>2017-01-22T16:50:01Z</time>
      </trkpt>
      <trkpt lat="45.22637" lon="5.95379">
        <ele>1177.75</ele>
        <time>2017-01-22T16:50:02Z</time>
      </trkpt>
      <trkpt lat="45.2264" lon="5.95383">
        <ele>1177.27</ele>
        <time>2017-01-22T16:50:03Z</time>
      </trkpt>
      <trkpt lat="45.22646" lon="5.95387">
        <ele>1175.83</ele>
        <time>2017-01-22T16:50:04Z</time>
      </trkpt>
      <trkpt lat="45.22661" lon="5.95393">
        <ele>1174.39</ele>
        <time>2017-01-22T16:50:06Z</time>
      </trkpt>
      <trkpt lat="45.22667" lon="5.95394">
        <ele>1173.91</ele>
        <time>2017-01-22T16:50:07Z</time>
      </trkpt>
      <trkpt lat="45.22674" lon="5.95393">
        <ele>1173.43</ele>
        <time>2017-01-22T16:50:08Z</time>
      </trkpt>
      <trkpt lat="45.22733" lon="5.95404">
        <ele>1170.06</ele>
        <time>2017-01-22T16:50:16Z</time>
      </trkpt>
      <trkpt lat="45.22747" lon="5.95405">
        <ele>1168.62</ele>
        <time>2017-01-22T16:50:18Z</time>
      </trkpt>
      <trkpt lat="45.2276" lon="5.95405">
        <ele>1166.7</ele>
        <time>2017-01-22T16:50:20Z</time>
      </trkpt>
      <trkpt lat="45.22767" lon="5.95405">
        <ele>1165.74</ele>
        <time>2017-01-22T16:50:21Z</time>
      </trkpt>
      <trkpt lat="45.22773" lon="5.95407">
        <ele>1165.74</ele>
        <time>2017-01-22T16:50:22Z</time>
      </trkpt>
      <trkpt lat="45.22792" lon="5.95413">
        <ele>1163.81</ele>
        <time>2017-01-22T16:50:25Z</time>
      </trkpt>
      <trkpt lat="45.22798" lon="5.95413">
        <ele>1163.81</ele>
        <time>2017-01-22T16:50:26Z</time>
      </trkpt>
      <trkpt lat="45.22804" lon="5.95409">
        <ele>1161.89</ele>
        <time>2017-01-22T16:50:27Z</time>
      </trkpt>
      <trkpt lat="45.2281" lon="5.95407">
        <ele>1160.93</ele>
        <time>2017-01-22T16:50:28Z</time>
      </trkpt>
      <trkpt lat="45.22809" lon="5.95405">
        <ele>1160.93</ele>
        <time>2017-01-22T16:50:29Z</time>
      </trkpt>
      <trkpt lat="45.22808" lon="5.95405">
        <ele>1160.93</ele>
        <time>2017-01-22T16:50:30Z</time>
      </trkpt>
      <trkpt lat="45.22807" lon="5.95404">
        <ele>1160.93</ele>
        <time>2017-01-22T16:50:31Z</time>
      </trkpt>
      <trkpt lat="45.22818" lon="5.95393">
        <ele>1160.45</ele>
        <time>2017-01-22T16:50:46Z</time>
      </trkpt>
      <trkpt lat="45.2283" lon="5.95379">
        <ele>1159.97</ele>
        <time>2017-01-22T16:51:18Z</time>
      </trkpt>
      <trkpt lat="45.22825" lon="5.9538">
        <ele>1159.01</ele>
        <time>2017-01-22T16:51:27Z</time>
      </trkpt>
      <trkpt lat="45.22824" lon="5.95379">
        <ele>1159.01</ele>
        <time>2017-01-22T16:51:28Z</time>
      </trkpt>
      <trkpt lat="45.22822" lon="5.95378">
        <ele>1158.05</ele>
        <time>2017-01-22T16:51:29Z</time>
      </trkpt>
      <trkpt lat="45.2282" lon="5.95377">
        <ele>1158.05</ele>
        <time>2017-01-22T16:51:30Z</time>
      </trkpt>
      <trkpt lat="45.22818" lon="5.95376">
        <ele>1157.08</ele>
        <time>2017-01-22T16:51:31Z</time>
      </trkpt>
      <trkpt lat="45.22816" lon="5.95375">
        <ele>1157.08</ele>
        <time>2017-01-22T16:51:32Z</time>
      </trkpt>
      <trkpt lat="45.22815" lon="5.95374">
        <ele>1157.08</ele>
        <time>2017-01-22T16:51:33Z</time>
      </trkpt>
      <trkpt lat="45.22813" lon="5.95372">
        <ele>1156.12</ele>
        <time>2017-01-22T16:51:34Z</time>
      </trkpt>
      <trkpt lat="45.22811" lon="5.9537">
        <ele>1156.12</ele>
        <time>2017-01-22T16:51:35Z</time>
      </trkpt>
      <trkpt lat="45.22808" lon="5.95369">
        <ele>1155.64</ele>
        <time>2017-01-22T16:51:36Z</time>
      </trkpt>
      <trkpt lat="45.22806" lon="5.95368">
        <ele>1155.16</ele>
        <time>2017-01-22T16:51:37Z</time>
      </trkpt>
      <trkpt lat="45.22802" lon="5.95367">
        <ele>1155.16</ele>
        <time>2017-01-22T16:51:39Z</time>
      </trkpt>
      <trkpt lat="45.228" lon="5.95365">
        <ele>1154.2</ele>
        <time>2017-01-22T16:51:40Z</time>
      </trkpt>
      <trkpt lat="45.22798" lon="5.95363">
        <ele>1153.72</ele>
        <time>2017-01-22T16:51:41Z</time>
      </trkpt>
      <trkpt lat="45.22795" lon="5.95361">
        <ele>1152.76</ele>
        <time>2017-01-22T16:51:42Z</time>
      </trkpt>
      <trkpt lat="45.22791" lon="5.95358">
        <ele>1151.8</ele>
        <time>2017-01-22T16:51:43Z</time>
      </trkpt>
      <trkpt lat="45.22786" lon="5.95354">
        <ele>1150.35</ele>
        <time>2017-01-22T16:51:44Z</time>
      </trkpt>
      <trkpt lat="45.22777" lon="5.95347">
        <ele>1149.39</ele>
        <time>2017-01-22T16:51:46Z</time>
      </trkpt>
      <trkpt lat="45.22763" lon="5.95337">
        <ele>1147.95</ele>
        <time>2017-01-22T16:51:49Z</time>
      </trkpt>
      <trkpt lat="45.22759" lon="5.95333">
        <ele>1146.99</ele>
        <time>2017-01-22T16:51:50Z</time>
      </trkpt>
      <trkpt lat="45.22754" lon="5.9533">
        <ele>1146.99</ele>
        <time>2017-01-22T16:51:51Z</time>
      </trkpt>
      <trkpt lat="45.2275" lon="5.95326">
        <ele>1146.03</ele>
        <time>2017-01-22T16:51:52Z</time>
      </trkpt>
      <trkpt lat="45.22747" lon="5.95321">
        <ele>1145.55</ele>
        <time>2017-01-22T16:51:53Z</time>
      </trkpt>
      <trkpt lat="45.22744" lon="5.95317">
        <ele>1145.55</ele>
        <time>2017-01-22T16:51:54Z</time>
      </trkpt>
      <trkpt lat="45.22744" lon="5.9531">
        <ele>1145.07</ele>
        <time>2017-01-22T16:51:55Z</time>
      </trkpt>
      <trkpt lat="45.22746" lon="5.95304">
        <ele>1143.63</ele>
        <time>2017-01-22T16:51:56Z</time>
      </trkpt>
      <trkpt lat="45.22748" lon="5.953">
        <ele>1142.18</ele>
        <time>2017-01-22T16:51:57Z</time>
      </trkpt>
      <trkpt lat="45.2275" lon="5.95298">
        <ele>1142.18</ele>
        <time>2017-01-22T16:51:58Z</time>
      </trkpt>
      <trkpt lat="45.22757" lon="5.95298">
        <ele>1140.26</ele>
        <time>2017-01-22T16:52:00Z</time>
      </trkpt>
      <trkpt lat="45.22769" lon="5.95296">
        <ele>1137.86</ele>
        <time>2017-01-22T16:52:03Z</time>
      </trkpt>
      <trkpt lat="45.22785" lon="5.95291">
        <ele>1135.45</ele>
        <time>2017-01-22T16:52:07Z</time>
      </trkpt>
      <trkpt lat="45.2279" lon="5.9529">
        <ele>1134.49</ele>
        <time>2017-01-22T16:52:08Z</time>
      </trkpt>
      <trkpt lat="45.22796" lon="5.95289">
        <ele>1134.97</ele>
        <time>2017-01-22T16:52:09Z</time>
      </trkpt>
      <trkpt lat="45.22801" lon="5.95287">
        <ele>1134.49</ele>
        <time>2017-01-22T16:52:10Z</time>
      </trkpt>
      <trkpt lat="45.22805" lon="5.95286">
        <ele>1134.49</ele>
        <time>2017-01-22T16:52:11Z</time>
      </trkpt>
      <trkpt lat="45.22808" lon="5.95286">
        <ele>1134.49</ele>
        <time>2017-01-22T16:52:12Z</time>
      </trkpt>
      <trkpt lat="45.22811" lon="5.95285">
        <ele>1134.01</ele>
        <time>2017-01-22T16:52:13Z</time>
      </trkpt>
      <trkpt lat="45.22814" lon="5.95284">
        <ele>1134.01</ele>
        <time>2017-01-22T16:52:14Z</time>
      </trkpt>
      <trkpt lat="45.22816" lon="5.95284">
        <ele>1133.05</ele>
        <time>2017-01-22T16:52:15Z</time>
      </trkpt>
      <trkpt lat="45.22842" lon="5.95278">
        <ele>1130.17</ele>
        <time>2017-01-22T16:52:26Z</time>
      </trkpt>
      <trkpt lat="45.22864" lon="5.95277">
        <ele>1126.8</ele>
        <time>2017-01-22T16:52:32Z</time>
      </trkpt>
      <trkpt lat="45.22884" lon="5.95271">
        <ele>1122.96</ele>
        <time>2017-01-22T16:52:37Z</time>
      </trkpt>
      <trkpt lat="45.22888" lon="5.95268">
        <ele>1122.48</ele>
        <time>2017-01-22T16:52:38Z</time>
      </trkpt>
      <trkpt lat="45.22893" lon="5.95265">
        <ele>1121.52</ele>
        <time>2017-01-22T16:52:39Z</time>
      </trkpt>
      <trkpt lat="45.22898" lon="5.95262">
        <ele>1121.03</ele>
        <time>2017-01-22T16:52:40Z</time>
      </trkpt>
      <trkpt lat="45.22902" lon="5.95261">
        <ele>1121.03</ele>
        <time>2017-01-22T16:52:41Z</time>
      </trkpt>
      <trkpt lat="45.22917" lon="5.95256">
        <ele>1118.63</ele>
        <time>2017-01-22T16:52:44Z</time>
      </trkpt>
      <trkpt lat="45.22934" lon="5.95248">
        <ele>1115.27</ele>
        <time>2017-01-22T16:52:48Z</time>
      </trkpt>
      <trkpt lat="45.22977" lon="5.95235">
        <ele>1112.38</ele>
        <time>2017-01-22T16:53:00Z</time>
      </trkpt>
      <trkpt lat="45.23018" lon="5.95239">
        <ele>1109.02</ele>
        <time>2017-01-22T16:53:07Z</time>
      </trkpt>
      <trkpt lat="45.23033" lon="5.95241">
        <ele>1108.06</ele>
        <time>2017-01-22T16:53:09Z</time>
      </trkpt>
      <trkpt lat="45.23039" lon="5.95241">
        <ele>1108.06</ele>
        <time>2017-01-22T16:53:10Z</time>
      </trkpt>
      <trkpt lat="45.23049" lon="5.9524">
        <ele>1108.06</ele>
        <time>2017-01-22T16:53:11Z</time>
      </trkpt>
      <trkpt lat="45.23072" lon="5.95246">
        <ele>1107.58</ele>
        <time>2017-01-22T16:53:23Z</time>
      </trkpt>
      <trkpt lat="45.23076" lon="5.95246">
        <ele>1107.58</ele>
        <time>2017-01-22T16:53:28Z</time>
      </trkpt>
      <trkpt lat="45.23077" lon="5.95245">
        <ele>1107.58</ele>
        <time>2017-01-22T16:53:29Z</time>
      </trkpt>
      <trkpt lat="45.23079" lon="5.95245">
        <ele>1107.1</ele>
        <time>2017-01-22T16:53:30Z</time>
      </trkpt>
      <trkpt lat="45.23101" lon="5.95244">
        <ele>1103.25</ele>
        <time>2017-01-22T16:53:36Z</time>
      </trkpt>
      <trkpt lat="45.2312" lon="5.95244">
        <ele>1100.37</ele>
        <time>2017-01-22T16:53:39Z</time>
      </trkpt>
      <trkpt lat="45.23127" lon="5.95246">
        <ele>1098.92</ele>
        <time>2017-01-22T16:53:40Z</time>
      </trkpt>
      <trkpt lat="45.2314" lon="5.95248">
        <ele>1096.52</ele>
        <time>2017-01-22T16:53:42Z</time>
      </trkpt>
      <trkpt lat="45.23147" lon="5.9525">
        <ele>1096.52</ele>
        <time>2017-01-22T16:53:43Z</time>
      </trkpt>
      <trkpt lat="45.23153" lon="5.95252">
        <ele>1095.08</ele>
        <time>2017-01-22T16:53:44Z</time>
      </trkpt>
      <trkpt lat="45.23163" lon="5.95258">
        <ele>1094.12</ele>
        <time>2017-01-22T16:53:46Z</time>
      </trkpt>
      <trkpt lat="45.23168" lon="5.9526">
        <ele>1092.2</ele>
        <time>2017-01-22T16:53:47Z</time>
      </trkpt>
      <trkpt lat="45.23174" lon="5.95261">
        <ele>1091.23</ele>
        <time>2017-01-22T16:53:48Z</time>
      </trkpt>
      <trkpt lat="45.23179" lon="5.95262">
        <ele>1090.75</ele>
        <time>2017-01-22T16:53:49Z</time>
      </trkpt>
      <trkpt lat="45.23183" lon="5.95263">
        <ele>1089.79</ele>
        <time>2017-01-22T16:53:50Z</time>
      </trkpt>
      <trkpt lat="45.23187" lon="5.95264">
        <ele>1089.79</ele>
        <time>2017-01-22T16:53:51Z</time>
      </trkpt>
      <trkpt lat="45.23191" lon="5.95266">
        <ele>1089.79</ele>
        <time>2017-01-22T16:53:52Z</time>
      </trkpt>
      <trkpt lat="45.23195" lon="5.95267">
        <ele>1088.83</ele>
        <time>2017-01-22T16:53:53Z</time>
      </trkpt>
      <trkpt lat="45.23198" lon="5.95267">
        <ele>1088.35</ele>
        <time>2017-01-22T16:53:54Z</time>
      </trkpt>
      <trkpt lat="45.23201" lon="5.95267">
        <ele>1087.87</ele>
        <time>2017-01-22T16:53:55Z</time>
      </trkpt>
      <trkpt lat="45.23204" lon="5.95267">
        <ele>1087.87</ele>
        <time>2017-01-22T16:53:56Z</time>
      </trkpt>
      <trkpt lat="45.23206" lon="5.95267">
        <ele>1086.91</ele>
        <time>2017-01-22T16:53:57Z</time>
      </trkpt>
      <trkpt lat="45.23209" lon="5.95268">
        <ele>1085.95</ele>
        <time>2017-01-22T16:53:58Z</time>
      </trkpt>
      <trkpt lat="45.23212" lon="5.9527">
        <ele>1085.95</ele>
        <time>2017-01-22T16:53:59Z</time>
      </trkpt>
      <trkpt lat="45.23215" lon="5.9527">
        <ele>1084.99</ele>
        <time>2017-01-22T16:54:00Z</time>
      </trkpt>
      <trkpt lat="45.23223" lon="5.95272">
        <ele>1084.5</ele>
        <time>2017-01-22T16:54:02Z</time>
      </trkpt>
      <trkpt lat="45.23227" lon="5.95273">
        <ele>1083.54</ele>
        <time>2017-01-22T16:54:03Z</time>
      </trkpt>
      <trkpt lat="45.23231" lon="5.95273">
        <ele>1083.54</ele>
        <time>2017-01-22T16:54:04Z</time>
      </trkpt>
      <trkpt lat="45.23243" lon="5.95272">
        <ele>1083.06</ele>
        <time>2017-01-22T16:54:07Z</time>
      </trkpt>
      <trkpt lat="45.23247" lon="5.95272">
        <ele>1082.1</ele>
        <time>2017-01-22T16:54:08Z</time>
      </trkpt>
      <trkpt lat="45.23251" lon="5.95273">
        <ele>1082.1</ele>
        <time>2017-01-22T16:54:09Z</time>
      </trkpt>
      <trkpt lat="45.23254" lon="5.95273">
        <ele>1081.62</ele>
        <time>2017-01-22T16:54:10Z</time>
      </trkpt>
      <trkpt lat="45.23257" lon="5.95274">
        <ele>1081.62</ele>
        <time>2017-01-22T16:54:11Z</time>
      </trkpt>
      <trkpt lat="45.23291" lon="5.95288">
        <ele>1078.26</ele>
        <time>2017-01-22T16:54:22Z</time>
      </trkpt>
      <trkpt lat="45.23321" lon="5.95322">
        <ele>1075.85</ele>
        <time>2017-01-22T16:54:36Z</time>
      </trkpt>
      <trkpt lat="45.23344" lon="5.95348">
        <ele>1073.93</ele>
        <time>2017-01-22T16:54:52Z</time>
      </trkpt>
      <trkpt lat="45.23346" lon="5.95354">
        <ele>1073.93</ele>
        <time>2017-01-22T16:54:54Z</time>
      </trkpt>
      <trkpt lat="45.23382" lon="5.95394">
        <ele>1070.57</ele>
        <time>2017-01-22T16:55:12Z</time>
      </trkpt>
      <trkpt lat="45.23405" lon="5.95409">
        <ele>1066.72</ele>
        <time>2017-01-22T16:55:17Z</time>
      </trkpt>
      <trkpt lat="45.23427" lon="5.95422">
        <ele>1064.32</ele>
        <time>2017-01-22T16:55:21Z</time>
      </trkpt>
      <trkpt lat="45.23432" lon="5.95426">
        <ele>1063.84</ele>
        <time>2017-01-22T16:55:22Z</time>
      </trkpt>
      <trkpt lat="45.23437" lon="5.95431">
        <ele>1062.87</ele>
        <time>2017-01-22T16:55:23Z</time>
      </trkpt>
      <trkpt lat="45.23443" lon="5.95435">
        <ele>1062.39</ele>
        <time>2017-01-22T16:55:24Z</time>
      </trkpt>
      <trkpt lat="45.23447" lon="5.9544">
        <ele>1061.43</ele>
        <time>2017-01-22T16:55:25Z</time>
      </trkpt>
      <trkpt lat="45.23451" lon="5.95444">
        <ele>1060.47</ele>
        <time>2017-01-22T16:55:26Z</time>
      </trkpt>
      <trkpt lat="45.23457" lon="5.95452">
        <ele>1059.51</ele>
        <time>2017-01-22T16:55:28Z</time>
      </trkpt>
      <trkpt lat="45.2346" lon="5.95457">
        <ele>1059.51</ele>
        <time>2017-01-22T16:55:29Z</time>
      </trkpt>
      <trkpt lat="45.23462" lon="5.95461">
        <ele>1059.51</ele>
        <time>2017-01-22T16:55:30Z</time>
      </trkpt>
      <trkpt lat="45.23471" lon="5.95479">
        <ele>1059.51</ele>
        <time>2017-01-22T16:55:34Z</time>
      </trkpt>
      <trkpt lat="45.23473" lon="5.95483">
        <ele>1059.51</ele>
        <time>2017-01-22T16:55:35Z</time>
      </trkpt>
      <trkpt lat="45.23475" lon="5.95487">
        <ele>1059.51</ele>
        <time>2017-01-22T16:55:36Z</time>
      </trkpt>
      <trkpt lat="45.23478" lon="5.95489">
        <ele>1059.51</ele>
        <time>2017-01-22T16:55:37Z</time>
      </trkpt>
      <trkpt lat="45.2348" lon="5.95492">
        <ele>1059.51</ele>
        <time>2017-01-22T16:55:38Z</time>
      </trkpt>
      <trkpt lat="45.23518" lon="5.95525">
        <ele>1059.51</ele>
        <time>2017-01-22T16:55:53Z</time>
      </trkpt>
      <trkpt lat="45.2352" lon="5.95529">
        <ele>1059.51</ele>
        <time>2017-01-22T16:55:55Z</time>
      </trkpt>
      <trkpt lat="45.23536" lon="5.95547">
        <ele>1059.03</ele>
        <time>2017-01-22T16:56:06Z</time>
      </trkpt>
      <trkpt lat="45.23546" lon="5.95554">
        <ele>1059.03</ele>
        <time>2017-01-22T16:56:20Z</time>
      </trkpt>
      <trkpt lat="45.23555" lon="5.9555">
        <ele>1058.55</ele>
        <time>2017-01-22T16:56:38Z</time>
      </trkpt>
      <trkpt lat="45.23561" lon="5.95547">
        <ele>1058.07</ele>
        <time>2017-01-22T16:56:56Z</time>
      </trkpt>
      <trkpt lat="45.23575" lon="5.95528">
        <ele>1056.63</ele>
        <time>2017-01-22T16:57:04Z</time>
      </trkpt>
      <trkpt lat="45.23576" lon="5.95523">
        <ele>1055.67</ele>
        <time>2017-01-22T16:57:05Z</time>
      </trkpt>
      <trkpt lat="45.23578" lon="5.95518">
        <ele>1055.67</ele>
        <time>2017-01-22T16:57:06Z</time>
      </trkpt>
      <trkpt lat="45.23579" lon="5.95512">
        <ele>1054.22</ele>
        <time>2017-01-22T16:57:07Z</time>
      </trkpt>
      <trkpt lat="45.2358" lon="5.95505">
        <ele>1054.22</ele>
        <time>2017-01-22T16:57:08Z</time>
      </trkpt>
      <trkpt lat="45.2358" lon="5.95498">
        <ele>1052.78</ele>
        <time>2017-01-22T16:57:09Z</time>
      </trkpt>
      <trkpt lat="45.23581" lon="5.95491">
        <ele>1052.3</ele>
        <time>2017-01-22T16:57:10Z</time>
      </trkpt>
      <trkpt lat="45.23582" lon="5.95484">
        <ele>1051.34</ele>
        <time>2017-01-22T16:57:11Z</time>
      </trkpt>
      <trkpt lat="45.23583" lon="5.95475">
        <ele>1050.38</ele>
        <time>2017-01-22T16:57:12Z</time>
      </trkpt>
      <trkpt lat="45.23583" lon="5.95467">
        <ele>1049.42</ele>
        <time>2017-01-22T16:57:13Z</time>
      </trkpt>
      <trkpt lat="45.23584" lon="5.9546">
        <ele>1048.94</ele>
        <time>2017-01-22T16:57:14Z</time>
      </trkpt>
      <trkpt lat="45.23584" lon="5.95454">
        <ele>1047.49</ele>
        <time>2017-01-22T16:57:15Z</time>
      </trkpt>
      <trkpt lat="45.23585" lon="5.95447">
        <ele>1047.01</ele>
        <time>2017-01-22T16:57:16Z</time>
      </trkpt>
      <trkpt lat="45.23585" lon="5.95441">
        <ele>1046.53</ele>
        <time>2017-01-22T16:57:17Z</time>
      </trkpt>
      <trkpt lat="45.23585" lon="5.95435">
        <ele>1046.53</ele>
        <time>2017-01-22T16:57:18Z</time>
      </trkpt>
      <trkpt lat="45.23585" lon="5.95422">
        <ele>1045.09</ele>
        <time>2017-01-22T16:57:20Z</time>
      </trkpt>
      <trkpt lat="45.23585" lon="5.95416">
        <ele>1044.61</ele>
        <time>2017-01-22T16:57:21Z</time>
      </trkpt>
      <trkpt lat="45.23585" lon="5.9541">
        <ele>1044.13</ele>
        <time>2017-01-22T16:57:22Z</time>
      </trkpt>
      <trkpt lat="45.23586" lon="5.9539">
        <ele>1042.69</ele>
        <time>2017-01-22T16:57:25Z</time>
      </trkpt>
      <trkpt lat="45.2359" lon="5.95377">
        <ele>1040.76</ele>
        <time>2017-01-22T16:57:28Z</time>
      </trkpt>
      <trkpt lat="45.23594" lon="5.9537">
        <ele>1038.36</ele>
        <time>2017-01-22T16:57:31Z</time>
      </trkpt>
      <trkpt lat="45.23597" lon="5.95372">
        <ele>1038.84</ele>
        <time>2017-01-22T16:57:32Z</time>
      </trkpt>
      <trkpt lat="45.23599" lon="5.95373">
        <ele>1037.88</ele>
        <time>2017-01-22T16:57:33Z</time>
      </trkpt>
      <trkpt lat="45.23602" lon="5.95373">
        <ele>1037.88</ele>
        <time>2017-01-22T16:57:34Z</time>
      </trkpt>
      <trkpt lat="45.23604" lon="5.95375">
        <ele>1037.4</ele>
        <time>2017-01-22T16:57:35Z</time>
      </trkpt>
      <trkpt lat="45.23608" lon="5.95376">
        <ele>1037.4</ele>
        <time>2017-01-22T16:57:36Z</time>
      </trkpt>
      <trkpt lat="45.23611" lon="5.95377">
        <ele>1036.44</ele>
        <time>2017-01-22T16:57:37Z</time>
      </trkpt>
      <trkpt lat="45.23614" lon="5.95377">
        <ele>1035.96</ele>
        <time>2017-01-22T16:57:38Z</time>
      </trkpt>
      <trkpt lat="45.23618" lon="5.95377">
        <ele>1035.96</ele>
        <time>2017-01-22T16:57:39Z</time>
      </trkpt>
      <trkpt lat="45.23634" lon="5.95372">
        <ele>1033.55</ele>
        <time>2017-01-22T16:57:43Z</time>
      </trkpt>
      <trkpt lat="45.2367" lon="5.9535">
        <ele>1030.19</ele>
        <time>2017-01-22T16:57:52Z</time>
      </trkpt>
      <trkpt lat="45.23676" lon="5.95343">
        <ele>1029.71</ele>
        <time>2017-01-22T16:57:54Z</time>
      </trkpt>
      <trkpt lat="45.23687" lon="5.95327">
        <ele>1027.79</ele>
        <time>2017-01-22T16:57:57Z</time>
      </trkpt>
      <trkpt lat="45.23691" lon="5.95322">
        <ele>1027.31</ele>
        <time>2017-01-22T16:57:58Z</time>
      </trkpt>
      <trkpt lat="45.23695" lon="5.95316">
        <ele>1027.31</ele>
        <time>2017-01-22T16:57:59Z</time>
      </trkpt>
      <trkpt lat="45.23699" lon="5.9531">
        <ele>1027.31</ele>
        <time>2017-01-22T16:58:00Z</time>
      </trkpt>
      <trkpt lat="45.23703" lon="5.95305">
        <ele>1026.34</ele>
        <time>2017-01-22T16:58:01Z</time>
      </trkpt>
      <trkpt lat="45.23707" lon="5.953">
        <ele>1026.34</ele>
        <time>2017-01-22T16:58:02Z</time>
      </trkpt>
      <trkpt lat="45.23711" lon="5.95295">
        <ele>1025.86</ele>
        <time>2017-01-22T16:58:03Z</time>
      </trkpt>
      <trkpt lat="45.23717" lon="5.95284">
        <ele>1025.86</ele>
        <time>2017-01-22T16:58:05Z</time>
      </trkpt>
      <trkpt lat="45.23726" lon="5.95269">
        <ele>1024.42</ele>
        <time>2017-01-22T16:58:08Z</time>
      </trkpt>
      <trkpt lat="45.2373" lon="5.95264">
        <ele>1024.42</ele>
        <time>2017-01-22T16:58:09Z</time>
      </trkpt>
      <trkpt lat="45.23734" lon="5.95259">
        <ele>1023.94</ele>
        <time>2017-01-22T16:58:10Z</time>
      </trkpt>
      <trkpt lat="45.23738" lon="5.95254">
        <ele>1023.46</ele>
        <time>2017-01-22T16:58:11Z</time>
      </trkpt>
      <trkpt lat="45.23741" lon="5.95249">
        <ele>1023.46</ele>
        <time>2017-01-22T16:58:12Z</time>
      </trkpt>
      <trkpt lat="45.23744" lon="5.95244">
        <ele>1022.98</ele>
        <time>2017-01-22T16:58:13Z</time>
      </trkpt>
      <trkpt lat="45.23747" lon="5.95241">
        <ele>1022.98</ele>
        <time>2017-01-22T16:58:14Z</time>
      </trkpt>
      <trkpt lat="45.2375" lon="5.95237">
        <ele>1022.02</ele>
        <time>2017-01-22T16:58:15Z</time>
      </trkpt>
      <trkpt lat="45.23754" lon="5.95234">
        <ele>1022.02</ele>
        <time>2017-01-22T16:58:16Z</time>
      </trkpt>
      <trkpt lat="45.23758" lon="5.95233">
        <ele>1022.02</ele>
        <time>2017-01-22T16:58:17Z</time>
      </trkpt>
      <trkpt lat="45.23761" lon="5.95232">
        <ele>1021.54</ele>
        <time>2017-01-22T16:58:18Z</time>
      </trkpt>
      <trkpt lat="45.23764" lon="5.9523">
        <ele>1021.54</ele>
        <time>2017-01-22T16:58:19Z</time>
      </trkpt>
      <trkpt lat="45.23766" lon="5.95227">
        <ele>1020.58</ele>
        <time>2017-01-22T16:58:20Z</time>
      </trkpt>
      <trkpt lat="45.23769" lon="5.95226">
        <ele>1020.1</ele>
        <time>2017-01-22T16:58:21Z</time>
      </trkpt>
      <trkpt lat="45.23772" lon="5.95225">
        <ele>1020.1</ele>
        <time>2017-01-22T16:58:22Z</time>
      </trkpt>
      <trkpt lat="45.23775" lon="5.95223">
        <ele>1019.13</ele>
        <time>2017-01-22T16:58:23Z</time>
      </trkpt>
      <trkpt lat="45.23779" lon="5.95222">
        <ele>1018.65</ele>
        <time>2017-01-22T16:58:24Z</time>
      </trkpt>
      <trkpt lat="45.23783" lon="5.95221">
        <ele>1017.69</ele>
        <time>2017-01-22T16:58:25Z</time>
      </trkpt>
      <trkpt lat="45.23787" lon="5.9522">
        <ele>1017.21</ele>
        <time>2017-01-22T16:58:26Z</time>
      </trkpt>
      <trkpt lat="45.23793" lon="5.95219">
        <ele>1016.25</ele>
        <time>2017-01-22T16:58:27Z</time>
      </trkpt>
      <trkpt lat="45.23798" lon="5.95216">
        <ele>1015.77</ele>
        <time>2017-01-22T16:58:28Z</time>
      </trkpt>
      <trkpt lat="45.23801" lon="5.95212">
        <ele>1014.81</ele>
        <time>2017-01-22T16:58:29Z</time>
      </trkpt>
      <trkpt lat="45.23802" lon="5.95206">
        <ele>1014.33</ele>
        <time>2017-01-22T16:58:30Z</time>
      </trkpt>
      <trkpt lat="45.23804" lon="5.95195">
        <ele>1013.37</ele>
        <time>2017-01-22T16:58:32Z</time>
      </trkpt>
      <trkpt lat="45.23805" lon="5.9519">
        <ele>1013.37</ele>
        <time>2017-01-22T16:58:33Z</time>
      </trkpt>
      <trkpt lat="45.23806" lon="5.95184">
        <ele>1012.89</ele>
        <time>2017-01-22T16:58:34Z</time>
      </trkpt>
      <trkpt lat="45.23806" lon="5.95179">
        <ele>1012.89</ele>
        <time>2017-01-22T16:58:35Z</time>
      </trkpt>
      <trkpt lat="45.23806" lon="5.95173">
        <ele>1012.41</ele>
        <time>2017-01-22T16:58:36Z</time>
      </trkpt>
      <trkpt lat="45.23807" lon="5.95168">
        <ele>1012.41</ele>
        <time>2017-01-22T16:58:37Z</time>
      </trkpt>
      <trkpt lat="45.23808" lon="5.95163">
        <ele>1011.93</ele>
        <time>2017-01-22T16:58:38Z</time>
      </trkpt>
      <trkpt lat="45.2381" lon="5.95157">
        <ele>1011.93</ele>
        <time>2017-01-22T16:58:39Z</time>
      </trkpt>
      <trkpt lat="45.23811" lon="5.95153">
        <ele>1011.93</ele>
        <time>2017-01-22T16:58:40Z</time>
      </trkpt>
      <trkpt lat="45.23813" lon="5.95149">
        <ele>1011.44</ele>
        <time>2017-01-22T16:58:41Z</time>
      </trkpt>
      <trkpt lat="45.23814" lon="5.95144">
        <ele>1010.96</ele>
        <time>2017-01-22T16:58:42Z</time>
      </trkpt>
      <trkpt lat="45.23817" lon="5.9514">
        <ele>1010.96</ele>
        <time>2017-01-22T16:58:43Z</time>
      </trkpt>
      <trkpt lat="45.23819" lon="5.95137">
        <ele>1010.48</ele>
        <time>2017-01-22T16:58:44Z</time>
      </trkpt>
      <trkpt lat="45.23821" lon="5.95133">
        <ele>1010.48</ele>
        <time>2017-01-22T16:58:45Z</time>
      </trkpt>
      <trkpt lat="45.23823" lon="5.95128">
        <ele>1010</ele>
        <time>2017-01-22T16:58:46Z</time>
      </trkpt>
      <trkpt lat="45.23825" lon="5.95123">
        <ele>1009.04</ele>
        <time>2017-01-22T16:58:47Z</time>
      </trkpt>
      <trkpt lat="45.23828" lon="5.95119">
        <ele>1009.04</ele>
        <time>2017-01-22T16:58:48Z</time>
      </trkpt>
      <trkpt lat="45.23831" lon="5.95116">
        <ele>1008.56</ele>
        <time>2017-01-22T16:58:49Z</time>
      </trkpt>
      <trkpt lat="45.23834" lon="5.95113">
        <ele>1008.56</ele>
        <time>2017-01-22T16:58:50Z</time>
      </trkpt>
      <trkpt lat="45.23837" lon="5.9511">
        <ele>1008.56</ele>
        <time>2017-01-22T16:58:51Z</time>
      </trkpt>
      <trkpt lat="45.23839" lon="5.95108">
        <ele>1008.56</ele>
        <time>2017-01-22T16:58:52Z</time>
      </trkpt>
      <trkpt lat="45.23841" lon="5.95106">
        <ele>1007.6</ele>
        <time>2017-01-22T16:58:53Z</time>
      </trkpt>
      <trkpt lat="45.23843" lon="5.95106">
        <ele>1007.6</ele>
        <time>2017-01-22T16:58:54Z</time>
      </trkpt>
      <trkpt lat="45.23845" lon="5.95105">
        <ele>1007.6</ele>
        <time>2017-01-22T16:58:55Z</time>
      </trkpt>
      <trkpt lat="45.23847" lon="5.95106">
        <ele>1007.6</ele>
        <time>2017-01-22T16:58:56Z</time>
      </trkpt>
      <trkpt lat="45.23849" lon="5.95106">
        <ele>1007.6</ele>
        <time>2017-01-22T16:58:57Z</time>
      </trkpt>
      <trkpt lat="45.2385" lon="5.95107">
        <ele>1007.6</ele>
        <time>2017-01-22T16:58:58Z</time>
      </trkpt>
      <trkpt lat="45.23851" lon="5.95109">
        <ele>1007.6</ele>
        <time>2017-01-22T16:58:59Z</time>
      </trkpt>
      <trkpt lat="45.23853" lon="5.9511">
        <ele>1007.12</ele>
        <time>2017-01-22T16:59:00Z</time>
      </trkpt>
      <trkpt lat="45.23855" lon="5.95111">
        <ele>1007.12</ele>
        <time>2017-01-22T16:59:01Z</time>
      </trkpt>
      <trkpt lat="45.23857" lon="5.95113">
        <ele>1007.12</ele>
        <time>2017-01-22T16:59:02Z</time>
      </trkpt>
      <trkpt lat="45.23868" lon="5.95122">
        <ele>1007.12</ele>
        <time>2017-01-22T16:59:07Z</time>
      </trkpt>
      <trkpt lat="45.23871" lon="5.95126">
        <ele>1007.12</ele>
        <time>2017-01-22T16:59:08Z</time>
      </trkpt>
      <trkpt lat="45.23873" lon="5.95128">
        <ele>1007.12</ele>
        <time>2017-01-22T16:59:09Z</time>
      </trkpt>
      <trkpt lat="45.23882" lon="5.95141">
        <ele>1007.12</ele>
        <time>2017-01-22T16:59:22Z</time>
      </trkpt>
      <trkpt lat="45.23888" lon="5.95148">
        <ele>1007.12</ele>
        <time>2017-01-22T16:59:27Z</time>
      </trkpt>
      <trkpt lat="45.23914" lon="5.95164">
        <ele>1005.68</ele>
        <time>2017-01-22T16:59:46Z</time>
      </trkpt>
      <trkpt lat="45.2392" lon="5.95163">
        <ele>1005.2</ele>
        <time>2017-01-22T16:59:50Z</time>
      </trkpt>
      <trkpt lat="45.23941" lon="5.9515">
        <ele>1004.23</ele>
        <time>2017-01-22T17:00:03Z</time>
      </trkpt>
      <trkpt lat="45.23943" lon="5.95148">
        <ele>1003.75</ele>
        <time>2017-01-22T17:00:28Z</time>
      </trkpt>
      <trkpt lat="45.23942" lon="5.95152">
        <ele>1003.75</ele>
        <time>2017-01-22T17:00:47Z</time>
      </trkpt>
      <trkpt lat="45.23944" lon="5.95152">
        <ele>1003.75</ele>
        <time>2017-01-22T17:01:06Z</time>
      </trkpt>
      <trkpt lat="45.23943" lon="5.95148">
        <ele>1003.75</ele>
        <time>2017-01-22T17:01:21Z</time>
      </trkpt>
      <trkpt lat="45.23942" lon="5.95149">
        <ele>1003.75</ele>
        <time>2017-01-22T17:01:40Z</time>
      </trkpt>
      <trkpt lat="45.23942" lon="5.9515">
        <ele>1004.23</ele>
        <time>2017-01-22T17:01:56Z</time>
      </trkpt>
      <trkpt lat="45.23943" lon="5.95148">
        <ele>1004.23</ele>
        <time>2017-01-22T17:02:18Z</time>
      </trkpt>
      <trkpt lat="45.23946" lon="5.95146">
        <ele>1004.23</ele>
        <time>2017-01-22T17:02:34Z</time>
      </trkpt>
      <trkpt lat="45.23946" lon="5.95147">
        <ele>1004.72</ele>
        <time>2017-01-22T17:03:18Z</time>
      </trkpt>
      <trkpt lat="45.23944" lon="5.95146">
        <ele>1004.72</ele>
        <time>2017-01-22T17:03:41Z</time>
      </trkpt>
      <trkpt lat="45.23946" lon="5.95148">
        <ele>1004.72</ele>
        <time>2017-01-22T17:03:58Z</time>
      </trkpt>
      <trkpt lat="45.23942" lon="5.95154">
        <ele>1004.72</ele>
        <time>2017-01-22T17:04:13Z</time>
      </trkpt>
      <trkpt lat="45.23942" lon="5.95148">
        <ele>1004.72</ele>
        <time>2017-01-22T17:04:29Z</time>
      </trkpt>
      <trkpt lat="45.23943" lon="5.95147">
        <ele>1004.23</ele>
        <time>2017-01-22T17:04:47Z</time>
      </trkpt>
    </trkseg>
  </trk>
</gpx>